GFSCGP_850_rhum_000.txt.gz
RH
94 92 95 82 70 61 59 52 61 45 36 36 42 45 37 31 28 27 31 39 39 34 38 34 30 28 26 25 24 20 21 21 24 29 37 51 61 65 71 76 78 80 78 82
94 90 69 72 70 62 48 50 52 50 39 38 42 42 37 36 28 26 35 42 41 37 34 33 30 26 25 24 23 22 22 24 28 34 44 54 63 72 79 77 73 69 66 67
78 82 62 68 67 63 53 57 56 58 46 41 45 47 41 29 31 34 38 42 42 36 36 36 33 32 30 26 26 26 26 26 28 34 46 61 72 71 62 53 49 51 56 57
86 75 75 69 80 69 88 51 45 45 49 59 42 63 47 32 37 44 42 44 43 40 42 39 37 33 32 33 33 32 31 32 36 38 38 40 42 41 46 49 50 48 46 46
86 88 91 79 70 69 72 46 48 44 50 48 46 55 49 35 42 45 49 44 45 43 41 42 39 37 38 38 36 36 35 36 39 38 39 40 42 46 48 44 41 36 34 33
67 64 74 80 68 58 50 48 44 52 53 67 52 50 53 42 40 43 44 42 46 43 45 44 42 42 41 42 42 42 40 41 42 40 39 38 37 36 33 30 30 30 31 31
66 82 58 57 55 45 49 49 77 65 70 72 49 56 49 34 33 38 45 39 45 45 46 45 44 44 44 44 46 45 45 45 45 37 32 32 33 33 32 33 33 33 34 34
86 95 57 39 60 69 58 55 69 71 74 63 54 57 40 35 44 34 34 33 44 46 46 45 45 45 45 45 46 48 47 47 47 42 31 31 34 34 34 34 35 36 36 34
81 77 37 33 35 54 56 54 46 61 60 72 62 48 38 42 49 48 42 38 46 45 44 46 48 47 46 47 49 51 51 50 44 34 30 32 35 37 39 40 39 36 27 19
56 57 43 34 28 30 43 42 53 63 66 70 62 51 50 34 41 51 54 46 46 45 45 49 48 48 49 52 53 54 53 48 39 33 35 39 42 44 43 38 30 18 6 1
46 50 54 39 44 43 39 45 52 55 63 64 65 51 40 35 39 53 52 42 45 45 45 47 49 52 53 55 56 56 50 43 37 37 44 48 48 44 33 20 7 0 1 2
50 60 60 49 45 40 36 41 45 62 57 63 61 53 35 42 42 48 47 43 42 42 44 48 51 53 56 58 58 53 47 40 39 48 52 52 45 34 15 3 1 2 3 4
59 65 82 68 55 54 47 44 43 52 56 64 60 52 35 41 45 43 42 39 38 41 48 55 56 58 60 60 56 51 43 39 48 53 54 48 34 13 3 2 3 4 4 5
46 63 62 72 54 60 62 52 48 46 62 60 58 42 33 37 40 40 38 38 38 42 49 54 61 63 63 61 55 46 44 52 57 59 49 31 14 5 3 4 4 5 6 7
50 56 50 47 54 55 55 55 54 51 46 53 46 49 34 34 35 35 35 41 44 50 56 58 63 65 64 60 50 47 57 65 67 52 33 16 9 4 5 6 6 6 7 8
52 55 42 40 41 36 43 48 57 51 51 43 52 48 34 42 43 48 46 44 46 52 57 61 66 65 65 57 49 61 66 68 60 43 29 12 8 7 7 7 7 8 9 10
44 46 48 51 44 40 38 42 64 54 47 51 57 42 41 54 52 45 42 40 42 44 52 59 65 69 64 53 63 68 73 66 57 51 28 13 8 7 8 8 9 10 11 13
44 45 47 50 49 45 33 47 40 49 50 49 57 56 53 54 48 44 43 42 42 48 54 59 66 68 58 62 69 74 71 65 53 33 18 8 8 9 10 10 11 12 14 16
46 53 67 59 59 47 52 53 61 53 65 57 61 58 53 49 47 48 48 46 46 48 55 60 69 64 60 67 72 76 73 53 32 17 9 8 10 11 12 11 14 16 18 18
55 58 52 88 76 62 46 47 43 48 69 62 58 63 61 55 66 65 50 53 53 54 60 68 68 62 66 73 84 78 64 48 19 11 10 11 12 12 13 16 18 20 22 21
62 68 64 75 73 66 48 48 42 58 58 66 54 52 56 64 55 53 55 60 63 68 70 70 67 70 75 84 77 73 41 20 16 11 11 12 12 15 18 20 22 24 24 23
56 73 77 83 75 70 52 53 56 60 60 51 51 52 52 51 52 57 60 66 70 72 74 76 76 75 83 80 70 33 20 15 12 12 12 14 16 20 23 25 26 26 26 24
62 60 66 68 69 61 57 54 50 49 51 54 53 53 54 55 57 57 56 62 71 78 81 80 79 84 82 64 40 18 14 13 12 13 14 18 22 26 27 27 28 28 28 30
65 65 70 67 68 62 56 54 52 52 53 55 58 59 59 60 64 64 61 62 71 81 85 84 88 84 62 38 19 16 15 14 14 17 20 24 27 29 28 29 30 32 36 53
69 70 76 78 76 67 61 56 55 58 60 62 62 62 63 64 67 69 68 68 74 83 88 94 85 64 48 22 18 17 16 17 19 21 24 28 30 30 31 31 35 44 59 86
80 75 78 75 66 65 63 58 56 59 62 64 64 59 58 63 68 72 75 78 82 86 86 82 70 67 24 20 19 18 20 22 23 24 29 31 32 32 33 35 37 54 77 94

GFSCGP_850_rhum_003.txt.gz
RH
89 89 95 76 71 61 55 53 52 56 40 39 43 42 35 32 31 32 35 42 40 40 42 37 30 28 27 25 23 21 20 24 28 31 40 49 57 66 70 75 76 72 66 62
81 92 74 71 72 61 59 59 59 51 42 40 44 42 35 37 34 28 36 45 41 41 39 36 31 27 24 24 22 20 20 23 26 32 48 61 70 73 71 65 58 50 48 47
79 79 61 68 82 74 63 63 60 60 49 43 46 44 40 32 32 37 42 41 40 38 40 39 33 30 30 25 24 24 25 26 29 36 49 60 60 56 46 42 43 44 46 44
85 73 69 73 76 72 84 51 52 50 58 65 42 53 46 36 36 46 51 47 43 44 43 37 34 33 31 31 31 29 30 31 35 38 39 39 40 40 48 49 45 36 32 31
89 84 76 82 74 68 75 60 59 51 53 50 49 50 43 37 39 45 50 52 48 45 42 40 39 38 37 37 34 35 35 36 38 38 38 37 37 38 36 33 32 32 34 36
89 72 74 69 66 64 49 57 62 52 50 61 51 47 47 40 34 45 47 50 51 47 45 45 46 44 42 42 42 42 40 41 38 35 32 31 32 32 32 32 35 38 39 39
89 86 84 84 65 55 51 71 98 96 74 64 53 54 43 38 34 37 42 46 50 46 45 48 48 48 46 48 47 46 44 42 42 38 32 30 32 34 36 39 41 42 42 38
97 99 73 77 80 73 74 72 78 76 69 59 56 56 36 33 38 36 37 40 47 47 49 49 49 49 50 51 51 49 48 45 41 35 32 33 36 40 44 46 45 38 28 12
79 84 52 56 51 58 78 80 48 62 63 68 62 50 38 37 44 47 45 42 48 48 51 50 51 52 53 53 53 52 51 46 39 35 34 39 45 49 48 43 36 23 8 2
69 69 52 35 40 35 56 46 74 59 66 71 64 55 48 35 37 52 51 50 51 50 52 52 53 55 56 55 54 54 51 46 39 35 41 49 50 48 44 35 21 7 0 2
52 58 58 39 44 48 52 75 57 53 61 64 60 48 40 36 36 47 50 47 47 47 49 53 55 58 57 56 56 54 50 42 37 42 50 51 51 44 32 15 5 3 3 4
47 60 66 49 48 40 40 48 49 57 60 63 58 51 34 41 44 48 48 42 42 44 49 53 55 58 59 58 57 53 47 40 41 48 53 53 46 36 19 8 4 4 5 7
54 65 77 62 54 57 49 42 44 52 54 62 58 50 35 43 48 48 45 40 42 46 50 55 60 61 60 59 57 52 45 41 48 57 55 48 40 24 14 10 7 7 7 8
45 63 69 71 63 61 64 53 49 44 57 58 54 42 34 36 45 46 42 40 40 42 48 57 62 62 63 61 57 50 43 48 58 58 55 48 39 24 17 10 8 8 8 9
48 57 52 50 51 52 54 54 51 50 43 47 45 49 40 35 44 41 34 35 38 46 53 59 62 65 65 63 57 48 50 58 61 64 53 43 32 20 11 8 9 9 9 11
54 56 45 45 48 48 56 55 51 48 50 50 48 50 39 44 42 48 48 45 46 48 54 60 65 66 67 65 56 51 57 66 71 58 44 34 23 12 9 9 9 9 11 16
57 50 53 57 44 40 45 46 60 51 54 44 53 40 46 56 55 50 49 48 49 50 52 56 64 72 71 65 55 57 66 73 67 50 38 28 13 10 10 9 9 12 18 22
60 62 55 55 46 53 40 48 49 52 46 43 48 48 52 55 49 45 43 42 43 45 49 56 67 76 73 62 59 63 73 77 61 48 31 15 11 10 10 10 14 20 24 26
49 50 62 60 56 46 55 55 57 51 55 60 64 63 58 50 47 52 50 48 48 49 50 58 68 76 71 61 62 72 81 69 53 35 20 12 11 10 11 15 21 25 28 29
54 51 52 87 64 47 42 47 45 49 57 63 59 64 59 53 59 57 49 48 49 50 52 62 74 76 66 65 70 83 70 57 39 22 13 12 12 13 17 22 26 29 30 32
60 64 62 72 66 61 50 49 45 57 49 62 54 56 57 59 53 51 48 48 51 55 63 71 76 70 68 72 81 74 56 44 23 14 13 13 15 18 23 27 30 32 33 31
57 68 69 78 71 56 50 51 54 57 62 53 49 50 50 50 51 51 51 52 57 64 68 73 73 73 74 80 78 58 41 25 17 14 14 16 18 22 27 30 33 34 31 29
55 50 61 61 62 66 60 55 54 53 49 52 50 50 50 53 57 57 55 56 63 72 79 81 80 79 82 80 60 40 31 18 15 15 17 19 20 26 32 34 34 31 30 31
66 67 73 68 68 64 62 54 49 48 50 51 51 53 55 56 59 62 64 63 67 77 84 86 84 84 86 66 45 35 19 17 17 18 20 20 27 33 34 34 30 30 32 40
68 67 78 85 76 65 60 54 52 54 54 56 59 60 60 61 63 67 69 70 70 77 86 88 89 89 66 61 30 21 19 19 20 20 20 30 35 35 33 30 31 35 45 74
80 74 75 73 68 65 60 58 59 58 60 62 60 58 55 51 53 60 68 75 79 82 85 90 87 74 63 29 23 21 22 22 20 20 33 36 36 34 31 30 28 38 54 90

GFSCGP_850_rhum_006.txt.gz
RH
69 91 95 70 73 48 38 43 48 39 33 38 38 36 28 27 27 25 26 32 37 42 42 37 36 35 33 30 27 28 32 36 42 53 58 67 70 74 72 70 66 57 45 38
68 93 67 76 62 57 44 48 48 35 36 36 38 40 33 26 25 25 27 32 38 44 47 41 35 32 28 25 24 24 25 30 39 51 59 65 67 67 62 50 41 39 39 35
80 77 61 82 62 60 50 50 42 42 43 41 38 38 31 25 26 29 29 34 38 41 45 48 38 33 29 27 27 26 26 27 33 42 52 54 51 46 44 44 40 33 32 34
59 58 81 75 70 58 57 43 45 51 63 57 38 46 32 24 26 29 35 39 41 45 48 52 50 38 32 31 31 30 31 32 35 38 39 40 40 39 37 33 34 36 38 39
77 81 89 84 68 48 49 47 49 54 60 55 47 45 30 28 27 31 34 38 43 47 50 56 49 36 36 35 34 35 35 35 36 35 34 33 32 32 33 35 39 41 42 36
52 88 80 56 54 50 48 49 52 46 52 64 41 41 31 24 22 26 34 40 46 51 54 58 42 39 38 38 38 38 38 37 35 34 32 31 32 35 40 44 46 40 35 31
81 90 90 55 80 63 50 61 98 92 83 60 38 41 28 24 24 24 33 40 45 52 56 59 47 45 43 44 44 42 40 39 38 34 32 34 37 43 46 43 40 38 34 30
99 99 96 63 63 81 62 53 53 63 59 46 43 42 25 25 27 26 28 37 45 52 54 57 59 49 48 48 47 46 44 40 37 35 35 37 43 47 45 46 41 36 28 13
96 99 80 67 60 55 85 81 39 44 46 44 37 34 28 28 30 31 30 38 46 52 55 59 60 53 51 52 51 50 46 41 38 36 38 42 48 49 50 42 38 28 14 5
63 96 70 67 68 63 64 51 69 50 58 54 40 39 30 25 27 32 31 38 46 53 56 60 64 58 56 54 54 52 48 42 39 38 43 48 52 50 44 37 30 18 8 5
53 54 74 60 75 76 65 83 66 44 43 42 40 33 24 26 26 29 29 35 45 54 56 60 63 62 57 56 56 54 49 44 40 42 48 53 51 45 39 31 22 15 10 7
57 40 85 65 46 43 47 52 50 56 53 43 39 32 25 26 29 31 31 36 46 50 56 60 66 59 58 58 57 55 50 44 42 46 54 52 48 43 36 29 25 12 8 8
43 44 63 75 58 46 56 48 49 38 37 43 43 35 26 30 34 38 35 40 46 52 59 63 70 62 61 60 59 56 51 44 44 54 55 53 48 44 39 26 13 9 8 9
43 44 38 51 47 42 53 46 47 48 50 41 37 30 28 30 35 37 37 38 44 52 59 64 72 68 64 62 59 56 50 45 51 57 59 50 45 42 29 16 10 9 9 10
52 47 44 44 42 39 42 48 43 46 42 43 35 35 27 24 31 32 36 38 40 48 61 67 72 70 65 63 61 57 50 50 57 63 57 47 45 34 21 10 10 9 10 17
49 53 40 44 48 41 42 40 44 44 40 35 32 33 25 26 31 34 34 37 42 49 59 66 72 71 67 66 63 57 52 57 65 65 55 50 39 24 12 10 10 12 18 23
52 47 46 49 41 42 52 42 41 38 33 32 38 30 29 36 34 35 40 45 48 53 55 61 71 73 70 68 65 56 56 64 71 63 53 44 31 14 11 10 13 19 24 27
52 48 49 57 43 64 36 39 32 36 32 30 30 33 31 32 40 48 48 46 51 48 49 55 66 70 74 72 65 58 62 72 70 58 47 35 15 12 11 13 19 24 27 31
45 78 78 59 79 38 36 44 39 43 39 35 35 33 40 46 46 54 57 51 49 48 50 55 62 73 77 73 64 62 69 73 62 50 39 17 12 12 14 18 22 26 31 35
63 82 86 78 57 49 37 42 38 34 32 38 36 41 45 45 44 42 55 50 48 48 50 55 64 76 78 70 65 65 76 68 51 42 22 14 13 15 18 21 26 32 35 40
64 60 86 60 71 40 38 41 45 39 39 50 44 46 48 42 45 57 48 46 47 48 53 61 72 76 73 68 66 76 72 56 42 27 16 14 16 18 20 27 33 36 40 44
60 55 54 65 87 85 47 49 44 48 56 53 52 53 52 53 50 47 46 46 49 52 57 65 71 72 70 69 75 75 58 43 31 18 15 16 18 19 28 34 35 33 45 48
46 42 44 42 45 59 59 53 51 54 53 54 53 50 46 48 49 49 50 48 49 53 60 67 73 74 74 76 78 67 46 34 21 16 18 19 18 31 36 36 33 43 49 49
55 58 48 52 59 57 60 60 58 54 50 49 46 46 47 49 52 51 52 54 52 54 63 74 80 81 80 80 74 52 42 22 18 18 19 19 33 37 36 38 47 42 51 59
52 55 56 68 65 60 59 57 51 51 49 48 51 51 54 55 57 59 62 63 65 66 71 79 85 85 83 78 52 44 23 19 19 19 20 34 39 40 40 41 44 55 64 67
56 52 49 47 51 48 51 58 54 53 53 54 53 56 54 50 49 50 56 62 70 76 80 86 87 88 80 57 47 24 20 20 19 19 34 39 40 42 40 47 53 66 80 92

GFSCGP_850_rhum_009.txt.gz
RH
59 84 87 67 60 69 51 57 45 38 29 32 36 34 26 24 24 23 20 22 27 33 42 47 48 48 51 60 67 68 71 75 79 84 82 78 72 72 70 65 49 38 37 31
71 90 56 46 57 64 59 50 43 35 32 34 32 33 26 24 25 24 20 21 27 36 39 45 46 46 46 52 48 56 69 82 78 71 74 71 69 63 45 41 40 32 31 34
76 72 49 46 66 76 63 65 44 43 36 34 35 41 35 28 25 24 23 22 28 33 38 43 46 49 50 34 29 29 32 38 47 52 52 50 47 53 46 36 32 34 38 40
66 58 71 50 67 79 72 54 37 40 46 51 36 41 25 24 24 24 22 25 30 33 37 42 46 51 48 32 31 31 31 33 42 52 54 56 48 35 32 33 38 43 40 35
78 74 81 63 71 71 72 46 40 45 46 59 55 49 30 23 24 25 22 27 32 36 40 45 50 56 44 35 34 34 34 35 36 35 33 32 31 32 38 44 42 38 38 37
60 65 67 58 63 81 63 52 55 50 50 62 41 42 29 26 23 21 24 30 35 39 44 49 56 59 43 39 38 37 35 34 33 33 32 32 36 41 44 42 42 41 37 34
87 95 84 75 94 92 72 77 92 79 76 52 31 37 29 21 20 19 26 31 36 41 46 52 57 60 56 44 40 38 36 36 35 34 35 36 40 43 44 46 46 41 38 35
99 97 90 72 92 92 83 76 56 63 57 44 34 43 28 21 20 20 26 31 37 43 46 52 55 60 66 51 44 41 40 37 36 36 37 39 43 46 48 49 46 40 38 33
87 91 76 84 72 65 81 77 39 41 34 37 38 30 24 23 25 23 25 31 37 42 46 49 56 62 66 57 51 46 42 39 37 38 40 44 46 50 50 46 44 41 35 28
91 98 88 92 75 83 70 41 56 40 50 46 36 30 29 26 25 26 24 31 37 42 46 50 56 61 63 61 51 49 46 42 39 39 43 47 51 50 48 48 45 39 32 25
92 95 94 92 82 87 90 68 54 36 37 38 39 32 21 22 22 26 24 29 37 43 46 51 55 61 63 58 52 52 50 45 41 42 46 50 51 51 51 48 42 34 23 16
79 93 100 74 46 50 63 62 45 45 48 37 36 32 20 21 24 24 24 29 36 44 46 50 54 64 64 60 57 55 54 49 44 44 48 52 53 53 50 45 37 24 16 11
55 67 100 94 61 64 74 50 47 42 36 39 37 33 21 23 28 28 26 29 37 45 46 50 56 64 62 62 59 58 56 51 45 45 51 53 55 51 47 40 28 18 11 9
49 48 49 49 45 59 73 61 45 44 46 40 35 30 25 26 28 29 29 32 38 43 48 50 57 61 58 59 58 56 55 51 46 49 53 58 54 52 45 33 20 12 10 8
55 50 37 31 33 40 45 52 52 51 44 43 32 31 24 22 25 27 30 34 37 43 48 50 58 59 58 57 56 53 52 51 48 53 59 60 55 48 36 22 13 9 8 13
50 57 41 43 40 35 40 39 42 44 42 39 32 32 22 21 21 25 28 31 35 40 46 52 59 60 59 58 56 55 55 51 53 59 64 60 52 40 23 13 10 9 13 21
59 62 46 48 40 43 50 37 37 38 35 34 39 31 24 27 26 26 28 32 34 38 45 54 60 64 62 59 58 58 56 53 58 66 64 53 45 30 16 11 10 15 24 32
56 56 49 60 42 64 34 32 30 33 33 31 31 27 27 27 28 29 33 36 40 47 53 59 64 68 66 62 61 56 56 57 65 67 55 47 33 20 13 12 16 23 32 37
55 61 66 67 68 49 39 34 34 36 36 28 28 26 27 33 43 48 49 44 49 52 56 65 70 71 69 67 66 62 59 63 68 57 47 34 24 15 13 15 19 24 35 38
64 62 75 72 59 62 35 35 30 29 41 24 27 29 31 42 45 43 58 60 52 49 52 59 66 67 72 70 68 62 60 67 64 52 41 30 18 14 16 17 22 35 39 37
97 96 96 96 87 48 33 34 33 38 41 36 31 32 39 41 42 54 55 53 49 46 47 54 64 71 68 70 66 55 64 69 56 46 39 22 15 17 17 24 35 36 35 39
82 89 94 96 92 82 37 42 40 46 45 39 38 40 42 54 58 58 57 46 47 44 52 62 69 68 68 68 64 67 71 63 50 49 27 17 17 17 24 35 37 34 44 47
65 44 44 45 52 48 42 48 50 47 46 45 46 50 53 55 59 54 50 48 49 51 55 64 66 67 68 68 71 75 74 59 56 27 18 18 15 23 36 39 40 46 48 47
41 43 40 41 49 46 48 53 51 47 49 52 53 53 52 55 60 61 58 55 54 55 59 66 70 71 72 76 78 80 65 64 30 18 19 16 21 34 40 46 49 48 50 56
43 44 46 49 56 54 54 52 54 56 57 54 51 53 55 53 60 59 62 67 68 65 65 68 75 73 72 81 82 71 64 30 19 19 15 21 36 42 48 50 48 52 56 67
48 42 46 42 42 40 47 54 58 59 56 50 47 51 51 55 51 51 57 58 62 68 72 76 79 81 82 85 72 64 28 20 18 16 21 36 43 49 51 50 50 53 62 68

GFSCGP_850_rhum_012.txt.gz
RH
55 76 86 77 70 66 61 58 67 46 43 43 41 39 37 30 28 28 24 21 27 33 42 46 50 56 65 69 68 67 68 76 82 90 93 93 85 73 70 61 41 35 30 32
69 84 59 54 57 64 62 74 76 51 42 42 38 40 34 32 29 26 24 22 28 37 44 47 47 52 62 72 75 77 79 83 88 85 78 67 67 60 44 38 31 32 36 38
76 65 56 51 54 64 63 67 78 71 46 49 40 46 39 30 26 24 24 23 28 36 43 46 46 48 54 52 53 64 68 65 69 65 63 60 46 42 35 32 35 39 40 37
64 51 52 59 59 55 67 54 64 74 82 73 44 66 43 34 33 32 26 24 33 35 40 45 49 51 46 44 42 45 51 52 54 52 49 44 38 33 34 38 41 40 39 38
78 67 58 64 76 54 65 55 67 70 81 80 61 57 47 31 38 33 29 24 33 35 40 45 51 51 47 46 42 41 41 45 52 52 46 34 32 35 42 41 42 42 42 44
71 54 58 60 55 66 53 68 84 79 76 90 81 58 48 36 32 30 27 28 33 36 41 47 54 55 50 47 41 38 36 36 35 33 33 33 36 41 42 44 44 44 44 43
92 87 66 76 86 61 66 88 96 100 99 92 46 60 44 24 24 24 27 32 36 38 44 52 58 58 51 46 42 38 35 34 34 33 35 38 41 42 44 46 47 46 46 46
86 84 87 80 86 75 81 92 100 97 98 57 38 54 41 24 22 23 27 32 37 42 47 54 60 59 51 46 44 39 37 35 35 36 38 40 42 44 47 48 47 48 48 45
97 95 80 69 63 74 80 99 84 83 40 51 49 34 28 29 27 30 32 36 40 43 49 54 59 61 57 52 48 42 39 37 36 38 40 42 44 47 48 49 50 49 47 42
93 100 82 82 76 82 86 75 98 83 58 68 55 46 42 37 36 29 37 39 42 43 49 53 58 64 62 57 53 47 42 39 38 39 41 43 46 49 50 52 51 49 44 36
93 98 96 81 95 90 97 97 82 66 58 56 58 45 32 32 32 33 34 37 42 44 49 52 58 63 64 60 56 52 47 43 41 41 42 45 48 50 53 52 51 48 39 28
90 97 100 99 74 74 77 82 59 56 60 55 49 45 26 30 29 31 28 35 40 43 48 52 58 62 62 59 58 54 52 48 44 43 44 46 50 53 54 53 50 42 32 21
94 99 100 99 94 94 92 77 57 56 51 56 48 47 29 34 33 27 28 34 40 44 47 52 57 62 62 61 60 57 55 52 48 45 45 48 52 55 56 53 46 36 24 15
86 81 99 98 73 82 89 72 57 59 62 49 42 40 33 37 38 33 29 32 41 45 47 51 57 62 62 62 60 58 57 54 50 46 47 50 56 58 56 51 40 26 15 9
83 93 88 61 62 62 64 65 61 60 55 51 38 36 32 36 39 36 30 35 42 46 47 50 56 62 60 60 59 57 55 54 50 47 50 56 61 58 56 46 30 16 10 11
52 76 65 49 43 50 63 60 58 54 48 47 46 43 27 25 28 32 32 35 42 44 47 49 56 60 59 58 57 55 53 53 50 49 55 62 62 59 50 36 19 12 13 13
62 72 64 58 43 45 54 48 54 54 49 48 54 41 30 30 30 32 31 34 38 43 47 50 56 60 58 57 56 54 54 54 51 54 62 64 60 53 42 22 13 14 13 18
68 71 66 63 47 71 40 34 35 41 40 40 38 35 32 33 32 34 29 32 36 40 46 52 58 62 60 59 58 56 56 54 54 62 66 61 54 43 26 15 14 13 18 30
52 65 78 75 75 54 44 35 37 43 43 35 39 37 41 42 39 50 43 40 45 48 52 56 61 65 64 61 60 59 55 55 61 66 61 52 41 28 18 14 13 18 32 34
71 78 90 92 78 76 42 36 31 34 53 41 37 36 50 43 63 65 52 50 52 57 64 67 69 68 65 63 63 62 59 60 65 64 52 49 34 18 15 12 17 33 36 32
91 93 96 90 91 75 38 36 31 49 51 42 35 38 47 61 56 56 58 58 55 57 61 63 64 64 67 68 66 60 58 64 65 54 51 38 19 15 12 18 34 39 37 32
83 97 96 97 99 93 38 42 46 52 42 38 41 45 60 59 61 61 59 57 52 49 58 62 60 64 66 66 62 60 64 69 60 56 42 20 14 12 20 36 42 38 34 32
84 75 78 79 75 50 42 51 46 46 43 45 50 52 52 58 60 56 56 52 51 51 55 59 58 62 64 64 63 68 72 66 60 43 20 14 12 22 39 43 42 36 35 38
55 53 55 51 54 53 50 50 48 46 48 50 51 51 52 57 56 54 52 51 49 51 54 55 58 63 65 68 72 76 70 61 47 21 14 14 24 39 43 42 37 38 42 51
51 52 53 60 58 55 51 50 49 51 52 52 53 52 52 50 56 56 60 58 55 55 60 63 66 67 68 75 78 76 64 53 22 14 15 23 38 44 44 40 39 42 46 60
53 50 57 57 48 46 52 52 52 53 55 54 51 57 56 48 58 59 64 65 62 64 67 72 72 70 71 79 81 67 56 22 16 16 21 35 44 46 44 41 38 36 42 56

GFSCGP_850_rhum_015.txt.gz
RH
61 85 84 82 78 72 66 74 77 70 53 57 55 56 47 38 35 37 29 26 34 36 39 39 44 56 59 60 62 64 56 65 74 85 85 87 89 89 93 87 49 32 32 36
76 87 67 62 67 75 78 88 84 67 60 60 58 55 44 40 37 36 31 30 37 41 41 46 53 67 70 74 75 74 74 78 80 84 87 87 89 84 62 38 32 35 38 38
84 68 56 61 66 76 78 88 80 74 62 64 66 68 51 40 35 32 29 29 36 34 42 48 54 66 76 78 82 84 83 82 83 84 84 74 66 46 34 33 36 39 38 38
79 58 61 68 71 66 82 60 61 66 72 89 68 83 62 45 40 37 31 33 39 41 42 45 50 58 70 81 83 82 86 87 81 66 60 51 39 33 33 38 40 39 41 43
80 71 71 71 66 60 70 52 57 59 72 80 79 88 64 43 42 38 42 40 40 40 39 45 46 50 56 62 75 77 69 67 60 49 40 36 33 34 39 40 40 42 44 46
71 62 66 61 53 53 63 69 71 75 80 97 88 86 66 50 41 36 37 43 43 44 45 48 48 49 54 57 57 54 49 51 51 49 44 33 34 39 40 42 44 45 46 47
97 93 72 70 79 71 76 84 86 91 96 88 67 98 79 40 36 32 34 44 45 44 48 52 51 54 54 52 50 49 49 50 51 43 34 35 40 41 43 45 46 46 48 49
96 90 88 75 76 73 84 80 91 87 84 73 78 96 60 43 32 30 35 42 44 49 50 51 51 53 53 47 42 40 39 36 36 35 36 40 42 44 46 47 48 49 50 48
99 94 70 67 63 62 76 90 64 96 86 99 89 61 36 33 39 41 44 47 51 53 52 51 54 52 51 46 41 37 36 35 35 36 39 41 43 46 47 48 50 51 50 48
81 96 65 71 69 69 72 63 94 100 99 94 75 51 47 40 44 45 47 49 53 55 53 54 54 53 51 46 43 40 38 36 37 38 41 43 45 47 48 50 52 52 51 46
71 96 91 95 97 83 91 93 79 93 87 90 88 61 41 38 38 46 47 48 52 53 52 55 56 56 54 51 47 44 42 39 38 40 41 44 46 47 50 53 54 54 50 41
88 99 99 88 80 72 60 80 72 93 99 90 58 51 34 37 37 41 45 48 50 50 53 54 58 61 61 56 52 49 47 43 41 41 43 45 46 49 53 56 57 54 45 30
94 99 94 96 94 84 80 78 66 70 98 78 58 50 38 40 39 35 44 48 52 51 52 55 61 65 63 60 58 55 53 50 45 44 44 45 47 52 57 59 58 48 35 21
91 98 99 98 95 83 83 72 80 93 98 66 51 48 44 41 40 41 45 48 49 50 52 57 63 64 63 62 59 58 56 53 50 46 45 46 50 56 60 60 53 41 26 14
91 100 98 94 86 78 76 80 91 98 72 60 44 41 45 45 44 41 46 51 52 53 54 56 60 62 62 62 61 60 59 56 53 48 46 48 55 61 62 57 51 32 16 12
87 99 95 93 73 73 82 84 69 61 57 50 52 48 33 39 38 40 48 50 52 54 56 57 58 61 62 61 62 60 58 55 53 48 47 54 62 63 58 55 38 18 13 13
72 83 93 69 76 71 82 70 67 59 52 48 57 46 35 41 41 42 46 48 51 50 51 53 56 59 60 60 60 59 56 53 51 48 52 61 63 57 53 39 20 13 13 26
70 78 73 79 59 72 43 38 52 57 52 52 45 41 35 46 54 40 37 41 44 46 49 50 55 58 60 60 59 57 54 53 53 52 60 63 58 53 44 24 14 13 27 34
62 72 82 82 84 58 47 37 43 51 51 47 50 44 52 51 43 57 43 37 41 44 48 51 55 59 60 59 58 56 56 55 53 59 63 59 55 48 25 14 13 28 36 33
72 77 81 94 81 75 46 38 35 36 56 45 38 50 51 46 54 70 60 48 49 50 53 56 60 62 61 59 59 59 57 55 59 63 60 55 51 25 13 14 30 39 37 30
90 87 90 89 94 81 51 37 35 48 49 48 43 47 50 56 52 62 61 57 56 57 61 63 65 65 64 63 61 61 60 60 64 62 56 53 24 13 15 33 41 39 33 30
87 96 98 93 97 89 42 37 36 48 44 54 58 54 64 67 65 64 60 62 64 65 68 67 65 64 65 66 66 62 59 65 66 60 54 24 14 18 35 42 42 37 35 35
93 81 88 83 76 56 48 49 48 44 48 59 54 58 51 64 65 61 59 52 48 47 50 56 55 61 63 62 61 60 67 71 63 55 22 14 18 35 43 44 42 37 36 33
68 67 66 68 57 53 51 48 48 45 46 52 51 53 53 59 57 52 50 49 48 49 51 56 58 59 60 60 61 69 75 65 57 24 14 17 31 41 45 46 41 37 34 31
67 68 66 64 61 55 53 48 51 51 50 52 54 51 50 45 48 45 47 48 50 51 54 56 58 62 64 68 73 76 69 58 24 16 17 26 36 43 48 46 40 37 31 50
56 57 65 68 54 48 51 51 53 52 53 52 50 52 49 41 45 48 52 53 54 57 61 64 66 66 68 76 78 73 59 26 18 17 22 30 38 48 50 43 36 25 26 33

GFSCGP_850_rhum_018.txt.gz
RH
64 86 87 80 81 80 83 78 84 73 60 72 68 63 52 48 48 44 36 34 34 33 34 35 34 35 39 43 44 43 42 49 65 79 85 81 81 84 84 90 92 60 33 35
78 88 63 64 69 81 84 92 89 70 58 63 74 74 58 47 46 43 40 38 34 33 40 37 36 40 48 47 53 52 44 50 72 77 85 84 86 84 89 89 42 34 37 37
77 64 59 67 75 84 83 89 83 83 66 59 58 66 62 54 45 42 40 38 35 34 37 40 43 51 56 59 71 66 64 68 77 84 88 87 90 91 82 37 34 38 38 39
74 65 67 70 78 76 91 70 72 73 79 87 64 86 67 54 53 47 39 40 36 39 39 44 54 63 62 67 77 80 80 85 87 88 88 87 85 73 37 34 39 39 40 44
86 83 80 79 70 63 77 60 66 71 81 86 74 86 64 56 58 52 42 41 36 39 37 44 52 63 72 72 81 83 81 81 83 83 75 69 55 35 34 39 39 40 44 47
73 66 65 63 55 60 66 68 68 74 75 96 66 72 63 68 55 48 42 39 39 46 47 49 60 70 80 81 84 88 90 88 78 64 52 39 33 34 38 38 41 44 46 48
98 95 76 69 70 62 65 78 91 98 97 83 58 68 61 60 53 40 38 43 45 49 48 53 60 65 73 81 85 83 79 69 54 45 40 34 34 38 39 42 44 46 48 49
97 98 96 73 71 78 76 74 89 91 99 72 58 82 74 52 41 37 41 36 45 54 52 53 54 58 60 62 66 61 57 49 51 49 38 35 40 41 43 45 46 48 50 50
97 95 72 70 60 60 86 94 61 79 80 89 84 76 64 53 45 43 40 45 58 62 56 54 53 55 57 57 55 54 55 52 54 47 36 39 42 43 45 47 48 51 51 51
83 97 74 75 68 68 75 62 91 95 98 96 87 93 66 50 48 54 54 56 61 68 68 58 57 55 55 54 53 54 51 44 42 40 39 41 43 45 47 48 51 53 53 52
79 85 91 87 96 76 85 94 75 66 75 99 81 78 60 39 42 54 53 55 66 71 67 58 58 56 52 49 47 45 43 39 39 39 41 43 44 46 47 51 54 55 55 50
69 89 96 86 61 64 74 71 72 80 76 70 90 74 36 44 42 53 56 57 65 69 62 59 58 56 53 49 46 43 42 40 39 40 41 43 45 46 49 53 57 58 54 43
75 100 97 95 88 90 98 82 68 65 89 94 97 69 42 47 55 51 53 58 66 67 64 60 61 58 54 50 48 47 45 42 41 41 42 43 45 47 52 57 60 57 50 33
88 100 98 90 100 87 99 80 72 70 73 72 93 78 56 48 47 57 56 60 62 61 60 61 64 61 56 52 52 53 51 47 44 42 42 44 46 50 57 61 60 54 39 21
94 100 100 97 94 97 73 70 73 82 79 88 70 69 46 44 42 52 56 60 64 65 64 60 62 64 62 59 58 58 56 53 49 46 44 44 47 54 61 60 55 43 23 14
95 98 100 99 89 94 88 72 77 76 89 93 86 94 36 47 44 56 58 59 62 64 64 62 60 62 64 63 63 62 59 56 54 52 47 45 52 60 60 55 47 29 16 13
97 100 100 100 89 88 97 78 75 75 79 88 98 76 43 44 43 58 60 56 57 58 59 60 58 60 63 64 64 63 60 58 55 52 47 49 58 60 54 48 34 16 13 29
86 84 80 94 90 80 48 69 71 81 80 79 71 41 42 48 59 47 53 52 52 54 56 57 58 61 63 64 64 62 60 56 53 50 49 57 60 55 51 39 17 13 31 37
64 73 90 93 90 62 45 45 66 73 66 55 53 49 58 55 48 56 46 50 48 49 50 52 54 58 62 64 63 61 57 53 52 51 56 61 56 54 42 16 15 36 39 36
79 74 84 96 92 75 49 39 36 38 58 45 50 57 59 52 58 62 53 47 49 51 51 52 57 60 62 63 61 57 55 54 53 56 61 58 55 45 17 17 38 42 40 35
93 88 92 89 93 83 58 42 38 52 50 47 45 52 52 50 53 60 63 55 52 52 54 57 60 61 62 60 57 57 57 55 58 62 59 57 44 16 17 38 43 43 40 35
85 93 93 91 95 91 49 38 39 46 54 59 60 54 55 64 67 66 62 60 59 58 61 62 62 60 59 59 60 59 58 60 63 62 60 41 16 18 37 43 46 44 38 32
89 80 90 85 82 61 50 47 50 45 52 61 62 61 53 71 71 66 66 64 64 64 65 66 65 65 62 62 63 63 60 66 67 62 40 17 16 34 42 47 48 42 35 25
74 70 80 72 62 56 50 50 48 47 47 52 55 57 54 62 66 67 68 67 65 64 62 62 59 61 62 60 58 61 70 71 64 44 18 16 28 39 45 50 46 38 28 22
78 73 69 72 59 55 54 50 48 50 50 53 59 56 58 58 59 53 53 53 53 54 54 54 54 56 58 58 62 71 73 64 46 19 16 24 34 40 48 50 43 34 24 28
62 75 73 76 56 49 51 50 51 50 54 54 53 58 55 46 44 45 46 45 46 50 53 55 58 60 62 66 73 75 64 45 20 16 22 29 34 42 52 48 38 25 24 27

GFSCGP_850_rhum_021.txt.gz
RH
68 87 92 76 86 85 91 92 88 75 62 72 77 74 64 57 53 51 51 46 41 38 34 32 33 34 34 36 41 54 64 71 73 84 88 82 80 91 92 93 89 88 87 38
81 95 75 66 72 78 85 89 86 75 66 67 69 71 60 54 56 53 48 47 43 41 37 33 36 36 35 37 40 45 52 60 66 76 82 81 76 81 87 90 89 81 35 37
89 67 60 66 74 81 86 91 76 81 69 66 67 59 43 41 46 50 51 45 42 40 38 33 35 38 38 40 41 44 47 50 58 82 82 84 76 78 78 86 81 36 37 38
86 66 64 70 78 78 85 72 74 77 85 89 65 75 54 51 51 52 47 47 45 41 39 36 37 40 40 46 48 54 53 53 75 88 83 83 73 79 82 77 39 36 38 41
88 91 76 79 73 69 73 62 76 81 90 93 79 92 67 50 48 48 56 48 43 41 38 36 36 39 45 52 58 67 64 68 88 89 86 86 84 85 82 43 36 39 40 45
76 70 73 74 61 63 64 72 77 76 86 93 69 82 57 41 48 54 55 48 44 38 39 37 40 50 56 63 75 83 84 90 91 92 91 90 90 83 50 35 39 39 44 47
98 96 80 74 78 64 71 88 97 97 95 83 62 74 59 42 50 46 46 44 39 40 44 40 47 63 64 67 80 84 86 88 89 90 81 78 68 44 34 38 39 44 46 48
98 98 97 81 79 79 83 87 94 90 93 82 47 60 51 46 35 32 38 41 40 45 47 42 47 60 65 71 82 88 90 87 86 71 63 49 36 35 40 40 43 46 48 50
96 94 90 83 68 79 100 98 72 85 84 95 80 70 65 50 55 52 42 40 44 50 54 49 53 64 70 77 82 88 90 88 73 55 45 38 37 41 41 43 45 48 50 52
81 97 79 80 70 80 90 68 96 99 96 94 76 84 62 63 58 40 56 52 53 57 63 60 62 65 74 80 85 85 80 68 52 51 46 38 41 42 43 46 47 50 53 53
77 90 86 94 95 87 91 95 92 74 85 91 90 73 74 59 51 52 55 49 56 63 64 70 70 66 64 72 76 70 65 59 59 58 44 41 43 43 45 47 50 53 55 54
73 92 96 79 69 62 64 69 77 88 84 73 72 61 45 53 47 54 64 64 70 77 83 77 66 62 64 64 64 62 61 58 54 47 43 44 44 44 46 49 53 56 56 51
78 99 96 98 82 83 99 74 64 68 81 72 72 42 44 47 52 56 69 75 79 85 84 73 63 63 63 63 61 58 55 50 46 43 43 43 44 45 47 51 56 57 54 45
68 100 98 89 96 88 97 89 80 78 88 72 66 58 52 59 64 63 67 76 84 86 76 67 63 62 60 58 54 51 47 44 42 42 42 42 43 45 49 55 58 56 50 37
93 100 100 96 95 99 97 78 78 93 74 72 52 70 73 62 66 64 69 77 81 79 76 67 63 61 58 55 52 49 46 44 42 41 41 42 44 47 53 58 57 52 42 28
96 99 100 96 91 96 100 96 80 76 65 59 62 85 56 56 57 62 69 73 77 80 74 66 63 61 58 55 54 52 50 48 46 44 44 44 44 50 57 57 53 46 32 15
99 100 100 100 95 98 100 86 76 69 64 65 92 66 63 60 59 53 66 66 69 70 67 63 60 60 59 57 55 56 55 54 51 48 47 45 47 55 58 54 48 36 15 24
96 99 99 100 99 97 85 81 56 58 66 73 76 80 71 66 64 58 60 61 62 62 62 62 61 62 63 62 61 60 59 56 54 51 48 46 52 58 55 52 37 15 26 38
77 82 96 99 97 69 55 93 88 89 86 82 85 75 65 67 62 59 57 55 54 56 57 56 56 58 63 66 65 64 60 58 54 51 47 51 58 57 53 34 16 27 40 41
83 80 93 92 94 82 50 49 66 68 91 65 64 68 65 67 60 56 53 54 54 55 55 55 57 62 65 67 66 64 60 56 51 49 51 58 58 52 38 17 29 41 42 43
93 92 96 88 87 84 60 49 52 79 55 48 60 67 67 61 67 59 56 57 56 56 56 60 62 62 66 67 66 61 57 52 51 52 59 57 53 42 16 28 41 43 45 43
83 81 88 85 94 89 51 42 46 49 56 59 57 54 58 70 75 68 63 62 62 60 62 63 63 67 68 66 62 56 54 54 54 60 58 55 40 16 26 40 42 47 46 39
91 78 83 78 80 61 52 51 53 51 56 62 63 61 51 68 70 68 68 66 65 64 65 66 64 65 62 58 56 58 56 58 61 60 58 37 16 23 36 39 45 48 43 30
81 76 82 76 63 67 54 50 50 49 50 58 64 61 51 62 67 67 66 65 64 64 63 63 61 59 58 59 60 61 60 63 62 59 39 17 20 33 37 43 49 46 35 24
81 78 77 77 66 57 53 51 50 52 53 58 67 66 63 62 67 65 66 66 65 65 65 64 63 62 62 60 58 61 67 66 62 41 18 19 28 32 38 48 50 42 28 26
75 78 78 77 60 54 51 50 51 50 56 58 58 69 68 61 63 62 61 57 54 55 57 57 57 58 58 56 62 70 68 61 38 18 18 25 29 34 46 52 45 32 24 21

GFSCGP_850_rhum_024.txt.gz
RH
71 87 95 82 82 78 91 90 90 70 59 72 72 71 62 55 59 62 56 54 50 44 43 38 37 35 34 34 32 29 32 40 61 78 86 92 85 83 92 94 97 94 88 87
82 96 73 70 70 76 79 87 83 65 58 74 76 73 58 54 54 54 59 55 54 49 40 40 40 37 33 37 32 31 36 55 71 80 85 86 85 84 92 96 96 90 84 48
90 67 65 72 78 79 77 87 84 80 67 64 70 67 42 34 37 40 43 44 45 50 46 38 38 38 35 37 34 34 41 66 78 86 89 95 89 89 95 95 92 78 46 36
90 70 73 77 81 80 90 72 76 82 89 88 67 80 45 42 36 39 37 43 47 43 39 42 40 39 36 34 38 41 44 53 76 88 92 90 85 74 83 76 69 64 38 38
82 89 92 90 73 73 75 65 78 83 91 94 83 93 67 50 52 48 60 50 47 43 38 37 40 36 38 38 38 46 49 56 58 77 94 91 85 75 69 74 74 42 38 40
73 72 74 74 63 65 65 75 78 81 88 94 70 89 56 44 40 37 32 36 34 32 42 36 39 37 40 46 47 54 57 59 65 85 95 85 77 72 72 72 53 37 39 44
94 88 80 75 83 72 75 100 97 98 97 86 66 80 60 39 38 38 35 38 32 32 41 43 40 39 43 49 52 62 65 63 81 96 85 82 81 81 82 74 39 38 41 46
99 92 86 85 75 80 83 86 94 93 94 82 59 71 59 46 39 36 34 37 40 40 43 45 41 38 42 48 58 69 79 84 95 91 87 90 92 90 69 40 39 41 45 48
99 94 86 75 74 65 98 98 73 94 95 97 82 69 52 52 46 52 45 36 36 41 43 47 46 44 43 52 64 73 88 93 95 95 95 88 76 53 38 40 41 44 47 50
78 96 80 82 80 77 92 78 98 98 96 94 78 72 63 52 47 54 53 56 40 36 42 48 52 51 56 61 68 85 92 92 93 88 75 62 44 39 41 41 43 46 50 52
71 90 87 92 96 86 98 100 100 95 96 86 77 65 57 58 57 64 59 50 46 43 45 46 50 61 68 76 82 91 94 94 88 72 56 44 40 42 42 43 46 49 52 54
70 95 96 81 67 65 68 78 80 88 87 85 85 59 53 64 65 64 63 66 57 53 58 66 68 69 79 82 90 93 93 89 77 57 49 43 42 43 43 45 48 51 54 55
74 98 98 91 85 81 100 87 69 66 80 86 87 51 28 35 51 69 76 82 84 84 87 82 81 84 87 86 86 86 83 74 62 58 50 43 43 43 44 47 50 54 56 57
67 98 95 92 83 96 98 94 98 91 94 72 70 58 43 43 74 76 73 87 91 89 88 87 83 84 86 85 83 78 72 67 63 55 46 44 43 44 45 48 53 56 57 55
84 99 94 95 92 100 100 96 100 98 78 83 57 54 43 64 71 87 79 86 95 96 90 85 80 76 73 71 68 65 62 57 52 46 44 43 43 44 46 51 55 58 55 47
92 97 98 97 86 96 98 97 96 88 77 73 64 63 45 62 74 83 86 84 95 93 88 82 75 71 68 65 63 59 55 50 45 43 42 42 42 45 48 53 57 54 48 36
98 100 100 93 99 95 100 91 90 88 72 69 86 60 46 51 79 77 68 64 79 85 84 77 69 65 64 62 58 53 48 44 42 42 42 42 44 46 51 55 54 48 38 22
95 100 100 99 100 98 91 82 70 75 66 64 61 60 70 76 69 65 62 62 74 80 82 74 66 64 61 57 54 50 48 46 45 44 44 44 45 50 55 54 49 39 22 30
73 88 100 100 98 94 62 90 73 78 75 60 60 55 60 68 63 60 62 66 65 66 70 67 65 62 61 58 55 53 52 50 48 47 47 46 49 54 54 50 40 22 31 40
89 87 98 100 98 93 58 56 69 70 95 73 70 66 68 68 77 63 57 61 64 61 61 65 65 64 63 61 58 57 56 53 51 49 48 48 53 53 50 40 21 31 40 43
98 97 96 96 87 81 62 56 68 87 63 56 71 68 73 79 71 66 60 60 58 60 64 67 66 64 66 65 63 61 58 54 51 48 49 53 52 50 41 21 33 40 42 44
90 88 90 84 93 88 53 55 60 55 54 58 58 66 64 68 67 59 58 63 69 72 70 68 66 70 71 68 65 62 56 52 49 49 53 53 53 41 20 31 38 40 44 45
90 74 81 77 77 59 56 52 50 55 59 63 63 57 65 66 63 66 77 79 80 72 70 71 69 71 70 68 64 60 54 51 51 54 56 56 39 19 28 35 37 44 47 42
80 78 85 75 64 69 63 56 55 54 59 70 66 62 61 59 67 72 78 75 72 72 70 72 71 70 65 59 56 55 54 53 57 59 58 37 18 24 32 34 39 46 46 29
80 79 79 81 72 65 56 55 54 57 65 71 70 65 62 62 72 71 70 70 69 69 70 68 66 61 55 54 55 56 58 60 63 59 37 18 22 29 30 36 46 48 33 24
83 80 79 76 62 58 54 57 57 56 60 68 63 72 70 66 65 65 65 64 63 62 61 60 58 59 58 58 58 61 65 64 59 34 18 21 27 28 32 43 50 37 24 21

GFSCGP_850_rhum_027.txt.gz
RH
72 80 88 82 81 75 87 91 80 70 60 65 63 62 53 48 52 52 51 51 50 44 41 43 42 40 39 38 35 33 32 32 32 36 64 84 91 94 83 94 92 95 98 87
83 91 66 57 70 74 77 83 81 60 54 61 64 68 55 54 52 48 46 47 49 37 39 37 37 42 42 38 36 34 35 36 35 45 59 81 84 96 93 94 99 99 94 85
88 70 67 73 77 75 82 88 71 63 64 61 65 61 37 31 34 40 45 45 45 45 40 31 36 36 38 40 37 35 36 37 42 50 75 91 100 98 100 100 100 94 81 66
91 70 74 83 83 78 88 70 70 76 84 78 65 71 39 34 30 28 33 35 41 38 39 28 29 36 38 37 38 39 38 41 49 68 84 86 82 88 94 95 96 89 74 42
82 84 93 82 72 74 77 65 73 76 88 83 72 88 55 48 47 42 36 33 30 30 36 32 25 32 36 36 38 39 40 46 55 82 93 95 93 87 90 95 86 65 57 40
76 71 74 78 71 66 65 77 78 81 89 95 68 78 55 42 36 34 33 32 26 27 36 43 36 32 37 39 40 42 42 48 60 88 99 97 98 84 88 85 75 64 50 40
81 86 75 70 76 72 72 100 94 97 98 82 61 80 55 40 38 36 34 33 26 24 26 28 37 44 42 41 42 44 47 54 61 83 100 97 96 87 78 68 67 62 43 41
93 88 82 78 73 80 88 89 89 90 87 72 64 78 55 43 35 34 35 35 35 32 30 32 32 44 43 40 41 45 49 60 67 83 98 98 96 86 77 74 65 46 40 43
95 91 82 85 76 67 97 97 71 86 75 94 66 57 45 40 44 45 51 55 54 44 33 33 40 44 44 43 42 43 51 63 66 82 94 95 93 88 75 66 45 40 42 46
78 97 77 81 72 74 88 74 97 98 94 86 78 76 57 46 39 65 65 64 64 59 47 35 44 46 46 49 51 59 64 68 78 86 92 93 91 72 68 48 40 41 45 48
80 87 82 94 96 76 95 99 99 90 89 78 66 55 42 38 64 74 73 71 77 67 57 44 39 48 51 55 67 74 80 87 93 89 88 90 77 62 43 40 41 44 47 50
74 90 98 84 62 64 64 78 80 96 83 90 74 53 55 66 69 75 77 76 76 76 68 64 54 55 61 74 86 90 93 96 93 92 89 76 57 42 41 41 44 47 50 52
76 95 98 85 82 67 95 87 91 95 98 93 86 54 32 46 55 71 79 81 78 87 87 86 81 80 80 87 94 98 97 96 94 81 65 50 43 42 41 43 46 49 52 54
64 90 87 80 82 89 99 98 96 98 97 76 77 58 42 37 39 47 80 85 83 92 95 94 91 92 95 98 98 99 95 90 77 59 49 44 42 42 43 46 48 51 54 55
82 99 94 90 82 92 98 96 97 98 85 91 58 55 43 40 42 73 82 79 75 96 97 93 92 95 97 99 98 95 89 78 64 53 47 43 42 43 45 47 50 53 54 53
81 98 100 96 82 83 99 97 96 95 91 79 68 67 43 58 63 69 70 85 90 92 98 93 89 93 93 92 91 86 78 67 58 51 46 43 43 44 46 49 52 54 52 47
96 100 100 93 78 95 100 95 96 94 84 77 90 64 50 54 56 59 71 89 84 89 95 90 87 91 89 87 84 78 69 62 52 46 43 42 43 44 47 50 53 51 47 38
87 100 100 97 98 98 89 78 80 82 75 70 65 57 58 64 79 76 72 88 79 79 90 87 83 82 78 73 69 64 57 50 46 42 41 42 43 46 49 52 51 48 39 29
82 83 100 100 96 80 66 75 85 82 88 68 68 62 62 66 76 76 71 70 76 78 82 79 77 72 68 64 60 56 49 44 41 41 42 44 46 48 51 52 50 39 28 37
85 80 98 98 99 97 61 63 75 73 84 67 61 60 60 71 83 70 76 72 72 77 77 72 72 70 65 60 54 48 44 42 42 44 45 46 48 51 53 51 40 28 36 39
99 95 96 96 100 81 62 65 72 73 60 60 65 63 75 74 75 76 87 76 74 75 75 74 70 66 61 57 52 48 46 45 45 47 47 48 51 52 52 40 27 35 38 40
88 96 96 94 93 90 54 67 69 54 57 59 63 71 71 70 77 77 80 82 78 77 75 74 71 68 62 58 54 52 49 48 48 48 49 52 54 54 39 25 34 36 39 44
93 75 78 77 73 59 56 53 53 60 65 64 69 66 70 69 70 76 84 83 82 79 81 78 72 68 63 58 56 56 53 50 49 50 54 57 56 36 24 33 35 38 43 45
79 80 86 76 61 71 60 56 60 57 68 72 72 65 73 68 69 72 77 77 73 76 77 77 73 70 64 59 57 58 54 49 52 56 58 56 33 22 30 32 35 43 47 32
80 83 81 81 73 66 57 60 58 58 69 70 70 65 67 63 68 71 73 74 75 77 78 76 72 68 63 56 55 53 52 54 59 61 56 31 21 28 30 32 43 48 34 20
84 80 84 78 61 59 56 56 56 59 69 66 63 65 66 62 66 68 72 74 74 75 73 70 67 63 54 52 54 55 58 61 65 54 27 21 26 28 31 42 50 37 21 18

GFSCGP_850_rhum_030.txt.gz
RH
67 68 69 53 48 45 57 59 60 52 45 48 47 42 37 34 35 35 34 34 34 37 38 42 44 44 45 35 32 36 34 33 34 47 88 92 85 84 97 91 92 93 87 98
69 76 48 48 52 57 60 64 57 47 42 48 45 46 38 34 33 32 31 28 28 28 30 32 40 42 45 45 40 37 35 34 34 48 50 92 90 90 98 96 99 100 95 99
61 56 53 57 57 62 62 70 67 61 46 41 47 44 28 21 22 24 28 29 30 28 27 28 29 37 42 45 45 38 36 34 37 46 72 63 79 96 99 100 99 100 97 94
64 50 58 63 63 58 63 47 56 60 62 68 48 58 32 24 23 22 21 23 26 28 30 30 28 30 35 42 39 40 39 36 40 42 44 51 68 96 100 100 100 100 97 90
66 68 73 72 62 55 64 51 54 56 62 66 59 84 36 31 31 26 21 21 21 23 24 26 31 32 33 39 32 37 40 41 42 39 49 67 96 100 100 99 100 99 93 61
56 60 60 55 52 53 53 62 65 60 69 89 56 70 42 29 25 22 20 19 20 21 27 30 31 38 38 45 36 39 40 42 42 46 60 85 99 98 94 96 98 95 72 47
66 64 60 61 68 62 66 95 74 87 92 64 34 50 47 25 26 24 21 22 24 29 26 27 34 43 50 50 40 43 43 45 45 55 75 95 100 100 88 88 95 88 59 49
78 75 64 68 66 59 74 71 69 64 52 43 40 54 33 23 23 22 27 32 45 44 44 32 31 40 50 44 37 46 47 49 50 64 86 98 100 100 92 92 92 68 58 50
83 81 62 60 56 58 88 96 60 84 64 77 49 32 24 22 24 24 32 46 42 51 52 47 39 44 52 59 46 46 51 56 58 70 91 94 95 100 94 92 82 56 52 44
66 85 58 57 64 64 76 59 89 95 77 65 41 36 35 27 28 41 40 43 52 60 57 56 47 48 57 69 58 61 67 63 69 81 91 96 90 95 94 76 58 55 43 43
60 66 68 75 82 66 83 96 99 70 73 69 57 37 21 22 22 35 42 48 62 69 67 64 54 60 73 81 88 74 76 74 75 81 84 96 94 94 85 74 54 42 42 46
54 71 79 75 44 45 40 52 63 94 80 84 72 59 24 34 42 46 37 45 59 72 78 77 74 77 87 94 94 85 83 80 78 82 91 95 91 96 72 50 41 42 45 48
57 87 86 74 68 55 70 58 55 83 83 92 86 52 24 29 38 34 37 47 56 74 77 82 90 90 92 94 93 89 86 82 84 90 90 94 93 70 47 40 41 44 48 50
57 71 77 65 70 70 98 76 90 98 96 71 73 58 37 31 30 26 26 33 53 75 80 84 90 91 93 92 89 90 91 92 91 87 91 85 65 47 40 40 44 48 50 51
64 100 80 82 68 78 88 84 88 99 92 94 57 49 40 34 34 30 31 50 54 74 81 87 88 87 90 88 87 96 96 94 89 85 77 59 45 40 40 44 47 49 51 52
68 91 91 96 71 71 90 92 95 96 95 95 82 70 42 38 39 39 50 48 54 76 72 93 87 84 83 91 97 97 95 87 76 68 56 45 41 41 44 47 48 50 51 51
74 95 99 95 69 74 90 96 96 89 81 78 95 62 44 45 44 51 55 74 76 79 76 90 84 81 81 92 97 94 86 74 69 50 43 42 42 44 46 48 49 50 50 47
77 95 91 95 82 94 88 73 85 87 82 78 68 58 51 49 64 81 83 95 90 80 81 88 80 80 89 92 89 83 76 65 51 44 45 43 43 45 47 48 50 50 47 39
68 79 94 98 97 70 67 78 92 91 87 64 74 66 68 73 80 78 88 91 86 80 87 82 78 90 87 87 78 67 56 50 49 45 42 42 44 46 48 50 50 48 38 33
78 78 90 80 97 78 62 74 73 64 75 50 59 63 58 55 89 79 90 97 93 88 82 76 84 85 83 78 72 63 53 45 42 42 42 43 46 48 51 51 47 36 33 36
92 95 94 96 98 67 48 51 69 59 54 53 58 62 57 63 74 84 90 93 91 85 77 78 78 73 69 64 58 50 44 41 41 42 44 46 48 51 51 47 34 32 36 36
76 79 87 88 93 82 47 55 61 50 56 58 63 70 83 73 91 84 90 92 88 80 77 75 70 65 60 55 50 43 41 41 43 45 48 49 51 50 46 32 32 34 35 38
79 56 57 59 52 46 52 50 53 64 64 65 73 69 75 74 86 87 86 89 89 86 81 76 70 61 53 48 45 47 47 45 47 48 50 52 51 44 30 30 33 33 37 44
64 62 65 65 48 52 54 58 60 62 74 75 73 74 74 66 69 76 82 84 84 82 78 72 65 58 52 47 46 48 48 49 49 51 53 52 41 28 28 30 31 38 45 35
59 68 67 65 52 49 56 62 67 63 68 70 72 77 73 69 74 79 82 82 82 80 76 71 64 58 53 48 48 51 49 50 52 55 54 43 26 24 28 30 38 46 37 19
64 59 57 48 50 53 53 65 62 68 68 69 69 74 73 72 77 78 79 80 79 77 74 68 63 57 51 51 52 50 51 54 60 61 43 24 24 28 30 37 48 38 20 18

GFSCGP_850_rhum_033.txt.gz
RH
53 56 60 45 43 40 37 45 42 34 32 38 37 35 30 26 26 27 28 29 29 29 30 31 34 36 31 31 36 36 37 41 49 59 72 80 84 84 93 100 98 81 81 78
67 77 44 37 38 42 45 49 46 36 32 37 37 36 28 25 24 25 26 26 27 26 26 26 30 33 36 35 37 38 38 43 50 59 69 80 90 94 100 96 94 91 87 86
61 46 42 44 48 53 48 52 50 51 43 37 38 38 25 19 20 21 24 25 26 25 23 22 23 27 32 36 37 39 39 44 50 61 76 87 99 98 98 96 100 98 96 94
55 40 48 48 52 46 54 37 42 47 54 53 40 51 29 21 19 18 18 19 20 22 23 24 23 22 25 32 36 40 41 47 57 67 82 70 51 57 74 93 100 99 98 97
59 56 56 58 50 43 54 44 49 49 54 61 50 63 35 24 25 22 19 18 18 19 19 21 24 26 25 25 35 42 48 54 69 72 79 66 66 74 74 100 100 100 100 100
46 47 49 50 46 46 48 50 54 53 62 84 50 42 34 23 18 16 16 18 17 17 19 21 23 24 26 28 30 44 52 63 76 78 61 57 80 77 77 99 100 98 98 96
61 54 49 47 56 50 53 74 68 79 88 63 26 40 39 22 21 19 18 18 20 23 29 32 27 23 29 30 32 48 59 71 76 66 68 74 94 76 88 92 99 98 98 91
78 75 53 58 58 56 59 62 65 58 47 39 28 42 27 17 18 19 19 19 21 30 34 40 42 30 28 38 41 48 70 74 74 57 84 91 98 86 99 98 100 98 95 82
69 72 48 52 47 48 65 87 52 70 54 64 40 27 20 17 17 16 18 21 25 35 43 44 47 43 29 35 50 57 73 75 74 82 89 99 94 98 99 99 94 94 89 55
57 78 50 51 50 50 57 51 84 93 81 60 36 32 29 21 18 17 20 32 35 42 44 49 50 46 36 38 47 65 72 76 79 88 96 95 98 99 99 95 90 89 65 53
51 58 65 61 70 58 69 77 77 64 74 63 55 39 19 21 21 19 31 33 40 46 49 52 58 49 43 46 54 68 73 79 83 90 84 88 98 100 99 92 85 88 52 49
49 56 77 64 41 39 41 59 61 91 63 78 78 64 26 23 22 31 30 31 36 43 51 58 69 63 61 62 69 76 78 80 83 79 74 93 92 99 99 86 91 52 50 46
50 72 79 81 55 44 54 50 47 67 85 93 86 57 24 27 25 25 30 28 28 39 54 60 69 73 73 78 82 83 80 79 75 72 78 94 89 95 88 79 61 54 45 46
48 60 73 68 79 67 97 69 64 95 97 72 66 56 39 32 31 33 28 31 26 32 47 69 75 76 75 81 83 81 77 76 74 77 86 89 86 90 85 69 48 45 45 48
57 99 70 70 63 71 79 74 74 98 95 98 68 66 53 46 39 33 35 32 32 40 52 76 76 78 83 83 81 74 70 71 76 85 87 88 89 75 58 47 45 45 48 49
61 86 85 90 56 57 66 55 75 93 95 96 95 94 70 53 41 39 39 36 40 42 47 76 81 79 83 81 73 70 73 77 83 85 86 80 64 56 44 42 45 48 56 50
71 92 88 75 61 60 78 95 96 94 91 95 99 68 49 46 42 44 65 70 64 63 66 78 82 80 79 71 74 73 80 84 82 79 63 60 58 46 54 49 51 49 50 51
72 78 83 86 67 83 57 49 65 86 85 79 82 72 63 60 69 68 83 90 92 85 84 83 79 78 72 73 76 72 73 75 77 73 62 64 50 47 49 49 48 50 51 49
66 68 76 83 70 57 51 50 66 89 94 61 73 78 76 83 80 88 96 98 86 74 78 79 74 73 70 72 72 70 70 69 74 82 89 70 65 59 47 48 50 52 49 43
67 65 79 68 90 73 53 51 53 61 82 51 50 60 62 73 96 96 100 90 84 80 75 73 71 70 71 77 69 75 81 85 80 68 61 52 45 46 48 50 52 49 42 33
98 100 98 95 91 56 37 44 61 66 55 53 56 69 64 77 92 97 96 88 87 81 80 78 81 83 83 85 94 91 87 81 78 53 43 44 46 49 51 51 48 37 33 33
69 78 88 91 98 83 39 43 60 49 51 53 58 72 87 85 83 91 92 87 78 67 62 66 67 61 58 57 52 48 46 43 42 42 44 47 50 51 50 46 34 31 32 32
65 47 57 57 57 37 41 48 50 55 58 57 67 65 86 93 98 84 92 86 80 71 71 65 63 56 49 49 48 44 42 42 43 46 49 50 51 52 45 33 29 30 31 37
50 45 57 57 42 41 43 48 55 66 67 73 77 73 86 73 81 80 81 80 81 74 69 69 64 54 49 46 44 47 47 46 49 50 50 52 52 42 30 27 28 30 39 42
51 57 56 54 46 42 50 57 62 68 70 71 76 76 72 71 74 76 76 77 75 70 62 58 55 52 47 44 47 48 48 49 50 52 54 52 40 27 26 28 31 42 43 26
48 52 58 50 40 48 47 61 62 69 70 72 74 74 73 72 73 74 73 74 72 68 64 59 54 50 46 46 48 49 49 50 55 58 54 38 25 26 29 34 44 44 25 17

GFSCGP_850_rhum_036.txt.gz
RH
75 79 87 71 60 56 54 49 47 41 31 37 42 39 35 29 28 29 29 29 28 30 30 30 29 30 26 26 28 34 36 37 39 60 73 81 82 80 77 80 80 88 87 77
62 76 49 43 45 52 46 50 52 42 34 39 43 44 36 31 28 26 26 26 26 27 28 28 28 30 32 32 29 27 36 38 38 41 56 72 81 74 75 85 92 92 94 80
63 51 45 48 47 51 52 57 54 51 44 42 45 47 36 26 27 26 26 25 24 25 26 27 27 26 29 32 34 33 32 37 40 40 51 71 82 78 81 82 91 92 97 86
60 44 44 48 54 48 61 42 45 47 58 68 47 76 42 30 26 22 20 20 23 24 25 25 26 25 24 27 32 33 36 37 37 42 56 72 80 74 79 84 97 98 100 94
63 52 57 58 50 44 52 47 50 52 62 64 59 77 49 28 30 25 22 19 19 19 19 20 22 22 23 24 27 30 34 39 39 45 58 74 78 72 67 84 99 98 100 99
51 44 47 50 44 45 48 51 53 58 62 89 70 62 51 28 25 25 22 19 19 19 20 20 21 22 24 24 23 28 36 37 41 52 64 79 71 61 70 85 100 100 99 100
62 59 49 47 56 50 52 68 94 97 92 89 34 56 42 27 23 25 23 19 19 20 21 27 32 36 35 26 25 24 28 42 42 60 75 86 76 74 61 64 70 97 99 100
84 77 59 52 58 62 65 65 93 82 85 64 41 53 39 23 21 18 19 18 19 21 25 36 41 44 46 39 26 28 28 49 52 66 83 84 91 76 60 63 74 99 95 98
77 69 47 53 48 54 65 82 55 77 63 87 58 34 26 22 22 21 19 18 19 21 36 43 44 49 48 46 29 31 33 55 64 78 81 91 88 77 76 71 97 99 96 97
62 70 51 54 45 46 57 51 91 95 96 82 55 47 40 28 26 22 24 31 29 39 43 44 49 48 44 47 34 36 42 52 71 83 87 92 91 90 86 85 99 99 100 92
49 60 67 66 71 69 69 74 71 71 81 86 78 55 28 32 29 30 30 33 37 44 46 48 53 52 48 47 39 39 49 66 77 85 92 94 96 99 90 92 98 99 97 85
49 62 89 78 48 51 52 65 64 88 78 79 90 70 32 32 29 30 30 37 38 43 40 49 56 59 54 60 51 49 56 71 81 89 94 96 98 93 95 96 96 88 80 58
53 76 90 86 61 49 60 56 54 64 84 90 93 65 28 32 33 32 30 29 30 33 36 50 60 61 63 72 65 63 68 76 84 89 95 96 90 95 89 88 78 65 66 68
47 64 82 92 87 80 94 76 62 74 98 81 75 65 49 42 43 43 46 35 34 37 35 53 63 67 72 76 81 80 84 86 87 90 86 82 91 91 89 77 70 77 72 52
61 98 78 77 65 70 79 78 73 98 94 98 78 78 67 68 72 62 60 44 36 37 36 55 68 74 75 79 93 86 83 80 79 76 74 88 90 88 81 80 62 55 50 53
61 97 83 90 67 66 77 65 64 70 93 96 92 91 66 63 64 54 61 70 65 51 43 62 72 76 80 91 84 79 77 75 73 72 79 76 79 80 70 59 59 74 64 56
78 96 94 87 66 68 81 68 82 93 85 92 98 92 77 75 72 85 90 87 82 77 74 77 72 76 89 76 72 73 71 69 69 68 62 67 73 69 70 73 68 56 51 59
93 89 86 95 79 95 67 65 66 74 72 74 79 71 70 77 83 94 100 99 88 85 80 78 81 80 82 76 74 72 65 59 58 56 60 64 62 65 78 65 63 80 63 50
84 90 93 95 80 67 50 52 61 76 78 71 63 61 74 82 89 97 96 91 85 85 82 83 81 81 76 72 66 65 58 57 57 54 54 61 82 89 87 86 60 49 52 52
84 83 85 90 95 83 54 52 51 68 89 58 64 76 77 85 94 97 100 82 75 81 83 79 76 70 66 68 69 71 65 69 82 94 95 96 100 93 61 47 49 50 50 70
98 94 97 96 96 72 44 51 60 88 74 58 58 83 82 92 99 96 90 92 74 68 66 65 66 67 75 75 77 78 83 94 97 96 94 84 58 46 48 50 51 71 54 31
85 92 92 97 99 92 43 48 62 61 56 57 57 72 91 86 95 95 78 80 94 85 82 79 82 85 86 88 92 97 97 99 98 91 74 55 47 49 50 56 53 35 29 29
73 60 70 71 74 46 42 48 50 56 61 63 66 65 91 96 89 86 81 72 59 65 92 98 99 100 100 100 100 97 89 67 50 45 46 48 48 47 51 42 31 28 29 32
56 48 69 60 50 50 48 48 56 61 64 67 72 72 88 88 85 84 84 77 66 56 51 48 50 51 52 53 50 45 44 44 45 47 47 48 53 51 37 27 27 27 33 42
64 60 64 66 58 48 52 56 60 63 65 68 74 76 75 75 76 76 77 76 65 56 49 50 50 48 47 45 43 44 45 47 49 51 53 53 47 32 25 26 28 36 42 29
57 68 73 74 49 51 56 57 59 62 64 70 73 73 72 71 71 75 75 69 61 56 54 53 48 46 47 47 45 46 47 50 54 57 55 44 28 24 25 28 40 43 26 19

GFSCGP_850_rhum_039.txt.gz
RH
83 88 95 85 80 67 63 67 60 48 39 41 48 51 45 37 35 35 33 32 29 29 31 31 29 28 26 25 25 25 31 43 55 62 65 72 83 82 79 76 81 81 83 83
75 83 64 59 60 63 70 69 60 50 40 44 49 48 40 38 36 32 32 32 30 28 28 29 29 30 30 30 27 24 27 35 44 61 62 58 60 73 75 74 78 78 82 84
78 56 49 55 56 60 55 61 60 59 51 48 53 56 48 40 35 34 32 29 28 27 26 26 27 28 29 29 30 31 30 30 42 46 57 56 62 71 76 75 77 81 80 83
63 48 50 57 60 53 64 50 54 56 64 76 55 87 65 39 31 27 29 29 28 26 25 25 24 25 26 27 27 28 30 33 33 40 45 49 58 65 75 64 72 80 85 84
75 58 58 57 55 48 60 52 57 60 69 71 69 80 67 49 34 30 26 22 20 20 21 21 21 22 23 23 25 25 28 28 31 38 40 39 46 61 64 65 69 74 72 72
57 46 50 57 46 50 50 53 56 63 72 97 76 74 62 38 28 25 26 20 19 22 22 23 24 26 26 24 24 24 24 32 30 32 42 42 42 47 63 68 64 63 68 79
63 61 50 49 61 51 61 70 95 89 91 89 60 80 63 34 28 27 27 20 21 20 20 22 26 29 32 34 37 33 24 24 31 34 36 47 47 51 53 55 57 58 71 89
88 87 67 56 62 69 72 69 91 91 98 83 54 66 48 32 26 22 19 18 18 20 21 25 31 37 37 31 32 37 39 25 24 38 40 44 51 61 62 61 61 73 75 87
89 78 53 52 51 57 71 86 62 82 75 94 71 49 34 27 28 27 26 24 21 22 39 39 40 36 21 19 21 41 40 31 26 28 50 48 57 70 65 66 78 97 100 100
62 79 63 58 50 54 60 59 85 94 96 93 74 63 47 34 32 32 34 31 34 42 44 44 44 40 33 27 25 42 41 32 29 36 57 64 65 68 69 77 86 80 90 100
51 62 76 62 69 74 72 66 64 78 91 93 96 73 39 36 33 34 37 32 37 44 43 43 40 39 34 27 29 45 38 37 37 51 64 68 74 67 71 88 80 79 100 100
51 70 94 80 60 57 63 68 72 93 76 93 94 72 36 34 37 35 35 35 36 35 40 41 46 44 34 35 35 59 47 47 47 59 72 78 86 85 86 90 87 98 100 98
57 78 93 83 69 59 73 67 64 70 84 91 88 67 36 36 37 38 41 55 58 50 32 44 48 43 43 42 41 68 60 56 59 65 76 89 87 90 94 95 92 99 99 96
47 75 79 86 83 82 89 77 68 77 98 81 76 62 51 47 50 55 63 75 70 58 46 44 53 50 52 58 60 79 68 64 65 79 76 85 84 92 94 94 92 91 95 84
67 88 81 78 75 80 77 78 78 87 80 97 68 71 63 63 72 75 77 79 66 62 46 49 57 60 65 66 82 88 83 80 86 90 92 88 96 93 88 84 82 75 61 58
68 96 91 92 74 77 86 72 72 74 73 77 80 94 66 64 69 78 87 88 84 75 77 74 70 72 69 76 92 90 93 95 96 96 94 94 88 76 73 65 60 66 70 70
80 94 98 96 71 75 87 70 66 78 85 84 97 80 64 70 78 89 98 100 97 85 88 75 79 77 68 72 90 86 83 80 85 87 81 79 76 73 73 65 68 80 73 86
85 93 93 95 83 94 64 58 62 75 77 77 78 72 71 82 90 98 100 91 85 82 81 82 83 80 80 79 84 83 79 82 79 73 69 68 70 68 65 75 83 90 83 81
79 84 97 96 95 70 54 57 64 82 77 67 78 67 82 80 87 96 96 71 80 93 90 89 82 80 78 78 80 78 72 69 64 61 61 65 66 84 97 93 89 95 97 90
85 83 98 97 98 88 57 52 53 73 93 60 61 74 89 83 96 97 97 69 74 79 80 80 76 74 76 77 75 72 63 62 71 88 85 86 90 97 99 99 90 68 47 43
100 100 98 91 97 82 55 47 62 83 69 61 59 69 87 92 96 87 94 77 70 74 79 78 78 75 73 71 79 67 69 92 93 91 98 100 99 100 77 54 48 47 52 41
90 96 99 97 99 93 45 56 69 60 58 62 61 70 88 92 94 77 91 96 89 82 78 73 74 77 88 87 96 86 97 100 100 99 97 93 83 82 58 50 82 73 34 31
88 74 80 80 76 50 46 51 54 57 61 65 67 71 89 86 86 72 75 91 96 99 99 96 94 96 94 99 100 99 100 100 99 94 82 57 50 46 62 59 36 30 29 32
58 52 66 69 57 58 49 55 56 57 57 60 67 77 93 90 83 78 64 65 91 96 96 94 95 97 98 99 100 100 100 96 62 48 48 58 70 54 40 31 28 28 30 39
73 69 71 76 66 57 57 55 57 59 58 63 72 77 85 86 82 83 71 57 55 62 76 87 88 92 94 96 84 56 46 45 46 49 52 52 48 36 27 25 26 36 40 26
67 73 81 81 57 55 56 55 58 59 58 66 73 75 75 76 75 78 73 57 54 53 53 52 51 50 48 45 44 45 46 48 50 53 55 48 32 25 26 32 43 36 22 21

GFSCGP_850_rhum_042.txt.gz
RH
93 90 95 87 73 63 62 66 70 60 41 44 48 52 47 38 38 38 37 37 32 31 31 31 32 30 28 27 26 26 25 28 53 68 66 67 67 73 78 78 79 82 85 86
96 93 76 75 78 72 70 70 66 54 43 44 52 52 41 37 36 34 33 32 32 30 27 28 28 30 31 30 29 27 26 25 27 48 59 60 58 60 64 70 78 77 80 85
79 63 56 61 65 72 62 65 62 62 55 48 56 43 41 39 36 32 31 32 32 30 26 22 22 26 27 28 29 31 30 28 26 36 48 58 64 61 65 68 75 76 76 76
67 48 56 62 62 55 64 53 54 59 64 79 58 78 65 46 44 36 27 26 27 26 24 23 23 24 24 26 27 28 30 30 33 33 57 53 59 63 62 56 63 74 75 77
72 63 58 61 59 50 62 53 56 59 70 72 71 82 63 48 37 29 25 22 20 20 20 21 21 23 24 25 25 25 26 28 28 35 35 54 58 55 55 54 58 62 69 70
58 50 53 55 52 50 52 57 67 72 77 92 71 75 63 42 30 26 24 22 20 17 18 20 22 25 24 23 22 24 24 26 26 26 33 35 41 63 57 56 57 60 65 65
65 62 52 51 64 54 58 70 90 89 97 81 63 83 71 47 37 29 29 24 21 21 22 24 26 27 25 26 27 26 26 25 25 24 26 33 39 38 56 54 53 56 59 65
88 89 62 54 62 71 66 67 87 74 97 88 62 78 49 37 32 26 26 25 23 22 24 30 31 29 30 29 26 25 23 23 24 24 24 28 33 40 46 55 50 53 52 54
88 77 57 56 55 58 72 84 63 83 79 95 75 60 36 31 32 32 33 30 32 29 24 35 43 41 35 25 20 19 19 19 25 28 26 26 28 38 39 47 51 55 56 58
68 91 63 58 53 54 59 61 85 92 91 88 75 70 47 34 33 36 40 38 35 36 41 44 45 41 39 36 32 27 22 21 23 38 34 27 29 43 44 50 56 58 60 66
53 74 80 65 68 76 75 76 74 80 87 92 94 72 47 36 36 42 43 39 39 44 47 46 44 47 43 34 28 26 22 23 36 35 30 31 32 48 64 60 57 67 67 88
53 78 93 77 60 57 63 70 72 93 70 96 92 79 42 43 38 39 39 45 55 58 63 66 59 49 44 38 33 32 32 28 38 43 34 39 48 69 79 70 67 74 96 100
57 80 93 83 70 68 76 70 69 74 88 95 91 72 39 44 36 38 51 64 70 74 75 67 62 52 49 38 36 34 33 38 60 53 55 62 72 81 81 86 93 94 93 94
52 76 75 87 75 80 85 77 75 76 98 87 84 63 50 45 44 51 67 77 80 81 79 62 61 59 64 49 44 39 38 56 68 72 65 68 76 91 99 97 95 94 95 98
64 85 85 81 76 83 79 76 80 88 75 93 64 71 61 56 54 68 82 85 87 86 82 78 61 74 66 58 52 54 73 84 89 99 91 87 94 99 98 93 92 95 96 92
70 84 92 90 73 80 88 78 76 72 69 70 72 78 54 57 63 83 95 97 94 97 89 83 83 78 73 69 64 83 91 89 95 100 98 96 96 98 93 93 92 87 86 82
79 95 96 98 70 78 93 80 73 72 73 67 87 74 63 66 78 96 99 94 82 80 88 87 85 80 77 81 86 86 91 98 98 98 97 99 94 92 93 88 78 74 77 65
89 90 95 97 81 96 68 52 56 63 66 76 78 74 68 73 89 99 91 76 74 83 87 89 85 83 82 81 86 90 93 92 96 97 98 96 85 84 74 71 79 86 91 95
72 82 97 99 97 71 58 60 64 78 72 66 79 74 66 81 88 98 89 71 76 74 92 95 83 81 79 81 87 86 88 95 96 90 77 72 68 68 80 87 98 100 100 98
82 82 96 97 98 83 55 49 60 68 93 65 64 69 75 84 93 94 89 76 77 73 73 73 74 74 76 82 83 81 73 70 69 68 71 88 95 95 100 99 100 100 100 99
100 99 94 90 97 81 57 50 66 80 69 60 62 63 84 84 91 84 89 84 72 76 76 79 75 76 80 82 71 70 70 79 94 96 100 100 100 100 100 100 98 88 56 48
91 87 92 90 98 94 46 66 70 62 58 62 64 67 82 83 86 78 92 97 91 86 78 79 80 81 87 86 76 80 99 100 100 100 100 100 100 99 94 54 47 59 46 38
83 80 82 82 76 52 44 52 51 54 60 64 66 69 84 83 80 76 89 96 96 93 90 88 92 93 98 99 99 100 100 99 98 99 100 100 92 60 49 81 64 38 34 33
66 57 73 71 59 56 49 51 53 54 58 60 64 72 86 84 78 72 79 92 96 93 93 95 96 99 98 99 100 98 99 99 100 93 64 51 53 56 49 36 33 33 35 39
79 70 69 74 70 56 57 55 53 55 59 59 70 74 88 92 80 75 69 84 92 94 93 91 89 92 98 99 100 99 99 80 56 55 61 57 48 40 34 31 30 34 39 31
75 77 77 70 57 62 58 53 55 59 62 61 70 78 89 86 81 78 70 65 74 88 92 93 93 94 98 97 72 54 49 49 52 51 48 44 36 30 28 28 36 39 25 21

GFSCGP_850_rhum_045.txt.gz
RH
94 97 94 83 73 62 67 71 72 64 47 46 52 53 47 39 39 40 36 36 37 36 32 32 31 31 32 31 27 24 28 28 28 32 64 71 68 68 71 74 73 70 72 77
99 94 81 81 78 80 71 75 72 58 47 47 56 56 44 40 37 35 34 32 31 31 30 28 29 30 30 32 32 31 26 27 28 28 32 55 66 68 64 66 67 69 74 77
80 75 73 80 84 91 77 76 67 64 56 51 61 53 44 36 35 32 31 30 30 30 27 23 22 22 22 26 29 30 31 30 29 28 30 47 64 69 67 64 66 72 74 74
63 50 71 68 78 70 69 52 56 61 64 79 59 80 63 45 45 41 31 26 23 22 23 23 22 23 24 24 22 27 28 28 30 33 33 30 33 51 63 62 63 61 70 65
73 61 69 72 62 51 62 54 58 61 72 68 69 83 63 43 34 27 26 24 23 21 20 18 19 20 22 22 24 25 26 26 28 28 32 36 46 48 54 56 61 62 60 63
61 52 51 54 57 51 54 58 68 79 75 88 67 72 57 40 31 35 29 26 23 22 20 20 20 20 20 20 21 22 23 24 26 26 27 29 36 50 59 66 62 63 60 58
68 65 53 53 66 58 59 70 86 80 93 80 73 79 59 44 40 37 39 30 33 28 23 26 26 30 28 25 23 23 22 23 23 23 25 26 27 38 45 45 54 62 59 57
93 93 62 54 62 71 66 66 82 64 89 84 70 84 50 40 34 32 36 37 34 35 37 35 38 41 40 35 32 29 27 26 26 26 26 27 27 27 30 38 40 47 59 61
84 76 59 56 56 58 74 85 63 84 80 95 72 57 36 35 40 37 36 32 35 40 43 45 45 43 43 42 31 30 27 21 20 20 21 22 25 30 27 25 36 41 50 56
65 91 64 60 54 59 61 65 85 93 66 82 65 70 46 34 34 41 42 39 41 50 59 63 61 57 54 43 45 38 31 28 25 23 22 21 22 30 32 28 30 43 45 55
61 74 83 66 69 80 74 83 84 82 83 86 89 59 50 38 37 44 46 41 51 62 67 72 73 73 67 56 50 42 31 29 27 26 21 24 34 38 33 32 38 49 63 68
56 80 93 74 62 59 64 71 76 86 74 94 87 81 45 47 41 43 40 48 61 72 77 72 72 68 64 62 51 47 38 35 32 30 29 36 40 39 46 42 61 81 79 97
57 80 92 83 67 68 73 71 70 76 85 97 90 70 43 46 42 42 48 58 77 81 77 76 78 63 64 62 59 54 46 38 35 33 48 64 56 52 64 72 96 100 100 100
52 74 73 84 74 81 89 80 76 78 99 89 86 75 48 47 48 48 53 87 89 87 89 91 84 70 66 69 59 58 53 49 50 55 77 90 93 86 94 100 100 100 100 100
63 85 84 79 73 84 78 74 85 84 76 89 65 70 56 49 48 51 82 90 89 90 88 82 90 88 70 66 71 64 66 78 84 94 99 98 100 100 99 100 100 100 100 98
69 91 91 87 71 81 89 80 79 82 77 77 72 73 49 46 52 73 92 93 86 79 80 88 93 89 86 78 73 74 82 87 84 89 100 100 99 100 100 100 99 97 97 93
74 92 92 97 71 80 89 80 79 72 72 61 76 61 56 65 66 85 96 88 75 75 75 90 88 90 81 80 79 81 85 93 98 98 97 96 94 95 94 92 86 80 82 83
84 89 93 98 78 94 61 59 60 63 61 65 66 63 59 70 74 93 95 83 71 77 81 97 98 87 82 82 81 86 93 98 98 96 95 98 99 98 99 98 94 91 90 90
68 83 94 98 98 72 58 52 69 72 70 63 70 69 70 63 85 96 92 82 74 76 79 86 86 82 81 82 89 91 98 100 99 100 100 98 99 94 86 84 86 89 91 98
80 81 93 96 97 89 59 56 61 66 83 60 72 70 68 79 92 87 86 84 74 77 78 81 82 80 79 84 86 86 84 81 80 80 86 81 82 90 94 100 100 100 100 100
100 100 97 81 91 80 55 49 67 79 73 60 63 65 67 89 81 84 84 90 83 77 78 83 81 83 85 87 75 70 71 73 73 74 80 91 100 100 100 100 99 100 99 99
94 96 91 92 98 91 49 70 70 61 58 60 59 63 69 76 82 78 90 91 89 86 83 83 83 81 89 93 72 90 98 97 98 99 100 100 100 100 100 99 97 96 67 45
96 81 84 83 77 52 48 48 48 56 57 57 60 60 65 80 82 77 91 91 89 88 93 98 96 96 82 90 100 99 99 100 100 100 100 100 99 89 87 83 61 41 37 35
74 64 75 79 63 62 55 55 56 54 55 60 59 63 69 81 81 74 88 93 88 90 94 99 100 98 98 100 100 100 99 100 100 97 82 59 59 66 60 43 36 35 35 39
81 74 73 73 68 58 55 54 56 55 59 62 61 66 70 82 86 75 79 94 91 87 90 93 97 99 98 99 100 99 99 90 63 56 58 59 55 43 35 32 33 37 39 33
74 73 84 86 63 64 63 62 62 60 62 63 62 64 72 89 91 80 70 86 92 91 89 89 95 99 100 100 96 86 64 58 62 60 54 48 39 32 31 32 37 39 28 22

GFSCGP_850_rhum_048.txt.gz
RH
86 95 94 77 77 66 72 72 71 65 52 49 59 58 51 41 41 40 36 33 33 34 32 32 31 31 31 32 30 27 27 28 31 32 33 49 73 65 68 67 66 72 77 77
97 94 85 74 69 68 72 80 77 61 50 50 58 60 48 41 40 38 36 33 32 32 31 29 28 28 29 30 31 31 31 29 29 30 31 31 33 38 53 64 65 64 70 72
87 86 79 81 84 83 85 81 75 69 56 54 64 57 45 37 36 32 30 31 31 30 25 22 25 25 24 22 24 29 31 32 32 32 31 31 34 35 45 55 63 62 64 69
66 77 84 90 89 84 97 60 59 60 65 80 60 82 61 47 42 37 31 28 26 24 23 22 20 20 21 22 23 21 21 28 29 30 33 34 32 34 32 36 44 58 62 60
87 83 92 95 82 68 64 56 61 64 72 67 68 79 56 42 34 33 33 40 36 28 26 29 26 22 23 23 22 23 24 23 26 29 30 31 34 37 40 40 45 54 62 63
65 53 54 58 62 52 57 60 68 75 75 87 66 68 47 36 38 40 39 40 35 35 34 31 33 38 37 33 28 25 24 26 27 27 28 29 28 30 34 45 54 51 61 63
71 65 54 54 65 56 58 72 89 73 87 75 71 76 55 46 43 40 39 39 39 41 39 38 37 39 42 42 41 38 36 32 28 26 26 27 27 28 31 33 38 47 54 57
93 92 62 55 60 70 67 67 83 59 79 70 73 87 44 43 35 39 37 37 43 47 54 54 51 46 39 39 39 42 33 31 28 28 29 30 31 31 29 30 35 38 45 47
85 81 60 56 57 57 72 84 62 87 81 92 68 56 30 41 39 39 41 42 41 51 59 66 67 64 55 49 44 44 42 38 28 24 21 21 22 24 27 28 28 32 37 39
65 93 66 62 56 62 62 66 82 90 71 68 55 63 39 35 38 47 47 44 43 54 65 73 75 71 68 60 54 53 48 46 36 30 28 25 22 22 22 29 33 34 29 37
63 73 84 65 69 78 73 86 83 80 82 73 68 41 48 41 41 49 48 44 50 62 78 80 77 74 68 61 60 63 59 55 43 38 34 31 28 25 22 32 35 42 40 39
60 78 94 78 63 61 64 73 75 82 81 90 90 73 44 46 42 47 46 49 59 81 83 83 82 79 68 68 63 62 67 61 51 44 39 36 34 32 42 43 40 45 61 65
59 79 94 85 67 67 74 72 71 76 83 98 93 60 45 50 46 42 47 52 82 83 81 80 77 79 88 86 79 71 61 60 57 46 42 49 40 58 70 71 63 66 79 98
54 72 72 84 73 82 90 82 76 78 95 86 89 74 50 47 50 46 50 77 85 84 80 79 82 92 86 83 77 69 59 57 63 75 87 70 78 94 98 99 100 99 100 99
63 85 80 76 70 85 78 75 86 83 77 86 69 77 57 53 51 48 52 85 87 81 75 82 87 89 88 83 77 71 70 70 76 79 84 95 99 99 98 100 100 99 100 100
67 98 91 88 70 84 91 82 83 84 77 81 72 74 50 47 49 61 82 91 84 72 78 85 88 90 88 78 80 80 77 84 92 95 96 94 99 100 100 100 100 100 100 100
72 92 90 89 74 81 90 83 80 82 76 69 85 60 51 62 63 73 88 90 79 75 78 94 96 92 83 82 83 84 90 95 98 98 97 98 100 100 100 100 98 100 100 100
81 86 91 99 78 92 51 62 64 63 59 64 60 56 53 59 65 87 94 84 75 77 79 84 86 83 83 83 84 90 94 99 98 98 99 96 94 98 97 93 88 86 81 80
64 84 91 94 100 74 57 69 70 70 63 61 62 61 61 65 76 94 89 83 76 76 80 79 79 78 80 84 86 89 97 99 99 100 100 100 100 99 100 98 100 99 100 100
81 80 85 95 85 93 56 59 62 61 84 57 71 76 73 74 90 87 84 85 82 77 79 80 82 84 85 88 88 82 80 80 84 96 97 99 98 100 99 100 98 99 99 99
95 99 96 80 81 82 56 50 66 89 76 60 63 65 69 82 83 83 85 85 85 82 80 86 87 84 86 88 73 76 78 78 80 90 92 93 96 98 99 99 99 99 99 99
79 88 92 88 94 93 50 70 76 64 57 58 58 60 63 72 83 80 86 83 83 86 84 86 85 85 94 81 80 96 91 94 99 100 99 100 100 99 99 100 99 94 55 39
95 86 88 78 78 53 50 51 54 58 56 56 59 60 63 71 81 80 85 83 84 90 87 91 91 83 93 98 100 98 97 99 100 100 99 99 99 99 80 52 40 36 35 34
78 67 80 80 66 70 57 57 59 57 56 57 60 61 64 70 84 81 82 84 83 88 90 91 95 99 99 100 100 99 99 100 100 98 85 70 69 58 45 38 36 34 37 40
77 71 75 76 67 63 56 58 63 68 63 61 62 60 63 74 83 83 78 87 83 88 87 93 95 98 99 99 100 99 99 97 72 62 62 59 46 38 33 32 34 38 37 28
78 79 89 89 76 86 78 69 71 71 66 66 64 62 63 72 85 88 78 84 88 85 87 90 94 98 99 100 95 77 69 59 62 59 53 45 37 31 30 33 39 33 24 22

GFSCGP_850_rhum_051.txt.gz
RH
89 90 88 80 73 62 65 71 71 65 53 52 60 60 50 43 42 42 38 35 32 31 33 33 33 32 32 33 33 31 30 29 32 37 42 38 38 46 62 61 60 62 66 72
97 87 70 67 65 66 69 76 76 62 52 51 57 56 46 41 43 40 40 38 36 34 30 26 23 21 23 25 29 32 32 32 31 31 31 32 34 36 39 51 56 59 60 62
97 90 66 69 77 75 80 78 76 68 56 55 60 55 45 38 35 33 34 32 29 30 27 25 21 21 24 26 25 26 29 31 32 33 32 33 34 38 37 39 42 46 55 58
94 90 84 81 78 72 92 72 62 59 65 71 60 66 53 45 32 36 44 41 37 34 35 37 34 28 25 25 25 25 24 24 30 33 34 34 34 40 36 31 30 30 36 52
89 97 93 91 89 72 83 58 61 62 69 66 65 65 43 36 37 38 42 44 44 43 44 42 41 43 44 40 35 29 26 26 26 26 33 33 32 32 33 35 36 38 38 46
65 58 66 88 85 80 58 60 66 70 70 81 64 65 38 38 39 40 40 43 46 50 52 48 44 37 37 40 39 38 36 33 28 29 31 35 34 36 38 39 40 41 42 44
95 75 57 69 87 64 57 73 86 67 82 77 72 74 49 41 40 40 40 42 46 52 57 60 56 48 41 36 36 38 39 35 33 35 32 32 32 33 37 38 41 48 42 42
94 95 65 56 64 74 67 68 84 56 65 58 72 73 41 44 37 38 42 48 48 55 64 70 71 70 62 51 45 41 37 38 37 34 30 34 38 38 35 31 29 30 34 41
81 92 61 62 59 58 68 80 60 83 79 81 59 53 32 42 42 40 44 48 52 55 69 70 70 73 70 62 54 51 45 42 38 39 36 31 29 28 28 30 32 32 29 29
66 94 70 63 56 60 62 64 79 85 73 58 46 50 32 42 41 45 46 47 50 57 76 70 70 72 68 63 56 53 55 56 50 44 43 35 34 32 29 27 23 24 28 30
64 72 84 65 71 76 72 79 80 72 73 57 45 31 40 39 44 49 45 46 51 75 80 73 75 76 76 77 69 64 64 65 63 58 49 42 37 35 33 30 26 26 30 33
62 78 94 81 65 62 63 73 69 80 81 90 84 50 42 43 44 46 43 48 54 78 79 73 74 77 82 82 78 74 70 64 59 55 50 48 43 39 35 33 32 38 40 47
59 79 95 87 71 68 75 73 68 72 82 97 79 42 44 50 46 42 47 49 68 82 77 75 78 83 85 83 78 74 67 63 60 57 54 53 51 46 50 60 74 72 79 84
53 71 71 80 72 81 90 82 73 76 90 80 82 61 47 45 48 48 48 54 82 81 74 78 84 84 85 77 81 77 70 68 65 58 65 66 68 71 80 96 100 99 99 99
62 84 79 73 68 82 79 81 81 82 76 81 58 72 51 49 52 47 52 80 85 77 75 82 88 88 88 83 78 73 76 77 75 76 78 88 89 95 100 99 100 99 99 100
67 97 88 85 72 83 89 79 82 77 75 75 71 72 48 47 48 59 79 87 81 73 76 86 93 92 89 83 81 80 84 88 88 93 96 98 99 100 100 100 100 100 100 100
71 90 87 84 75 79 91 82 79 82 78 67 83 62 52 54 59 63 85 87 77 74 77 83 87 87 83 83 86 87 87 91 92 92 94 93 97 100 100 100 100 100 98 99
77 84 88 96 76 90 49 62 65 66 64 69 66 59 51 54 59 82 89 82 76 77 80 80 81 81 81 84 88 90 91 95 95 96 98 99 98 98 99 100 100 100 100 100
61 83 93 92 94 70 62 73 71 71 65 57 59 56 58 68 77 88 85 82 80 78 79 81 83 82 82 86 88 86 83 83 90 98 98 98 99 100 100 99 99 98 97 99
78 74 81 92 81 86 54 61 59 60 87 62 63 70 75 73 81 84 84 83 80 80 80 82 84 84 85 88 77 80 79 81 86 93 96 98 99 99 99 99 99 99 99 99
99 98 94 82 84 77 59 51 65 94 79 59 63 65 67 77 75 81 80 79 82 84 83 84 85 81 87 77 80 83 83 91 94 98 98 98 100 99 99 99 99 100 100 99
77 83 89 89 89 88 50 72 80 67 58 59 61 63 64 66 74 79 81 79 83 86 85 87 86 87 84 88 97 89 93 99 100 100 99 99 99 99 100 99 100 78 52 36
90 80 88 78 70 52 54 52 57 62 62 59 62 64 63 65 72 79 82 83 83 87 82 83 86 92 92 92 93 91 96 99 100 100 100 99 99 90 55 38 33 31 34 37
80 71 82 82 68 69 58 57 61 66 72 67 64 64 63 66 73 80 82 87 83 89 84 85 97 100 98 98 99 98 98 99 99 98 85 68 47 37 33 32 33 36 39 36
76 74 76 80 72 68 65 70 76 72 70 69 66 67 65 68 74 82 82 88 85 85 89 85 85 99 98 98 99 99 99 89 67 65 57 44 35 31 29 30 35 38 29 23
83 80 85 82 72 84 78 72 76 77 74 72 70 68 68 68 78 83 83 84 86 84 87 92 95 98 99 99 84 73 71 63 63 57 47 37 30 28 31 39 33 24 22 21

GFSCGP_850_rhum_054.txt.gz
RH
80 96 81 60 45 40 39 46 40 43 44 44 42 44 39 36 35 33 31 29 29 30 32 35 32 32 33 33 33 32 28 26 34 78 46 59 67 54 58 56 52 65 64 66
88 95 52 47 50 50 46 43 43 54 46 45 45 45 36 33 34 35 34 32 31 33 31 32 26 26 26 26 28 31 33 34 32 49 64 35 53 59 58 50 47 53 55 55
95 78 54 53 56 55 53 48 53 48 48 44 45 40 37 33 30 34 32 31 30 31 36 45 44 29 23 24 26 26 28 30 33 34 54 82 84 78 48 38 37 39 46 49
95 76 59 58 56 47 64 56 54 54 54 49 46 33 38 28 34 32 36 38 40 43 46 50 51 52 42 38 32 28 27 27 28 32 34 65 86 88 60 34 31 33 38 41
96 89 85 65 56 49 66 55 52 51 53 55 50 47 34 28 36 35 36 42 47 53 56 56 55 42 42 41 40 38 34 29 28 27 29 39 84 87 87 87 64 57 43 36
93 94 86 90 92 61 50 51 52 53 56 71 53 48 28 28 32 36 36 41 47 53 59 62 60 50 46 40 38 38 38 36 34 32 30 30 33 75 91 92 92 82 73 48
96 83 86 87 96 76 52 61 85 79 86 60 54 54 29 30 32 37 41 44 49 56 62 67 66 62 52 47 43 39 37 37 38 34 35 39 36 43 86 94 97 99 93 63
99 97 82 83 76 75 73 62 68 59 53 43 56 42 30 29 31 34 41 48 51 56 67 71 72 67 63 56 49 45 43 41 39 38 37 32 31 38 38 37 67 90 94 91
96 96 56 53 50 52 62 74 49 62 61 59 36 37 33 31 33 35 41 47 51 57 73 73 74 75 72 59 55 50 48 47 48 45 43 40 38 32 31 31 32 32 32 36
59 92 62 57 52 51 53 47 69 78 65 49 34 32 25 38 37 33 39 46 49 61 73 72 75 80 83 72 69 66 62 60 58 57 57 54 48 40 36 33 32 31 30 31
51 59 80 59 64 61 58 61 59 50 51 34 21 23 25 33 31 35 37 44 50 68 74 73 76 78 87 78 74 74 71 66 62 59 56 53 49 45 43 39 36 34 34 35
54 60 80 75 57 54 52 53 46 60 67 66 52 27 31 27 32 37 40 46 57 74 76 71 74 77 86 77 75 74 68 65 62 59 56 54 52 50 47 47 45 38 36 37
50 67 85 84 66 61 67 59 52 57 70 80 44 30 34 35 34 35 43 48 65 76 70 70 72 78 85 77 80 75 72 69 65 62 60 60 63 57 54 54 55 51 54 65
47 58 62 60 72 69 86 68 57 76 85 54 45 37 36 33 33 38 43 55 74 74 68 72 81 84 84 78 79 77 72 76 74 68 69 70 76 80 82 81 82 94 97 95
51 89 72 61 62 78 71 69 67 82 64 76 41 44 30 31 36 40 47 73 77 68 69 74 84 84 88 80 77 73 78 85 81 81 81 83 83 82 90 97 98 100 100 99
56 92 81 78 63 68 78 62 64 62 57 58 53 54 34 37 40 47 58 77 73 67 69 74 84 85 87 81 82 84 88 88 90 86 83 85 90 96 98 99 100 99 98 99
58 75 77 74 66 66 73 62 60 59 57 55 66 46 37 40 46 55 70 80 71 69 72 75 81 80 81 85 86 87 89 89 93 94 89 91 93 94 98 99 99 100 100 100
60 66 70 75 67 80 50 51 50 54 53 52 50 45 41 46 56 74 81 76 71 74 76 79 82 83 83 88 87 85 87 87 94 98 100 98 98 96 97 99 100 100 99 99
48 60 79 79 72 56 51 61 61 61 55 44 48 43 48 60 72 76 80 74 75 77 78 79 81 82 84 89 83 81 80 84 90 95 93 96 94 92 94 96 97 99 99 99
63 55 64 79 77 59 57 59 58 51 90 54 48 50 59 64 68 67 80 79 79 79 81 83 84 85 86 81 80 82 83 84 89 96 96 95 92 92 94 96 97 98 99 98
78 79 78 68 67 53 41 43 62 96 81 60 64 60 63 62 60 78 77 81 82 80 82 85 85 84 85 80 86 83 89 92 96 97 95 95 95 93 97 98 100 100 99 98
64 69 79 71 73 74 46 64 74 68 59 61 63 64 68 69 69 76 79 84 83 81 83 84 86 87 86 91 87 91 91 99 100 100 96 98 100 100 100 98 88 61 40 34
67 54 58 54 51 43 54 54 57 65 67 67 67 67 68 69 70 77 85 85 82 81 81 81 83 88 86 86 90 90 92 96 98 99 99 98 96 82 44 34 33 33 36 36
69 62 63 67 49 49 51 65 69 72 71 70 71 67 69 71 70 78 85 86 82 82 83 84 83 89 95 94 96 94 96 97 98 99 85 57 37 33 31 31 34 36 32 25
59 66 65 64 57 63 69 71 72 70 70 69 70 70 69 69 69 73 82 84 84 84 83 86 95 96 96 99 99 100 100 94 78 59 46 36 30 29 29 33 35 29 22 21
64 57 67 62 52 57 62 77 71 72 75 73 72 70 71 70 70 73 83 84 86 85 85 84 94 100 94 84 84 82 72 65 61 49 38 30 27 27 33 36 25 22 20 14

GFSCGP_850_rhum_057.txt.gz
RH
90 93 92 56 37 29 26 31 24 25 37 38 33 32 25 27 29 28 26 24 22 22 22 26 32 34 35 36 37 37 35 35 38 48 65 84 63 35 49 60 81 98 98 100
95 96 64 41 34 33 36 32 32 34 38 38 31 35 31 28 27 25 26 26 25 25 27 29 32 33 31 31 33 35 37 39 38 35 45 65 64 41 38 49 57 68 84 84
71 75 71 73 46 42 37 40 33 39 45 38 38 40 33 31 29 29 29 27 26 26 28 37 41 42 39 41 30 27 31 37 41 41 42 51 77 87 90 80 68 62 66 84
82 63 80 76 53 39 43 31 34 47 46 36 36 24 37 31 31 28 28 26 30 36 40 45 47 51 54 44 34 31 28 27 29 35 40 45 56 72 84 86 91 88 64 48
94 78 89 61 51 38 39 44 47 48 48 48 44 40 32 28 34 32 31 36 41 45 47 48 55 59 61 42 39 39 43 42 32 29 29 31 39 53 73 83 88 88 91 80
93 94 89 65 68 47 49 49 49 48 51 68 44 35 35 30 29 32 33 37 42 48 52 56 61 63 64 63 47 40 40 50 52 36 34 32 31 42 63 77 83 87 91 91
99 98 89 80 82 62 52 60 88 88 86 59 42 49 29 21 26 30 33 38 44 49 54 60 62 64 67 67 61 54 53 56 53 51 40 36 34 36 37 62 77 84 85 84
100 100 98 91 84 93 74 58 67 64 64 50 44 43 28 24 31 35 39 44 48 50 59 62 64 67 69 73 68 54 54 54 60 60 60 60 59 43 41 44 54 77 84 84
95 99 93 86 82 71 88 76 46 48 44 44 35 31 30 26 29 30 37 43 47 51 62 62 64 68 72 75 78 67 66 71 74 71 71 74 74 74 57 60 61 64 64 72
60 94 69 68 68 59 64 46 69 78 64 43 34 27 25 34 33 30 35 41 45 52 62 62 65 68 75 80 78 74 74 76 76 68 73 74 69 55 49 44 41 41 42 46
45 53 80 55 59 56 54 57 51 49 46 35 23 23 23 28 30 33 36 42 46 58 63 63 64 67 78 79 80 78 70 67 64 61 60 60 56 55 55 54 48 43 41 40
47 54 77 70 50 47 46 45 42 63 58 53 47 34 23 24 27 32 38 43 50 64 67 62 65 68 76 76 79 79 72 69 65 63 63 63 59 57 58 57 59 58 54 52
42 62 83 78 58 53 60 49 43 47 71 78 40 37 25 24 30 33 40 44 55 66 63 62 66 69 75 74 79 75 71 69 68 66 68 70 69 70 71 74 75 74 73 75
42 50 60 61 78 61 76 58 51 76 85 47 37 37 34 30 30 35 39 44 60 65 62 64 73 74 76 78 75 72 72 75 77 80 79 82 79 80 80 85 91 99 99 98
44 88 69 55 53 79 70 63 62 91 61 74 35 33 31 26 32 36 40 56 64 63 61 65 73 73 76 79 82 77 82 86 89 85 81 81 84 88 92 85 87 96 99 98
50 87 76 80 54 59 72 55 56 58 54 48 44 44 28 31 36 43 47 64 67 61 62 67 72 74 78 82 84 83 87 88 88 88 82 84 85 89 97 100 100 99 100 100
52 68 76 69 58 58 67 54 52 52 48 48 59 40 33 37 41 48 57 71 63 62 65 68 71 72 78 86 86 93 91 88 88 86 83 92 91 93 95 100 99 98 98 99
53 58 59 68 60 79 57 45 41 46 44 43 42 38 36 41 48 56 71 68 64 64 69 71 74 78 84 88 94 90 83 83 86 86 87 93 91 91 94 97 96 96 97 94
41 48 64 70 61 48 39 50 54 54 51 40 43 38 41 49 58 59 72 68 66 69 71 75 80 82 82 90 86 83 80 88 94 88 90 91 90 92 94 91 92 99 100 100
52 47 60 66 72 59 57 53 45 45 68 41 38 42 48 56 63 64 76 72 73 75 76 82 89 84 85 85 91 88 89 94 93 88 89 89 90 93 90 93 94 96 96 96
67 66 72 63 65 48 36 52 56 88 85 54 54 54 56 58 61 79 77 77 76 73 88 92 89 88 84 86 96 93 91 96 96 90 91 89 89 89 93 94 97 98 95 82
60 63 63 59 72 71 38 46 66 68 59 59 59 61 63 66 67 77 78 81 77 76 86 89 86 83 83 86 89 94 94 96 94 92 92 96 92 92 95 94 70 39 34 35
57 45 50 47 49 42 52 55 62 64 63 68 70 69 69 69 69 77 82 84 80 79 82 84 82 76 79 84 87 88 92 95 92 97 98 94 91 55 35 33 33 36 36 34
49 44 53 59 42 40 50 55 61 70 67 65 65 66 67 70 71 76 82 86 82 81 79 78 81 78 78 80 84 87 91 95 97 96 91 59 34 31 30 32 35 34 28 24
47 54 54 50 43 53 57 58 70 74 72 70 69 68 68 72 75 76 80 86 86 83 80 78 83 87 85 83 87 91 94 94 92 75 47 33 30 28 30 33 31 24 20 18
46 51 57 53 43 44 53 71 74 75 77 75 72 73 73 73 74 80 80 84 89 84 82 82 87 89 93 94 91 93 87 76 61 48 36 29 26 27 33 32 22 20 17 11

GFSCGP_850_rhum_060.txt.gz
RH
69 85 87 74 59 45 41 48 49 34 36 39 42 44 34 27 27 28 28 25 24 24 23 23 25 27 29 30 32 32 33 34 36 40 56 79 78 60 58 48 56 78 95 80
85 89 64 54 48 45 36 39 42 30 40 42 40 38 31 29 30 29 28 27 24 23 22 27 29 30 30 29 31 33 33 35 35 35 36 47 65 69 63 56 46 43 62 98
78 66 57 57 50 46 40 44 36 41 44 39 39 42 38 32 29 29 30 30 29 26 26 30 39 40 38 34 31 31 31 33 34 36 38 38 46 62 79 67 50 38 44 69
85 71 71 80 69 42 48 34 33 46 55 57 42 43 41 38 34 31 28 26 26 30 38 42 48 52 53 43 37 33 30 26 28 34 39 40 41 47 75 82 70 68 69 72
93 86 80 94 73 44 40 36 48 51 56 52 51 59 41 37 39 36 31 33 37 41 44 50 55 59 61 50 42 40 39 41 34 30 28 29 34 40 47 63 80 86 90 90
94 80 80 82 82 76 44 53 53 50 57 88 58 47 49 41 38 37 35 39 44 48 53 57 62 64 65 60 50 44 42 44 54 52 41 35 34 32 34 38 55 78 85 87
97 96 87 93 87 63 56 67 86 94 96 84 45 53 50 31 34 36 39 40 45 50 56 60 63 65 64 57 52 50 50 50 53 55 58 56 55 45 40 37 44 64 78 86
99 100 97 93 82 82 64 65 89 73 92 70 44 62 37 32 34 36 39 43 47 51 60 62 64 65 66 68 63 56 55 58 59 59 60 60 63 66 65 60 57 54 66 83
100 100 94 90 78 76 86 96 48 64 42 78 53 38 31 39 40 36 40 43 47 52 62 62 63 65 67 74 69 66 68 71 66 64 67 69 73 72 68 61 56 53 45 44
68 98 96 92 80 79 78 57 73 94 70 66 47 45 42 42 41 36 46 44 46 50 61 62 63 66 67 76 72 73 72 72 68 65 66 71 72 68 67 64 54 48 45 47
53 71 98 92 97 98 93 96 64 62 57 65 51 42 28 34 37 38 42 43 46 54 62 64 62 64 72 78 77 76 73 70 66 64 65 64 63 63 61 61 58 54 50 50
50 67 94 73 51 52 62 55 62 94 72 71 65 54 26 31 37 38 40 44 47 60 66 63 63 66 75 75 77 76 75 71 68 66 64 62 62 62 63 65 68 68 67 62
48 74 93 78 63 53 62 52 48 65 82 86 79 56 28 33 35 34 39 43 53 64 64 62 65 68 74 73 77 77 73 70 71 71 69 71 73 69 70 75 79 86 87 82
44 56 73 87 82 74 82 63 56 84 92 71 58 47 36 36 36 36 40 44 59 65 62 62 69 73 76 75 76 77 75 74 74 75 78 75 76 78 80 82 81 84 91 94
55 84 78 58 65 94 80 67 66 90 74 74 53 45 39 35 34 38 39 52 63 64 60 62 69 73 74 77 81 79 76 78 82 84 85 80 78 81 84 94 94 91 86 82
56 86 82 86 54 64 76 62 64 65 64 60 51 50 33 35 37 42 46 61 67 62 61 63 70 73 77 80 83 86 81 85 85 87 88 88 88 90 95 96 96 97 94 98
62 82 88 86 58 60 80 62 59 62 56 58 68 49 38 38 43 47 56 67 64 62 64 66 70 70 74 80 85 85 85 86 86 84 90 93 94 93 94 96 92 93 93 96
57 66 74 89 70 93 62 46 46 53 52 49 47 44 37 41 48 52 60 69 64 62 67 68 71 75 78 83 86 87 84 81 81 88 92 94 91 88 89 90 90 96 96 97
46 58 72 89 88 60 58 52 54 55 56 46 48 41 38 50 57 60 66 67 62 64 68 70 73 76 81 85 87 86 82 83 91 91 92 89 86 84 84 89 95 100 99 98
52 51 70 79 84 78 68 51 43 43 74 44 43 45 50 56 79 84 72 68 68 70 70 75 80 81 83 84 87 91 91 93 93 92 88 89 87 82 90 89 93 94 92 92
72 68 83 73 79 64 60 55 50 84 86 56 45 55 57 67 71 78 77 73 73 72 72 78 84 84 88 91 93 92 90 93 91 88 90 88 84 86 87 88 93 80 43 34
68 76 76 72 82 84 46 48 68 71 60 59 60 62 63 63 65 69 73 72 74 77 76 76 84 87 92 88 82 85 89 92 89 92 90 88 90 92 86 60 34 33 34 29
64 54 56 58 64 47 47 62 62 61 63 68 67 66 64 64 66 69 74 76 75 79 78 76 79 85 83 78 80 82 86 87 92 97 98 93 84 48 33 30 32 35 31 26
47 42 59 63 49 48 56 58 63 63 65 66 66 64 63 65 66 68 74 79 77 80 81 76 70 78 77 77 80 83 85 90 94 95 87 64 35 29 29 32 34 29 24 22
56 53 59 58 50 55 50 54 64 69 69 67 66 66 66 68 68 71 73 79 79 79 85 77 71 75 78 78 78 83 89 92 91 83 54 34 28 26 27 31 30 23 19 17
50 63 72 65 53 50 60 64 69 68 69 68 70 70 72 72 71 71 73 77 81 80 83 82 78 79 81 81 82 83 86 88 76 61 40 29 25 24 28 32 24 19 17 14

GFSCGP_850_rhum_063.txt.gz
RH
77 88 90 71 69 57 68 61 55 51 39 44 46 47 40 34 30 30 28 28 26 24 24 24 24 25 25 25 25 27 31 36 39 43 43 63 68 62 61 68 67 68 69 68
93 89 70 62 62 63 53 62 60 41 39 42 46 53 45 40 32 28 28 27 28 27 25 27 29 29 28 28 30 31 32 32 34 35 36 40 44 52 65 62 62 73 72 69
84 71 62 65 65 66 61 52 52 48 46 43 43 47 44 36 31 29 30 30 30 28 28 31 31 30 29 28 28 28 29 29 30 34 36 36 36 40 46 53 65 74 77 62
82 68 68 69 65 59 70 40 39 53 58 66 41 58 44 41 39 33 30 29 29 31 37 42 43 39 36 38 37 33 31 31 31 34 37 38 39 40 42 53 85 86 76 67
96 84 87 82 70 63 54 36 54 55 57 56 53 60 48 46 43 39 33 27 28 40 42 46 46 48 49 46 41 39 40 40 36 33 30 28 31 37 42 44 53 63 79 87
95 82 82 78 78 81 72 55 60 62 67 90 65 60 50 52 41 41 40 43 45 49 54 55 59 63 64 59 52 47 41 41 43 42 38 38 34 33 32 31 34 41 52 76
98 96 85 86 79 78 75 69 95 93 94 89 50 64 49 38 40 42 47 43 46 53 57 60 61 62 61 57 55 54 51 51 50 52 54 53 53 47 46 39 37 35 46 72
88 100 97 89 88 92 83 62 87 85 98 85 49 69 47 36 35 35 38 43 49 54 59 62 62 62 61 59 58 56 54 55 55 57 58 60 60 62 62 59 52 50 49 51
90 94 91 88 89 84 91 86 56 67 55 83 64 41 37 48 51 49 49 49 49 56 62 63 63 64 63 62 65 62 64 61 60 60 63 66 69 69 69 68 65 61 56 49
86 97 93 91 94 82 83 63 73 90 62 76 67 52 50 54 51 48 49 47 48 56 63 63 62 64 64 66 71 70 71 67 65 65 62 61 61 61 61 60 58 55 52 49
67 78 99 94 98 96 84 88 72 70 70 66 61 53 31 44 42 46 49 46 50 52 63 64 63 63 64 71 72 72 73 70 68 66 63 62 61 61 60 60 58 58 57 56
56 77 99 99 77 74 82 79 66 87 76 74 68 60 32 38 38 39 49 48 48 56 63 65 62 63 68 74 72 72 74 74 70 66 64 63 62 63 64 66 69 70 69 69
53 80 96 96 73 69 94 82 71 64 82 84 78 58 37 45 46 43 44 44 51 59 64 65 62 65 70 74 72 74 76 73 71 71 70 72 74 74 74 76 77 80 85 90
48 67 73 83 73 75 83 73 60 72 84 68 71 47 47 47 44 40 42 46 59 64 65 63 62 70 74 75 75 75 76 77 76 78 78 78 75 73 76 80 84 82 81 81
62 80 74 66 78 86 76 69 73 79 66 72 52 46 41 42 41 38 42 54 63 65 64 61 61 71 75 75 75 78 78 80 82 82 82 78 75 75 79 85 92 86 88 83
64 90 78 84 65 69 69 68 70 68 64 66 62 58 37 31 36 42 46 61 65 65 62 61 63 72 75 76 79 82 83 84 88 86 83 80 80 83 87 88 88 93 96 97
71 83 91 88 61 65 74 69 70 69 65 60 73 54 44 45 48 48 53 60 65 64 62 64 66 70 73 76 81 86 86 85 88 83 80 82 87 88 88 89 95 97 92 90
73 74 84 91 76 92 46 48 53 60 60 60 53 47 43 46 48 50 55 63 65 62 63 67 68 71 73 76 80 83 86 84 81 82 84 86 85 85 89 93 93 94 93 89
57 72 82 91 94 60 64 54 56 64 63 55 55 47 40 53 56 62 65 69 65 62 65 68 70 72 76 81 84 85 85 82 84 86 86 82 83 83 94 95 94 92 87 86
58 60 76 87 92 88 66 51 45 51 81 52 48 49 45 60 84 88 71 69 64 67 69 70 74 78 79 83 86 86 86 89 90 90 84 82 80 85 92 90 94 90 80 66
77 73 84 70 89 70 57 55 48 84 73 53 42 44 61 74 69 74 74 72 70 71 72 71 73 79 82 82 83 86 95 98 95 86 82 80 84 88 91 94 74 34 31 31
72 75 78 76 86 86 57 52 74 71 62 61 60 61 61 63 65 66 68 69 70 73 75 73 72 76 80 79 78 87 98 97 90 80 80 83 86 89 84 45 30 31 30 26
67 61 55 70 72 49 46 56 63 62 62 63 59 60 61 63 65 66 68 70 71 72 78 75 70 72 73 75 75 80 87 88 85 90 87 88 86 57 32 30 31 28 25 24
54 50 60 58 54 56 60 61 61 63 63 65 65 64 63 63 66 68 69 70 72 73 78 79 72 72 73 70 70 76 80 84 94 98 94 81 38 29 29 28 29 27 23 20
62 56 63 64 55 53 58 57 59 65 68 69 70 68 67 66 66 68 68 70 72 75 76 81 78 70 72 70 70 75 82 84 93 89 74 46 30 27 26 29 30 25 19 17
58 67 77 80 60 58 62 57 66 65 66 67 66 67 68 69 70 71 71 74 73 74 77 78 81 76 76 74 72 78 86 85 86 75 52 34 28 26 25 28 28 22 18 16

GFSCGP_850_rhum_066.txt.gz
RH
97 92 88 78 70 64 67 62 65 56 45 50 56 50 44 37 32 34 29 30 30 26 25 24 25 24 24 23 24 30 35 38 41 43 51 55 67 72 78 82 79 77 78 83
99 89 68 68 67 64 66 66 65 46 44 47 50 51 44 40 38 31 31 32 29 28 27 26 26 26 26 26 25 26 28 33 35 36 40 43 43 43 48 55 67 75 74 74
87 77 64 66 74 76 67 68 63 52 48 43 51 60 51 46 40 32 30 27 28 29 28 29 29 30 30 30 30 30 30 31 33 35 37 38 39 42 41 41 45 55 68 78
82 69 71 76 77 68 75 48 49 52 60 74 45 76 46 47 44 40 33 32 31 30 30 32 32 31 32 31 29 28 27 28 29 31 32 33 37 40 42 43 43 42 46 56
97 80 79 81 72 56 60 43 50 58 63 57 56 60 51 46 52 45 39 32 31 34 37 40 42 40 37 37 35 35 35 36 34 32 31 31 32 35 38 40 42 45 53 70
92 84 85 79 84 74 71 58 63 66 70 88 64 64 58 52 44 39 38 33 28 45 50 51 52 48 47 47 44 41 41 40 39 39 39 38 36 34 32 30 30 31 37 47
96 94 86 84 78 71 69 69 96 94 98 91 60 68 52 39 39 41 48 46 47 50 56 55 55 55 55 53 51 49 48 48 48 49 50 49 46 45 45 42 39 35 36 39
92 98 95 86 84 86 82 62 88 87 94 82 54 80 55 42 39 34 38 45 52 56 56 56 58 59 57 56 56 55 53 52 53 54 54 55 56 58 58 57 56 53 48 45
94 98 90 85 82 86 94 93 60 69 69 86 68 55 41 50 50 49 48 50 56 59 58 60 62 60 60 60 60 60 59 61 61 60 61 62 64 66 69 71 70 69 66 62
82 98 85 87 86 87 92 66 74 90 71 81 71 61 57 58 58 57 60 57 56 58 62 64 64 62 63 63 63 64 63 66 66 65 64 64 63 63 62 62 62 62 60 58
76 78 94 91 97 98 96 86 74 69 69 70 67 62 42 52 48 53 54 52 50 58 62 65 65 64 64 65 69 69 69 70 70 68 66 65 64 62 62 61 60 59 59 59
66 82 96 90 82 77 82 80 65 87 75 76 67 57 37 44 46 48 49 47 49 54 62 64 64 64 63 67 72 72 69 71 72 70 67 66 64 62 62 64 65 66 69 68
60 85 98 97 82 82 97 88 78 71 81 86 76 48 42 44 43 44 48 49 51 55 64 65 65 62 63 68 72 74 72 75 73 72 71 71 71 72 72 71 72 76 78 80
53 72 73 84 70 81 88 91 78 80 90 82 80 49 45 50 51 51 49 47 51 59 60 64 65 63 67 71 74 75 74 76 74 73 75 75 74 73 70 71 77 83 83 81
57 80 75 72 78 82 74 86 78 82 75 82 61 51 44 49 48 44 42 46 55 63 65 65 63 62 68 74 77 76 76 77 76 77 79 77 74 72 75 81 86 92 88 83
69 89 76 82 70 64 65 72 75 68 61 63 62 61 42 38 37 39 40 48 60 64 64 64 61 63 68 74 76 76 80 80 79 81 82 79 77 81 85 87 88 90 91 89
69 85 87 82 65 66 73 69 71 69 65 58 68 53 42 45 48 46 47 52 57 61 64 62 62 65 70 75 77 78 83 84 82 82 81 80 83 86 86 87 90 89 86 85
76 75 84 94 72 78 44 50 54 63 64 63 55 49 46 45 41 42 45 50 61 65 63 62 64 66 70 72 74 76 81 84 85 83 83 84 86 86 85 86 88 89 89 87
63 78 85 93 94 65 58 56 62 68 64 62 60 53 45 48 54 61 57 59 60 63 62 62 65 67 70 74 78 82 85 87 85 86 87 88 86 83 85 90 90 87 88 87
62 67 76 92 92 90 60 53 47 52 79 56 54 56 58 65 81 76 64 67 67 65 62 65 67 70 74 76 81 85 86 86 90 95 94 88 88 88 86 84 87 86 78 53
74 74 82 83 91 77 52 55 51 81 69 60 52 47 55 74 64 67 68 69 67 65 67 70 70 73 77 80 84 86 93 99 99 100 97 93 84 82 82 86 65 32 30 26
79 83 82 76 82 88 57 58 72 68 65 56 50 47 60 60 63 66 70 72 70 70 72 74 73 72 76 80 83 87 90 93 94 94 93 90 85 82 80 42 29 29 24 20
72 60 68 72 72 48 54 51 54 62 62 63 60 61 60 61 63 64 66 68 69 70 73 77 76 73 75 76 78 80 84 82 82 87 86 87 85 71 40 30 30 27 21 18
57 55 62 61 54 54 53 56 61 63 62 65 63 64 62 63 64 67 69 70 71 72 73 77 79 74 72 71 74 76 77 77 77 81 83 86 75 41 30 28 29 27 22 18
66 59 63 67 57 54 55 60 59 64 66 67 68 68 67 68 69 68 70 71 72 74 76 76 78 80 74 73 72 71 77 78 78 80 86 82 42 29 28 28 30 29 24 19
65 70 76 76 56 56 52 51 62 66 66 67 68 67 68 68 69 70 71 72 73 74 79 77 77 82 81 74 75 72 74 80 81 78 78 59 35 28 28 28 29 28 23 18

GFSCGP_850_rhum_069.txt.gz
RH
99 97 81 80 82 68 66 69 67 56 47 55 57 52 45 38 37 37 33 32 31 30 28 26 25 24 25 25 25 27 34 61 62 80 84 82 85 86 86 88 90 90 88 90
99 97 64 71 70 66 68 68 68 52 50 53 54 56 46 40 40 34 32 31 30 30 28 25 25 24 24 25 25 25 28 34 37 41 42 48 55 60 63 67 75 84 90 90
97 86 67 69 77 75 72 70 66 59 50 46 51 58 52 48 44 39 34 31 31 31 28 27 27 27 27 27 28 28 30 32 33 34 35 37 44 50 49 47 46 54 61 68
92 68 73 80 82 73 77 54 53 58 59 73 48 83 55 53 51 46 37 32 30 30 30 29 28 29 30 30 30 31 31 30 30 30 32 35 37 38 39 41 41 40 41 43
97 79 81 82 77 60 64 51 53 55 61 58 57 68 60 45 61 47 42 37 34 30 29 30 31 33 33 33 32 31 30 30 33 35 36 36 34 33 33 36 38 40 41 42
91 85 79 79 81 60 63 60 64 72 70 89 65 66 68 51 45 38 41 36 35 32 33 39 41 40 39 40 40 38 36 37 40 42 45 45 44 40 36 34 33 33 32 33
90 94 88 79 80 73 63 70 96 96 96 92 66 68 52 43 40 40 39 38 35 39 43 47 45 44 45 50 51 48 47 46 44 44 45 45 45 45 45 44 42 42 41 42
99 99 92 88 78 80 72 64 89 86 96 85 62 81 60 44 40 36 34 34 32 49 52 49 52 56 57 57 55 52 51 50 50 50 51 52 54 55 56 56 57 56 55 53
93 100 88 87 84 81 86 88 58 75 75 88 71 60 43 45 44 44 50 45 48 54 56 57 60 61 60 59 57 56 55 55 56 57 57 58 61 62 64 66 68 70 69 68
76 98 86 91 75 83 86 75 78 89 81 89 73 66 52 49 54 58 65 67 63 61 61 62 62 62 61 61 60 60 61 61 62 63 63 64 64 64 64 64 64 64 63 61
74 78 93 91 94 82 97 93 78 74 69 72 71 58 47 42 50 58 58 61 61 60 60 61 63 64 63 62 61 64 67 66 66 67 68 67 66 64 62 61 62 62 62 62
67 80 91 95 80 74 80 84 74 89 79 82 69 62 35 46 51 50 57 55 56 56 59 62 64 65 64 63 64 68 70 69 68 71 71 69 67 65 65 66 66 68 71 72
68 84 97 97 83 83 98 88 75 74 79 87 79 60 40 45 50 51 52 52 52 54 62 65 65 65 65 64 68 73 74 72 74 74 72 72 71 71 71 71 73 76 79 79
53 77 74 83 70 82 99 96 87 77 89 84 77 55 39 44 50 52 50 48 49 54 57 62 65 65 65 67 71 74 75 75 75 76 75 75 76 74 72 73 75 79 83 83
57 81 77 74 76 79 80 83 86 93 73 80 61 64 42 39 50 49 45 47 54 55 61 62 62 65 65 67 70 74 77 75 76 77 77 78 78 75 74 77 81 89 90 86
69 87 75 79 70 66 69 74 88 85 79 79 69 64 41 36 42 47 48 50 52 55 58 61 65 64 62 66 72 76 76 77 80 80 80 81 80 78 82 87 87 88 91 91
69 84 83 76 72 64 65 66 78 79 67 66 76 56 43 44 46 43 43 45 46 48 54 61 63 63 63 67 73 76 77 80 84 83 82 82 82 83 85 86 91 92 90 87
74 74 82 95 70 80 48 51 55 66 65 65 60 50 45 41 34 36 35 34 41 50 57 62 63 62 65 67 73 77 77 79 81 82 84 83 85 88 88 91 90 89 86 82
64 79 90 92 94 68 52 60 63 66 60 60 63 55 46 46 52 52 44 45 46 50 60 64 62 64 65 68 72 75 80 83 84 85 84 86 88 87 89 92 91 87 84 83
68 70 78 94 93 87 54 55 50 52 78 59 61 62 52 63 79 73 51 52 56 63 64 62 63 64 65 70 74 78 83 84 85 84 86 90 90 90 92 87 84 83 81 45
78 78 86 86 95 76 55 54 53 76 62 68 57 55 56 77 60 46 52 59 67 67 65 64 67 67 68 72 76 79 81 84 95 100 99 95 94 95 88 87 82 48 29 23
80 83 91 85 90 86 52 59 67 62 65 62 55 54 51 59 60 64 67 68 69 68 67 69 71 70 67 71 75 78 80 89 99 100 99 92 90 89 89 82 34 28 23 20
74 69 76 73 72 48 48 55 52 62 64 63 60 53 50 63 66 66 67 66 66 66 67 70 73 74 69 69 72 75 82 89 99 100 97 86 92 89 84 35 30 28 24 22
61 58 66 62 53 56 48 51 54 64 64 64 62 62 64 62 65 69 69 70 71 73 73 73 74 77 75 71 71 76 82 87 96 94 89 87 83 80 47 31 31 28 24 20
64 62 66 70 60 55 51 51 55 63 66 66 67 66 66 67 70 75 82 87 85 80 74 74 75 77 81 78 75 77 76 79 80 84 83 84 82 60 33 29 29 28 26 23
68 70 75 75 52 52 49 49 54 62 66 68 69 69 69 69 70 71 72 72 72 72 76 77 77 78 80 84 80 76 75 74 78 78 83 84 77 41 30 27 26 28 28 23

GFSCGP_850_rhum_072.txt.gz
RH
82 97 90 86 78 70 78 75 79 58 64 66 78 72 50 83 76 70 54 44 34 30 29 28 26 26 29 31 36 44 51 63 78 81 78 83 86 88 87 84 84 85 84 88
97 100 74 76 75 68 71 74 72 55 58 61 61 68 61 59 62 53 40 37 32 32 31 29 27 25 24 24 26 27 28 32 44 67 66 79 83 76 70 69 75 84 86 88
89 90 70 74 81 77 73 79 72 66 58 48 62 74 80 59 58 45 39 33 30 32 33 29 27 26 25 25 27 27 27 28 34 38 39 42 43 47 52 60 66 72 73 70
94 82 74 79 83 72 82 60 56 60 66 85 53 89 66 56 48 43 39 39 35 31 34 30 27 27 28 28 28 29 30 31 31 32 32 33 34 36 38 41 44 46 47 46
97 93 91 83 79 61 67 57 57 56 64 60 59 73 59 48 54 44 37 39 35 33 31 31 30 29 29 30 31 32 32 32 32 31 32 32 33 34 34 35 36 36 38 40
95 76 82 80 75 65 61 63 66 72 68 89 67 70 72 57 46 41 41 37 33 34 32 33 36 35 34 34 35 35 35 34 35 36 37 38 40 40 39 37 35 35 35 35
97 97 90 75 84 74 60 73 98 97 96 92 66 72 56 45 41 39 35 33 36 36 33 35 38 40 40 42 42 42 42 42 44 45 45 45 45 46 46 46 47 46 46 45
100 99 92 88 75 82 68 64 90 88 96 86 66 83 57 44 41 37 34 32 32 38 38 41 42 45 47 48 50 51 50 50 49 49 50 51 54 55 56 56 57 57 57 58
96 100 86 88 85 76 85 91 59 80 78 89 75 61 45 42 44 43 40 44 37 38 42 47 55 54 55 56 55 54 53 53 53 53 53 53 55 57 60 61 62 62 62 60
77 98 87 83 78 86 78 69 79 89 84 90 74 68 58 41 41 47 55 62 48 49 61 61 59 60 60 59 58 57 56 57 57 58 59 60 61 61 61 61 62 62 62 61
69 78 97 82 89 92 95 94 80 74 71 77 76 60 49 41 38 45 54 60 57 55 59 60 62 64 63 62 61 60 61 63 63 63 63 65 65 65 64 62 60 60 62 63
68 76 95 84 79 78 76 86 75 90 83 85 74 68 34 44 48 50 56 60 59 59 60 62 64 65 64 64 64 63 65 68 68 67 68 70 70 68 67 66 68 70 71 73
70 85 97 94 79 83 95 84 80 75 82 88 85 67 37 48 50 54 56 57 59 61 64 66 67 66 65 65 65 65 69 71 71 72 74 73 72 71 72 72 72 73 75 78
57 78 75 86 70 84 98 87 83 85 94 87 78 60 48 42 43 51 53 51 56 62 64 64 65 66 66 66 66 69 72 73 74 75 77 77 77 76 74 72 73 76 79 82
59 82 77 71 76 84 85 84 86 97 80 88 66 65 48 44 41 42 44 49 56 56 61 61 61 64 65 66 67 70 72 75 77 76 79 79 78 78 76 75 78 82 88 91
67 83 75 79 73 78 76 80 88 86 82 77 73 77 47 40 38 43 42 52 54 53 53 56 61 64 65 65 65 69 73 77 77 80 81 81 80 82 81 84 92 97 96 96
69 82 81 79 75 68 70 70 78 82 77 78 92 66 50 45 46 42 43 46 46 47 50 53 55 59 64 64 65 70 75 77 77 84 87 85 83 84 85 95 99 100 100 96
75 73 78 89 71 83 49 50 56 70 73 73 68 55 52 45 37 35 40 42 47 47 46 49 56 61 64 62 66 72 77 79 80 85 88 86 87 89 97 99 100 99 96 89
65 79 90 93 93 69 49 61 65 64 58 62 67 61 52 43 46 44 36 41 38 36 43 51 58 63 62 64 66 71 77 79 81 84 88 90 92 98 98 98 97 94 89 85
71 72 77 94 93 80 47 60 51 53 74 53 64 65 65 62 73 64 44 40 42 47 53 59 63 62 64 64 68 73 77 80 84 88 90 94 100 100 96 98 95 89 87 63
82 80 86 87 96 81 57 53 55 74 63 66 66 60 60 76 57 47 56 54 57 60 64 65 63 64 67 66 70 74 78 82 88 94 100 100 100 100 98 90 88 85 54 25
84 87 90 87 92 93 46 62 68 59 65 65 61 58 56 58 62 61 62 62 66 67 67 66 67 70 71 68 70 75 79 84 87 99 100 100 100 97 91 87 81 41 29 19
78 72 80 77 76 49 47 57 52 55 67 65 64 55 53 64 68 69 70 70 70 70 69 69 72 75 75 71 71 74 77 80 86 99 100 100 99 93 86 84 39 27 23 20
65 61 68 66 54 58 46 45 52 54 65 66 64 63 65 66 66 67 68 69 72 75 76 78 76 75 77 77 72 72 74 77 81 94 98 96 94 90 86 64 28 27 24 21
65 66 69 72 61 54 49 49 52 60 65 68 67 67 67 69 72 77 80 82 85 85 89 87 84 77 76 80 81 75 73 74 75 80 87 86 87 85 83 41 29 29 29 24
69 70 72 71 50 52 48 49 52 60 64 69 70 71 70 70 70 71 71 70 70 72 72 73 75 76 78 79 80 82 78 75 74 73 76 80 81 83 74 40 30 28 28 26

GFSCGP_850_rhum_075.txt.gz
RH
83 98 95 84 73 65 75 74 70 75 74 76 82 73 68 71 72 55 61 58 47 46 35 32 30 54 60 51 51 62 66 69 74 76 77 76 74 78 84 85 88 89 90 89
90 100 80 77 70 70 70 78 75 58 70 66 78 76 60 76 71 73 70 58 50 46 40 33 28 26 29 32 30 31 36 43 47 53 63 73 72 69 73 82 80 83 84 87
82 92 83 77 79 75 74 73 74 67 73 58 67 72 74 66 66 63 68 60 53 49 34 32 32 27 26 25 25 26 26 28 28 32 42 57 58 57 66 64 66 70 74 77
84 90 90 81 81 70 80 64 63 68 76 87 62 79 76 67 67 70 63 52 51 48 34 31 33 29 27 27 27 28 28 28 29 32 36 37 36 36 37 38 43 49 53 55
98 95 94 84 78 62 72 59 61 63 66 62 63 73 62 61 70 62 64 49 48 42 39 33 32 30 29 30 31 31 31 31 31 32 32 32 32 32 33 33 35 36 38 40
94 85 90 73 78 62 61 65 67 73 69 92 69 71 67 54 59 53 46 45 45 39 37 35 33 32 34 34 34 33 33 34 34 34 33 32 32 34 36 37 38 37 37 36
96 95 92 81 81 68 62 73 94 94 96 86 67 74 57 46 40 38 36 37 35 36 38 35 33 33 35 38 38 38 37 37 38 39 39 40 40 41 41 42 43 44 46 46
97 100 95 83 77 76 65 64 84 87 92 82 70 78 53 43 40 40 36 33 31 29 36 36 32 32 37 42 43 42 42 43 44 45 47 47 48 48 50 51 52 52 54 55
99 100 89 90 84 74 78 89 59 79 79 80 68 60 43 39 39 39 38 38 36 34 40 39 40 45 49 50 50 49 48 47 48 48 49 51 52 54 55 55 56 58 59 59
84 99 86 86 78 82 72 65 80 86 83 82 68 64 48 37 34 35 36 43 41 40 42 47 58 58 56 54 53 53 53 52 53 53 54 55 56 58 60 61 61 61 60 59
70 78 97 76 86 90 88 86 79 70 68 70 72 54 47 40 35 40 40 43 46 45 53 64 65 63 61 60 59 57 57 57 59 61 61 61 62 62 63 64 63 61 59 59
67 73 96 98 78 80 82 84 72 86 84 81 69 60 34 37 46 46 51 51 55 47 61 66 67 65 64 64 61 61 60 61 63 66 65 66 67 68 67 66 65 65 66 69
70 83 96 91 74 80 93 90 75 76 81 89 79 64 37 43 46 52 54 57 57 56 65 65 64 64 63 64 65 65 65 66 68 67 69 71 72 71 70 69 69 68 70 72
58 77 73 82 70 83 95 93 85 85 98 82 73 63 48 44 45 40 48 47 57 61 64 64 65 65 66 66 66 66 67 69 70 71 74 74 75 74 73 72 72 71 74 77
62 83 78 67 67 88 90 86 89 91 77 83 65 67 52 47 45 40 35 42 54 64 66 64 63 64 65 65 64 67 68 71 72 75 76 77 78 77 75 76 76 78 84 87
66 85 79 80 79 81 82 82 88 86 81 73 68 71 48 48 46 41 39 40 50 56 62 62 62 62 61 64 63 66 68 72 75 77 78 82 83 81 80 82 87 92 96 96
68 79 82 81 75 67 71 68 77 83 79 74 84 63 57 59 58 53 46 42 40 45 51 53 54 57 58 60 64 66 67 73 76 78 81 86 86 85 88 90 96 99 100 100
75 72 75 85 69 83 50 51 56 67 64 74 73 65 60 56 50 49 46 36 40 48 50 48 53 57 60 64 66 65 68 73 78 80 83 88 86 84 90 99 100 100 100 100
64 77 88 88 90 66 52 62 67 67 58 62 74 67 64 62 48 45 39 37 35 42 45 48 48 54 61 65 64 66 69 75 79 81 83 88 90 91 100 100 100 100 100 94
73 72 75 92 93 76 42 61 52 53 75 52 63 68 68 63 75 59 44 40 40 46 42 42 51 58 64 63 63 63 68 74 77 82 88 91 96 100 100 100 100 100 96 86
84 82 87 78 87 81 58 51 56 77 61 60 70 64 65 80 60 52 52 55 53 51 53 56 62 64 64 65 64 66 71 75 82 86 90 98 100 100 100 100 98 96 91 42
85 91 92 89 96 92 49 65 72 55 60 67 66 61 59 60 70 63 65 65 65 63 63 65 66 65 66 69 67 67 72 80 82 86 99 100 99 100 100 99 94 91 65 26
81 71 80 76 76 51 45 57 52 55 59 66 65 57 54 65 71 71 70 70 70 69 68 69 69 70 72 74 70 68 74 76 79 84 99 99 99 100 100 94 91 76 37 27
69 63 67 65 54 59 45 42 43 46 57 65 65 62 61 65 69 69 69 68 68 70 71 72 71 71 72 74 76 72 73 75 77 82 96 100 100 100 97 92 89 42 32 25
66 66 68 71 62 53 47 49 49 51 58 68 67 66 65 68 69 72 78 80 86 88 87 88 88 86 84 78 79 81 77 76 78 81 89 97 97 95 92 88 72 30 30 28
68 68 71 71 51 52 49 50 52 55 62 67 70 71 72 74 75 76 79 78 77 78 80 79 79 82 84 87 86 81 84 81 80 80 81 87 89 88 88 87 60 30 31 27

GFSCGP_850_rhum_078.txt.gz
RH
94 96 90 56 42 35 47 54 59 54 68 61 60 57 51 46 46 42 39 39 42 47 42 37 45 69 67 65 66 62 66 72 79 80 83 84 78 75 78 80 83 87 89 89
95 100 74 53 49 44 46 51 51 52 56 55 54 56 45 41 47 47 43 35 40 47 44 41 39 30 67 68 54 56 66 65 66 71 74 73 74 78 81 75 82 87 85 86
90 90 68 59 58 50 47 47 50 50 59 54 53 56 49 42 50 49 48 45 44 44 49 40 37 34 28 40 46 38 42 46 49 50 48 53 56 61 69 63 71 71 67 64
79 82 82 66 53 43 63 44 47 54 56 57 47 44 41 41 51 48 42 42 47 47 49 39 32 34 31 28 27 29 30 32 34 36 39 43 49 52 45 44 42 41 42 46
96 94 95 69 54 44 45 50 47 46 44 52 57 57 34 42 45 42 43 41 46 46 48 40 38 36 32 30 29 29 29 31 31 32 32 33 34 34 34 34 34 34 35 37
90 83 88 55 62 52 49 50 53 54 56 68 46 51 36 39 40 35 35 41 46 51 49 46 41 37 33 32 33 33 33 33 32 31 31 32 32 32 32 32 34 35 36 36
96 96 83 76 66 53 49 52 82 83 82 60 51 57 38 31 32 31 34 40 40 44 47 42 41 35 33 32 34 36 35 35 35 35 34 34 33 34 35 37 40 42 43 43
97 100 95 68 67 64 54 44 57 61 62 48 55 55 37 30 33 36 35 32 37 38 40 41 43 36 34 33 36 37 38 38 38 38 38 39 41 43 44 46 47 49 52 53
90 97 88 73 71 60 65 66 46 61 59 57 44 40 29 25 26 29 31 37 37 35 32 36 45 47 39 39 44 46 44 43 42 43 44 46 46 47 48 49 51 52 54 55
75 96 84 81 77 63 57 47 65 74 74 57 45 41 26 25 24 24 25 28 34 43 37 35 55 68 62 54 53 51 49 49 48 49 50 51 52 54 54 55 55 56 57 57
61 65 94 68 75 62 63 63 60 50 53 46 41 30 25 27 27 31 32 40 44 49 53 66 74 69 61 59 55 54 52 51 52 53 54 56 58 59 61 62 63 63 62 60
57 64 92 97 68 65 64 60 49 62 65 60 49 34 24 25 29 39 37 49 60 62 66 70 73 64 63 60 59 57 56 57 58 60 63 64 63 65 66 67 66 66 66 67
53 67 89 94 68 66 70 64 58 56 66 77 54 34 27 28 34 41 40 47 57 52 75 78 72 64 61 60 60 60 60 60 60 63 66 66 70 71 71 70 69 68 69 70
51 56 58 63 63 59 78 69 66 71 95 56 52 37 32 32 32 33 35 42 52 58 72 75 74 69 65 62 61 62 62 62 63 65 65 69 73 74 75 75 73 73 73 74
52 80 68 55 54 77 75 70 69 93 70 73 46 39 34 29 26 31 37 39 46 60 68 72 71 71 66 65 64 66 67 67 67 68 68 72 74 75 76 76 74 74 74 78
52 80 75 79 64 68 73 60 61 64 62 58 54 54 36 35 38 42 41 42 45 55 65 66 61 63 62 63 64 64 65 67 68 70 71 72 73 77 78 78 77 80 85 87
55 64 71 68 62 62 65 54 56 56 55 57 68 49 39 43 43 48 46 48 46 45 51 65 60 56 60 60 62 64 66 68 68 70 76 77 78 81 83 82 85 94 98 100
55 56 58 64 61 75 42 44 44 46 45 44 52 48 45 46 50 50 51 52 48 46 48 58 62 57 57 61 64 67 68 69 70 74 80 81 83 84 83 92 99 100 100 100
49 51 64 67 63 46 38 53 52 52 42 42 46 46 49 53 60 58 55 50 42 44 52 57 53 53 56 60 63 66 67 67 71 77 81 84 85 87 90 99 100 100 100 100
58 53 54 70 73 57 37 54 52 48 57 49 57 57 56 60 58 43 51 52 46 41 44 48 50 53 56 60 63 65 64 66 71 76 80 84 89 92 96 100 99 99 100 100
69 67 72 64 66 52 40 45 54 57 49 52 66 62 62 60 56 59 54 58 50 45 48 49 49 52 57 62 65 64 65 66 73 78 82 87 93 99 100 100 99 100 100 98
60 64 68 66 72 74 47 57 56 41 55 60 66 67 60 62 63 69 65 69 66 61 58 58 60 63 65 65 66 66 65 70 73 77 81 85 96 99 99 100 100 100 100 91
62 49 52 54 50 42 46 49 51 51 57 62 64 66 54 61 66 71 70 69 69 68 67 67 67 66 67 68 70 70 69 69 72 76 79 90 100 100 99 100 100 99 97 60
58 56 55 54 38 45 45 45 42 45 47 54 63 64 62 66 69 71 71 70 69 68 68 68 68 68 70 72 75 75 74 75 73 76 80 92 100 100 100 100 98 92 84 36
52 58 55 54 49 47 47 46 47 50 51 56 68 67 67 70 68 70 72 75 80 85 87 88 86 84 83 80 80 83 86 84 79 78 81 88 99 100 100 98 87 85 66 33
60 52 58 56 44 46 46 46 50 50 53 63 70 70 70 72 76 80 80 85 85 83 87 88 88 90 93 93 96 96 93 89 88 82 82 82 90 100 100 98 90 86 52 35

GFSCGP_850_rhum_081.txt.gz
RH
94 97 99 52 35 25 28 31 30 28 41 52 51 49 41 42 45 44 41 36 34 36 43 40 42 59 73 94 94 99 98 95 96 98 99 100 97 99 99 94 99 100 100 100
95 99 83 42 32 40 34 50 50 47 46 48 41 41 35 34 39 39 34 34 34 34 41 41 38 43 56 75 69 85 96 89 94 97 95 96 97 97 98 97 96 98 96 98
94 91 66 54 43 50 40 41 43 45 46 45 38 41 40 35 34 34 36 34 32 33 36 43 39 40 36 59 68 72 84 97 81 93 93 80 73 76 77 84 87 75 67 75
71 82 68 56 42 32 43 29 35 44 55 60 42 36 30 33 34 33 37 38 37 33 34 42 43 34 39 37 53 61 50 56 57 58 61 64 72 81 93 74 69 48 49 46
98 93 80 60 43 34 35 33 36 41 45 34 45 48 28 29 32 32 32 35 34 32 36 42 44 33 35 37 30 30 36 34 36 43 50 52 54 48 41 38 36 34 33 34
83 80 79 58 41 40 42 44 41 39 40 61 41 40 26 28 29 26 26 29 33 34 39 42 42 34 38 35 32 31 30 31 32 35 36 36 34 33 33 34 34 34 33 33
94 95 82 72 59 49 41 47 71 71 75 55 35 37 30 26 25 27 26 27 28 32 40 43 44 37 37 35 33 33 34 35 35 34 34 34 33 33 34 35 37 39 42 41
98 98 92 60 57 59 42 39 50 54 52 41 42 46 31 24 26 28 30 28 30 32 39 46 42 43 41 35 34 34 38 38 40 37 35 35 34 34 35 37 39 44 47 48
81 98 78 70 60 54 52 57 40 50 43 45 39 31 24 20 20 23 25 29 31 31 35 41 43 44 56 44 38 39 42 38 40 40 38 37 36 38 40 43 46 47 49 51
59 97 90 63 65 54 58 38 50 68 65 44 38 32 25 23 24 23 22 23 24 31 34 37 40 47 59 55 51 51 49 46 44 43 41 41 43 45 47 49 50 52 53 54
53 58 88 64 95 69 60 60 50 44 48 43 31 26 18 25 27 28 28 34 36 34 40 43 52 59 66 62 53 56 53 49 46 46 46 48 50 52 54 55 56 57 58 59
50 59 93 75 57 54 56 46 44 62 55 44 46 33 20 23 26 31 32 41 46 48 50 53 62 69 72 70 62 58 52 50 49 51 52 53 56 58 59 60 62 63 63 62
47 66 93 89 63 53 60 50 47 42 68 72 49 31 22 22 26 34 33 35 42 49 57 59 66 74 76 72 62 55 53 54 53 54 56 57 59 58 61 63 66 67 68 67
49 52 60 65 60 51 64 52 49 64 93 54 48 36 26 26 29 31 30 29 33 48 58 61 66 71 72 72 67 61 59 58 57 59 61 63 64 66 68 68 68 70 71 71
50 75 65 53 48 72 68 57 51 78 69 69 43 35 27 24 23 23 26 33 36 42 53 61 66 66 69 72 68 66 63 60 61 63 65 66 67 71 72 72 72 72 72 73
47 77 70 76 51 57 66 53 50 52 52 56 51 47 31 30 29 29 32 35 35 37 46 58 65 66 67 71 70 66 64 63 63 64 66 68 71 72 75 80 79 76 72 75
51 58 65 63 51 51 58 50 48 47 44 47 59 44 33 33 33 36 37 42 42 42 38 51 59 64 66 70 70 64 64 64 65 68 69 70 73 77 78 79 85 85 88 92
49 52 54 63 53 71 37 36 36 40 37 37 38 37 36 37 39 41 42 44 46 47 45 43 48 59 65 69 74 70 66 64 66 70 71 73 76 78 79 81 83 91 100 100
42 43 52 62 54 40 33 35 42 44 36 31 35 36 43 46 51 48 46 48 49 43 41 43 41 53 65 70 72 66 64 63 66 67 68 72 76 79 81 83 85 98 100 100
50 47 52 58 64 58 38 48 44 43 49 44 48 48 49 51 54 40 60 56 55 47 53 56 55 60 68 71 63 62 63 65 67 68 69 73 78 80 82 88 97 100 98 100
63 58 67 61 65 45 31 44 45 56 50 44 51 54 56 52 48 59 65 66 63 63 58 62 65 63 64 61 59 63 66 67 67 67 72 76 79 83 89 92 98 99 99 100
49 53 55 53 61 69 44 46 48 42 46 47 48 52 60 55 55 69 70 71 69 66 60 62 64 64 58 58 63 66 67 66 65 67 71 76 80 86 94 100 100 99 99 100
57 40 43 42 42 39 41 37 42 45 50 49 55 59 67 57 62 72 73 72 71 70 69 68 67 66 66 67 67 67 68 68 68 70 74 77 80 87 100 99 99 99 99 100
44 41 51 48 34 34 36 38 40 41 45 50 52 63 69 64 69 71 73 73 73 71 70 69 68 67 68 68 70 72 74 75 74 80 82 74 80 91 99 99 99 99 100 100
46 49 48 48 42 42 41 42 44 44 51 54 60 66 71 70 69 69 69 71 75 78 79 80 81 78 76 76 74 74 76 77 79 84 80 78 80 89 100 99 100 100 96 94
52 51 53 54 39 43 41 47 57 57 57 57 67 72 68 68 70 72 77 77 81 85 86 88 92 92 95 93 93 94 93 91 93 94 93 87 81 83 96 100 100 96 97 90

GFSCGP_850_rhum_084.txt.gz
RH
97 99 100 82 55 44 51 46 54 47 55 64 66 62 54 52 46 46 45 44 40 37 44 45 48 59 70 80 85 80 84 91 93 93 94 91 87 87 88 87 88 93 93 93
97 100 83 64 48 38 38 46 55 64 54 55 58 57 50 41 52 48 46 45 43 38 42 42 41 44 62 73 72 74 79 86 90 94 98 87 90 91 95 93 94 96 99 98
98 94 78 71 64 54 37 40 73 72 58 48 45 53 44 36 33 39 40 40 39 38 38 41 40 39 51 66 71 72 74 87 76 81 86 92 93 85 94 88 90 92 94 92
90 81 88 80 64 50 60 36 41 47 58 72 47 60 43 37 42 39 37 36 36 35 34 39 42 41 40 45 70 71 78 75 66 67 58 55 64 70 88 88 82 58 55 55
95 83 76 64 54 44 53 45 45 50 59 56 57 65 38 36 43 41 36 33 36 37 36 34 41 42 36 38 40 65 67 68 67 70 63 66 76 78 80 87 78 57 40 35
90 75 79 84 53 47 52 55 43 42 48 80 50 54 42 40 34 32 31 31 33 35 36 34 37 42 40 35 33 33 40 47 44 46 51 61 61 57 51 40 35 33 33 32
92 95 76 73 65 50 45 54 87 89 91 79 39 50 48 31 29 27 26 26 29 32 34 35 44 44 38 33 33 32 32 30 31 33 37 40 39 35 33 32 33 35 36 35
96 96 88 69 72 60 54 52 83 65 77 63 39 52 38 27 27 28 29 29 28 31 32 35 42 44 39 36 35 32 33 34 34 34 34 35 35 35 34 34 35 37 41 42
90 94 80 73 73 65 59 70 43 67 42 75 56 39 28 24 25 28 28 29 30 30 34 36 45 45 44 38 37 37 38 39 39 38 37 37 36 36 37 35 37 42 45 48
57 97 83 81 73 58 62 47 63 86 73 48 50 38 38 31 28 24 25 26 28 31 32 35 45 46 44 42 41 40 41 44 44 43 42 39 38 37 39 43 43 46 47 50
54 67 93 75 83 73 69 68 56 53 60 70 56 43 30 35 33 37 38 37 36 30 33 37 36 47 47 48 50 46 46 45 47 46 45 44 38 42 46 44 47 49 51 53
52 71 93 77 64 55 61 73 54 88 68 65 60 56 29 35 34 34 39 42 43 44 44 45 46 53 58 61 62 51 51 48 44 44 45 46 48 47 48 51 53 54 56 59
53 79 97 87 66 60 70 60 56 60 78 76 75 49 26 28 27 33 34 33 38 39 49 54 60 63 67 70 68 64 61 64 57 54 52 48 49 53 54 54 55 60 64 65
56 59 68 90 70 67 72 59 54 72 97 73 71 54 31 28 30 33 34 32 32 41 46 57 64 68 70 71 71 70 67 59 51 51 51 55 58 58 58 57 60 64 66 70
58 79 71 61 47 76 74 63 59 79 70 82 60 50 37 32 30 29 28 32 35 37 47 55 63 68 71 73 71 69 67 58 57 58 59 60 62 62 61 62 65 66 68 70
52 91 79 84 54 56 73 62 57 56 56 65 63 63 44 38 35 33 33 34 34 36 36 44 58 66 69 71 71 68 64 59 59 61 62 64 65 64 65 67 69 72 74 75
59 71 78 81 52 54 72 57 59 55 50 54 68 54 45 44 40 39 40 39 40 39 42 42 49 60 66 68 69 69 65 63 62 62 63 63 66 67 70 71 73 74 78 79
56 58 66 86 62 85 50 37 39 44 43 44 46 46 42 39 41 43 43 44 44 44 46 46 46 52 61 67 69 69 68 63 64 64 64 66 68 69 70 72 74 77 80 86
46 57 67 80 76 57 41 44 43 45 45 32 37 36 42 46 48 50 54 51 49 49 48 45 43 44 53 63 68 71 69 65 66 65 66 68 70 72 74 76 79 85 88 100
53 52 69 78 83 70 54 49 44 44 64 51 48 48 51 53 73 63 54 52 51 49 51 47 42 42 48 63 68 71 70 65 65 64 67 69 70 73 78 80 83 89 97 99
72 67 83 79 85 74 42 46 44 64 66 45 50 53 55 66 57 52 53 62 61 62 57 52 62 61 62 66 69 71 70 68 68 69 69 68 71 76 78 79 86 93 99 100
67 72 75 76 82 88 43 47 52 51 46 47 49 51 57 62 57 58 67 68 71 69 63 67 69 66 69 70 71 72 72 73 72 69 69 70 74 75 78 84 93 100 100 100
65 49 64 53 57 42 42 40 39 40 45 49 52 50 60 65 58 66 70 70 71 72 74 71 69 70 69 70 72 73 73 74 70 69 69 70 71 74 76 85 100 99 100 100
49 41 62 56 40 40 39 40 40 40 39 40 43 49 52 66 64 68 71 73 72 73 72 73 73 72 70 70 71 70 70 71 71 70 70 72 77 75 72 86 99 99 98 100
66 58 60 61 50 60 52 52 50 47 47 47 48 52 61 71 71 72 71 70 73 78 77 79 80 78 77 75 74 73 73 74 76 78 83 85 83 80 76 84 99 99 100 100
57 62 80 96 62 62 70 59 56 55 57 56 60 58 67 69 72 71 73 75 78 82 86 87 88 90 94 96 96 94 92 91 89 90 94 96 97 92 88 86 98 99 100 99

GFSCGP_850_rhum_087.txt.gz
RH
99 99 100 94 89 79 59 62 62 61 69 78 80 74 68 55 51 50 46 43 44 47 46 43 57 74 82 85 85 78 88 90 76 89 86 86 84 83 77 84 88 92 86 84
98 99 83 73 68 68 57 63 63 59 60 60 74 75 62 57 54 45 43 42 40 42 47 45 42 50 72 81 88 87 82 85 86 82 81 81 79 82 82 82 86 91 89 92
91 96 77 76 68 58 64 61 80 62 75 75 70 72 60 52 50 44 40 38 38 38 44 45 42 39 47 66 74 78 82 80 78 89 89 94 85 89 86 85 85 88 91 95
98 81 78 77 67 61 67 58 75 71 72 95 63 76 58 52 50 56 48 43 44 42 42 42 41 39 39 47 67 72 72 72 75 81 86 78 69 67 68 63 65 70 77 78
99 94 89 85 69 61 63 59 72 78 67 73 62 68 51 46 52 48 46 42 39 37 38 39 40 40 39 39 49 64 71 71 66 66 66 69 66 65 64 68 64 68 66 58
94 88 87 86 72 68 72 61 58 65 67 79 66 67 60 53 42 45 43 36 35 34 35 36 38 40 41 39 41 49 67 75 68 67 66 67 60 64 69 66 59 71 60 37
83 90 79 75 67 73 80 66 95 90 87 79 50 62 58 35 35 37 38 36 34 33 33 36 36 40 41 39 38 40 47 66 71 68 76 73 68 67 69 69 59 39 33 32
93 83 91 77 82 78 78 57 82 83 90 68 48 62 44 33 30 30 29 29 30 30 33 35 35 39 43 41 39 37 35 34 36 38 39 42 47 44 40 36 34 33 34 34
95 93 79 75 81 73 64 78 48 73 56 80 63 48 33 34 36 33 30 27 28 31 32 34 35 38 43 43 38 36 35 38 38 36 35 36 37 37 35 34 34 35 36 41
70 98 81 80 70 60 61 55 65 86 68 58 66 48 44 34 32 30 31 29 29 32 33 38 39 40 43 44 39 38 37 37 42 42 42 39 43 39 38 40 37 38 41 47
63 75 94 78 87 80 72 70 61 60 69 71 62 51 38 38 40 46 44 40 35 29 31 35 38 47 45 45 44 41 40 40 42 40 44 40 42 44 44 43 47 48 51 50
57 81 86 80 65 64 65 74 69 86 70 73 69 58 32 42 43 41 43 39 35 34 33 36 39 41 51 48 49 48 46 44 42 41 43 39 41 42 42 48 50 55 53 53
60 85 97 85 72 65 73 69 69 68 76 79 78 55 31 40 40 38 39 37 38 36 34 36 43 47 53 54 57 59 56 56 55 56 44 49 60 61 70 60 58 55 54 58
57 69 72 84 70 74 80 66 64 74 90 77 78 57 39 33 33 32 37 35 35 40 39 40 48 53 58 63 65 68 70 69 64 63 66 67 71 64 58 56 54 55 59 63
64 81 76 61 56 77 76 66 66 83 72 80 60 61 45 44 34 35 36 33 34 36 46 44 44 45 53 62 69 73 72 71 72 66 62 58 58 59 58 57 59 62 64 66
61 87 81 78 60 60 68 67 67 68 66 72 68 68 47 43 42 43 41 40 36 35 37 40 42 42 46 55 64 70 70 68 65 62 58 59 61 61 60 61 64 66 68 71
69 76 83 90 56 58 66 57 64 63 58 60 76 57 50 53 50 42 40 41 42 42 42 42 44 50 46 54 62 66 64 64 65 64 65 65 64 64 65 66 68 69 73 74
62 66 76 89 69 88 53 39 41 56 54 54 54 51 48 47 46 48 47 49 49 50 47 45 48 46 53 56 66 68 68 66 68 68 68 66 66 68 70 71 72 72 76 79
54 64 75 84 85 65 48 46 48 48 52 50 41 54 54 53 50 48 52 52 49 48 46 46 49 46 49 60 64 68 69 68 69 68 67 67 68 70 70 70 72 74 77 80
57 64 78 86 86 82 50 49 45 46 63 53 53 59 60 57 80 72 51 52 50 53 54 56 51 48 44 52 64 66 68 70 69 70 69 69 72 73 73 73 75 77 82 87
80 77 86 83 92 79 56 48 45 54 52 47 51 54 56 68 63 60 56 55 62 63 60 60 59 50 44 43 63 68 70 71 72 74 74 74 74 73 74 77 74 80 86 96
74 84 85 85 86 90 47 44 47 46 48 48 49 51 53 57 59 59 59 66 66 67 66 65 72 69 66 66 68 70 73 76 77 77 75 76 71 72 74 74 76 82 97 99
60 58 66 65 69 47 44 40 40 41 42 42 48 43 50 50 52 61 63 65 69 69 70 68 73 75 76 76 77 76 77 76 75 75 76 72 71 74 75 75 78 89 99 99
71 60 65 60 50 69 63 61 59 60 67 61 51 50 50 50 49 66 68 68 69 70 70 71 71 72 72 72 73 75 75 76 76 75 74 72 74 76 79 78 81 92 99 99
76 68 74 73 69 69 70 62 66 67 71 70 70 61 68 62 59 71 72 70 69 73 74 77 80 78 74 72 72 74 76 76 76 76 76 77 81 86 88 83 86 87 99 100
65 76 93 93 73 84 78 80 79 79 83 86 90 83 72 70 67 71 75 75 76 85 82 80 84 88 91 90 90 88 86 84 82 82 83 85 92 96 97 95 96 97 96 100

GFSCGP_850_rhum_090.txt.gz
RH
98 94 99 97 93 85 64 67 73 77 82 73 84 76 73 76 73 72 60 53 53 52 47 52 76 78 89 89 84 83 83 86 95 96 89 88 88 83 86 80 86 75 75 77
99 96 84 90 82 75 63 66 68 69 66 69 83 81 69 84 83 75 56 48 47 48 48 46 55 60 70 77 83 81 81 85 88 85 85 93 88 88 84 79 82 88 93 88
99 89 75 83 85 75 67 66 64 80 79 74 75 81 63 71 70 64 51 44 42 41 42 44 45 50 58 64 68 78 75 80 84 70 78 94 84 83 85 86 82 80 87 86
98 82 77 90 74 57 70 57 53 76 90 100 79 89 68 52 57 59 51 48 44 41 40 41 42 43 49 47 66 69 70 78 76 79 84 84 79 82 81 74 72 78 84 84
98 87 84 82 77 60 68 61 61 72 82 95 93 94 55 48 58 54 56 47 43 40 39 40 42 42 41 42 47 63 66 72 77 77 76 84 74 73 78 74 68 75 73 61
93 85 89 91 77 68 68 72 75 81 90 96 74 79 53 58 58 48 45 43 41 38 37 39 39 39 40 40 44 50 54 67 71 69 74 74 70 71 69 66 67 65 62 68
91 95 85 79 77 70 69 82 99 98 98 77 60 73 57 43 39 44 44 37 34 33 37 36 37 38 40 41 40 46 55 56 61 65 68 69 69 72 70 67 65 66 68 67
94 96 86 76 89 93 86 81 85 90 89 69 58 76 51 34 32 32 32 32 33 35 36 35 34 36 37 39 42 41 47 55 61 64 61 66 68 74 64 63 65 65 68 42
92 92 75 77 79 82 81 76 51 73 69 76 61 48 35 37 38 34 31 30 30 31 31 32 31 35 37 40 42 41 40 39 41 57 64 71 66 65 64 65 57 43 39 37
74 98 80 78 67 62 58 53 66 83 70 64 67 59 46 37 38 33 32 30 29 33 34 32 35 35 37 41 42 42 42 40 39 41 45 44 48 46 41 40 42 41 40 42
66 76 85 75 82 86 72 67 68 66 70 65 68 58 40 37 40 44 45 38 32 29 28 34 35 44 43 46 46 44 43 41 42 44 43 40 45 44 46 46 44 43 41 40
69 78 89 80 67 65 66 75 68 83 69 79 72 55 39 38 45 46 44 35 31 31 32 31 32 34 45 48 49 48 46 45 47 48 48 54 54 57 57 58 62 53 45 47
63 86 89 80 66 64 72 68 69 72 78 82 79 54 34 42 46 41 40 40 38 35 33 33 32 35 37 45 52 55 55 53 55 58 54 52 53 46 46 50 57 62 66 67
59 76 69 86 71 75 78 71 69 76 90 76 80 56 40 37 39 35 36 38 36 38 37 36 34 36 39 41 48 53 59 62 62 62 62 60 54 55 62 76 61 66 60 56
68 85 75 64 59 76 76 72 71 84 74 81 58 65 53 46 43 39 42 40 38 35 35 36 35 33 30 36 42 48 60 68 70 70 67 61 58 72 77 66 59 56 60 63
66 89 77 75 61 62 67 66 68 72 69 74 70 72 48 42 45 50 47 41 41 38 37 42 44 43 39 37 37 46 57 65 73 75 74 70 68 63 62 63 62 63 65 65
70 78 83 88 67 59 70 57 62 64 61 63 74 54 50 54 53 49 46 44 43 41 40 41 44 45 46 48 48 49 56 64 71 72 70 66 64 66 68 65 64 65 68 71
75 76 82 90 70 87 53 43 44 59 57 54 60 55 52 51 47 48 48 50 51 51 50 48 47 46 48 49 54 59 64 65 71 71 68 66 67 67 67 68 70 72 72 73
60 75 81 86 87 66 49 46 48 45 48 55 55 60 58 57 54 51 49 53 52 49 46 46 45 44 47 48 48 62 67 67 70 71 70 68 69 69 70 73 74 75 76 79
66 71 76 90 87 82 50 51 47 45 69 48 54 59 60 60 70 64 52 57 53 51 57 54 52 51 52 49 46 61 66 68 68 67 69 72 73 74 75 77 76 75 75 80
81 83 86 86 84 80 59 51 47 60 52 49 51 53 56 69 59 52 56 55 54 60 60 59 56 57 55 52 49 53 64 66 66 72 74 76 78 76 79 80 78 79 76 79
77 87 90 88 90 91 50 48 51 45 50 51 51 51 54 53 50 49 51 55 57 59 64 64 62 67 67 61 56 50 56 65 70 76 78 79 79 78 78 76 78 77 73 77
66 66 69 74 75 60 56 54 65 66 67 67 71 65 65 60 58 58 54 58 64 64 67 67 66 74 77 74 74 73 68 74 77 80 81 80 80 81 76 76 78 75 77 84
73 67 70 66 62 74 65 69 65 74 74 74 72 76 79 75 72 68 64 67 68 68 69 71 72 72 75 78 79 80 80 81 82 80 79 80 79 78 78 81 80 82 84 90
74 70 82 81 74 63 75 54 71 85 91 87 90 91 92 91 91 82 74 62 73 72 71 72 75 74 72 72 74 75 77 78 80 80 80 79 80 80 82 85 93 88 92 96
74 79 86 90 77 86 80 77 87 98 90 91 98 98 97 100 99 97 93 76 76 76 77 82 87 87 85 82 80 77 78 80 78 79 81 82 83 85 92 97 100 99 100 100

GFSCGP_850_rhum_093.txt.gz
RH
92 100 98 100 95 87 66 81 95 88 82 86 88 89 78 79 77 74 67 60 64 56 64 60 72 78 84 82 86 83 78 73 75 74 81 76 73 52 81 80 82 82 85 81
98 98 85 83 89 92 75 76 77 82 85 76 86 94 83 83 86 75 66 61 55 58 49 49 60 70 72 72 78 77 83 84 76 78 69 62 59 69 84 86 85 87 84 83
89 83 78 87 96 97 77 72 74 82 83 77 80 90 84 79 80 61 62 59 58 53 48 47 50 61 71 74 74 76 77 81 81 77 74 79 86 86 85 85 82 80 85 82
90 84 87 97 95 72 79 68 75 84 93 99 83 94 80 66 71 66 54 55 54 52 47 44 44 44 45 56 63 63 64 68 72 74 76 78 83 83 89 83 81 81 81 77
98 92 98 98 91 69 75 64 78 79 93 94 95 82 66 59 62 56 56 48 44 45 46 43 42 41 41 42 48 64 67 68 69 74 75 74 69 75 83 73 78 82 80 79
93 86 88 92 79 70 69 75 83 94 90 97 96 88 68 59 56 47 42 42 39 41 42 41 39 39 40 40 42 44 61 61 64 68 73 74 73 73 76 82 78 84 80 72
91 97 80 83 79 71 75 76 98 96 97 88 73 87 68 49 45 45 47 39 34 35 36 39 40 38 39 40 39 38 41 48 53 58 66 69 71 72 74 76 82 88 82 75
97 92 92 79 88 86 86 72 87 91 95 76 68 78 60 35 38 36 38 35 33 34 36 36 36 38 37 38 38 40 41 40 43 55 63 63 65 68 70 75 84 95 87 77
92 99 74 78 80 82 74 87 54 71 68 78 74 53 38 38 39 36 35 33 34 34 36 35 35 32 33 35 37 39 41 42 51 58 59 62 62 66 69 77 75 69 74 80
75 94 78 75 69 73 67 50 67 81 75 57 68 63 49 40 39 35 34 32 29 31 32 32 31 31 32 36 37 41 43 43 45 45 44 50 63 66 84 69 73 69 63 51
68 75 82 70 82 85 70 68 71 69 70 63 73 59 41 39 36 36 38 37 34 30 29 31 32 34 42 39 39 42 45 46 46 44 43 47 57 67 62 55 54 54 52 56
71 78 96 85 71 68 69 77 67 80 69 84 70 55 41 44 38 43 44 43 40 37 34 32 29 29 30 44 46 46 46 48 47 49 51 51 54 56 53 50 50 47 57 54
62 83 91 77 66 64 70 70 75 74 79 82 75 50 39 47 47 47 45 42 38 38 35 32 30 29 29 30 41 49 49 49 50 51 54 57 59 52 53 57 59 63 61 55
62 77 68 81 66 73 77 72 72 76 90 78 79 56 43 38 39 37 36 40 40 37 35 34 33 32 31 28 31 36 47 54 55 56 58 60 60 55 61 60 58 52 58 67
68 84 77 66 64 75 74 73 76 87 73 82 64 66 52 50 47 37 36 38 41 39 36 33 35 35 35 34 35 37 43 54 60 63 64 62 62 64 58 56 58 74 75 68
72 93 76 77 66 66 67 65 66 74 73 76 76 77 50 46 48 47 46 46 41 40 39 39 39 42 44 43 40 41 43 50 63 70 72 72 70 66 61 62 69 67 67 69
73 79 83 86 74 62 68 52 60 63 64 63 72 59 52 57 56 50 44 46 46 44 42 40 41 42 44 44 45 48 47 54 63 72 77 77 75 69 65 66 63 67 70 70
75 80 83 92 72 75 49 48 48 58 54 61 60 57 53 56 53 50 49 51 49 51 50 47 45 45 45 44 44 48 50 58 65 71 76 76 79 75 68 66 69 72 73 73
68 78 88 87 88 65 50 47 49 50 52 53 61 63 59 60 57 46 45 44 49 52 50 49 52 49 46 42 42 48 49 60 67 70 72 71 71 70 70 71 73 75 76 74
70 73 73 90 89 81 50 52 49 45 69 44 56 61 64 63 79 63 45 55 57 55 52 54 58 57 54 49 52 51 48 59 67 66 67 70 72 71 72 75 76 77 76 73
83 84 86 87 83 77 58 54 47 64 56 60 61 65 65 76 69 62 59 58 56 56 55 59 60 60 56 53 57 53 50 61 61 66 70 73 73 75 76 78 78 79 78 74
76 88 90 89 91 91 55 50 55 64 69 69 69 74 78 77 72 69 69 65 61 56 60 64 64 65 60 62 68 57 53 49 67 70 73 76 77 79 80 80 81 81 79 77
72 70 77 76 75 66 66 56 72 81 86 85 90 91 94 89 90 86 76 72 74 65 66 70 68 68 67 72 76 73 64 56 63 76 76 78 80 82 82 81 82 80 82 76
72 70 74 69 66 71 57 71 64 70 75 89 89 87 86 99 97 79 80 92 93 78 68 72 71 70 69 75 79 78 78 78 80 81 80 85 85 88 87 83 81 81 81 82
76 72 81 79 71 62 77 63 66 59 68 75 75 90 99 98 99 100 100 97 98 96 87 80 73 72 72 74 78 78 80 83 85 89 94 93 90 90 87 84 82 82 88 89
76 80 80 78 77 81 72 62 58 71 80 88 88 91 95 95 96 99 90 100 98 96 97 90 77 78 83 78 77 78 79 79 82 84 84 88 90 92 90 87 86 91 97 99

GFSCGP_850_rhum_096.txt.gz
RH
98 100 98 87 84 80 81 82 90 85 86 87 90 95 86 81 77 76 67 65 69 72 64 63 69 69 72 79 72 70 64 54 62 66 65 43 44 52 82 86 80 81 81 82
96 99 79 83 85 88 80 90 84 96 84 85 88 92 89 79 86 75 70 62 58 63 70 67 64 63 66 74 78 76 65 60 63 58 60 64 55 61 79 84 87 83 82 79
97 85 78 97 96 95 80 84 92 91 89 85 88 90 88 85 72 74 64 61 58 54 54 52 62 65 69 70 73 76 75 75 74 65 66 62 67 71 77 78 71 84 87 84
99 79 77 100 93 73 92 71 81 90 96 99 84 93 90 85 77 69 62 56 52 52 52 49 48 48 60 64 64 73 76 78 80 79 79 78 82 81 72 63 69 83 85 87
98 96 97 100 94 76 82 74 76 83 92 91 94 95 76 84 80 67 57 53 49 48 48 47 46 43 41 44 55 66 69 72 74 75 77 74 78 76 79 76 79 85 83 83
98 99 95 95 84 78 71 73 84 87 85 91 94 83 74 62 58 51 48 43 46 44 45 45 44 43 41 41 41 43 47 58 67 69 71 73 72 72 71 70 75 81 85 89
89 93 84 88 81 79 75 76 97 92 92 87 84 80 59 50 44 42 44 34 34 40 42 41 41 42 39 38 37 39 41 41 55 55 62 64 68 70 73 72 74 80 87 96
93 95 96 81 95 94 89 74 88 91 94 80 78 84 56 36 39 42 43 42 43 39 36 36 39 39 40 37 38 41 40 40 39 47 54 59 63 67 69 71 73 77 83 88
95 99 72 83 83 80 86 83 56 76 68 88 81 60 37 37 41 41 38 34 37 37 38 37 37 36 36 36 36 37 39 40 42 44 49 56 64 66 64 66 67 78 87 85
76 93 74 74 67 70 63 53 68 84 75 58 66 61 55 45 44 40 43 40 34 32 33 34 34 34 32 31 31 36 38 41 43 46 53 55 49 49 57 63 82 81 74 71
68 76 81 69 89 87 76 71 72 71 72 64 67 50 41 48 44 38 52 46 40 35 31 30 29 30 35 42 39 39 39 42 43 44 46 45 44 46 56 83 94 82 72 68
72 81 99 90 74 71 71 81 66 79 70 85 70 54 38 56 50 49 49 44 40 38 36 34 32 31 30 32 46 44 44 47 48 48 48 47 46 48 60 68 65 60 55 52
61 83 90 76 66 62 73 75 75 76 79 82 69 52 41 50 52 43 43 40 39 38 36 34 34 33 32 31 34 45 52 52 52 51 50 50 52 54 60 61 57 53 56 60
62 78 67 82 68 74 74 74 75 76 89 78 76 52 46 50 46 40 34 38 38 39 38 34 33 32 33 33 32 32 35 45 54 56 57 56 56 58 60 60 54 58 69 70
67 86 80 71 71 74 74 73 78 86 72 81 65 69 57 54 55 49 42 40 40 40 37 38 36 35 35 36 36 35 37 38 42 48 56 61 64 67 65 61 62 60 62 57
73 94 75 80 72 69 68 64 68 75 75 78 76 80 59 52 48 48 48 48 46 45 44 43 42 42 39 38 40 43 42 41 46 50 53 66 70 70 68 65 65 59 64 69
75 79 81 88 76 62 65 53 59 64 65 64 66 55 62 55 55 52 50 49 48 47 46 44 42 42 43 43 44 44 44 46 49 53 59 70 75 77 76 71 64 63 66 63
76 82 84 92 67 59 46 48 50 57 56 57 63 58 65 62 61 54 48 54 51 51 51 51 48 46 44 44 43 44 44 44 47 54 60 69 79 82 81 76 68 69 66 66
74 79 88 87 88 58 54 51 50 52 52 59 70 73 67 63 60 47 52 58 59 62 64 64 56 53 53 52 51 50 43 43 50 52 62 69 76 81 82 78 76 70 70 70
71 76 78 88 87 71 48 56 51 46 66 70 71 79 79 73 88 80 69 70 64 60 58 58 56 59 58 56 60 54 50 49 51 50 59 70 75 80 78 72 70 72 74 76
84 85 87 83 83 76 58 59 50 66 60 74 76 83 86 90 85 87 81 68 59 58 63 64 60 60 64 65 65 59 57 57 51 55 68 75 76 76 74 73 73 76 78 79
79 88 89 90 92 89 63 54 57 74 76 74 86 93 100 99 87 84 73 63 61 62 65 62 68 66 68 70 71 65 67 62 59 59 74 78 76 78 80 79 81 83 83 82
74 68 78 77 76 65 69 73 76 75 71 80 85 78 76 82 96 95 94 93 98 94 89 75 76 82 68 73 73 70 73 77 68 62 75 78 80 80 80 81 83 85 85 82
72 73 75 68 65 76 66 80 69 59 63 66 63 76 87 94 88 90 90 93 94 98 94 96 97 86 84 76 74 74 80 82 80 73 74 81 83 82 85 86 88 87 87 83
77 76 80 78 69 65 76 72 66 59 60 55 72 85 90 96 98 99 99 98 98 98 90 90 99 94 91 82 77 78 80 84 88 90 85 86 86 87 90 91 92 92 91 88
79 81 83 79 67 65 65 62 53 48 62 90 100 100 94 98 100 100 99 99 99 99 100 99 98 100 96 92 87 82 83 84 89 91 90 90 95 96 97 99 100 97 95 92

GFSCGP_850_rhum_099.txt.gz
RH
95 100 99 89 80 77 100 69 68 74 81 77 82 87 82 83 84 82 86 83 77 77 69 68 83 89 86 80 72 58 58 61 51 53 70 57 57 68 66 72 65 83 89 88
95 100 95 66 69 80 96 77 81 75 78 75 85 84 85 85 84 84 85 80 83 83 77 72 64 77 91 74 68 71 72 70 58 54 64 62 64 59 71 71 71 82 84 88
97 89 92 95 84 87 85 82 87 80 86 81 82 88 84 75 90 80 72 73 71 76 76 66 78 84 76 70 79 83 74 81 64 74 66 66 67 74 72 64 64 77 81 78
100 96 96 96 89 92 93 75 69 85 88 98 88 88 87 86 90 79 62 62 61 61 58 62 75 75 70 72 73 65 78 83 83 75 81 73 68 68 65 59 68 78 87 80
99 96 100 95 85 81 75 76 78 84 87 87 88 88 80 80 88 75 55 53 52 53 54 54 51 51 59 70 69 68 71 80 82 79 82 86 80 80 75 66 62 81 84 89
99 98 89 91 87 79 71 81 84 82 80 89 84 67 59 72 75 63 46 45 46 51 50 49 46 46 45 45 47 56 63 68 70 73 74 75 73 77 71 75 78 80 76 81
100 98 90 90 86 81 74 72 91 83 88 79 69 71 60 52 58 52 47 38 35 47 46 46 44 43 42 41 40 42 43 44 47 65 69 70 72 73 73 76 75 72 75 77
96 98 94 85 90 88 85 69 80 85 87 82 78 73 55 41 46 47 47 46 44 35 42 40 40 39 39 39 39 39 40 41 43 42 58 56 58 62 68 71 72 74 76 79
89 99 79 86 84 85 79 79 58 73 68 84 74 57 34 40 41 40 42 43 46 43 37 38 38 37 36 37 38 36 38 39 42 43 42 51 50 57 65 69 73 75 78 82
72 98 85 74 81 75 65 54 64 80 71 71 61 59 54 46 43 43 52 50 38 37 36 33 32 34 36 33 34 34 36 38 40 43 46 52 57 59 54 50 56 66 87 97
67 77 82 70 89 97 80 74 72 69 68 58 57 52 41 50 49 45 55 50 44 39 36 33 30 28 29 42 39 34 35 38 40 43 46 50 49 45 44 46 52 80 95 93
73 81 98 90 73 74 74 82 65 76 68 80 60 53 40 54 54 51 50 45 41 39 37 35 33 32 29 28 39 46 44 44 46 49 49 48 47 45 44 48 69 92 90 87
63 81 87 74 60 59 79 79 75 74 73 80 61 52 44 50 49 41 40 41 38 35 37 36 35 34 32 31 28 31 44 48 50 50 50 50 49 46 46 51 69 74 68 59
61 80 67 78 68 76 75 79 79 75 81 76 64 50 44 56 58 56 48 43 40 40 42 40 39 38 36 36 34 32 31 32 40 49 51 51 51 51 52 59 67 66 61 57
66 86 81 78 74 74 75 77 78 86 72 74 69 65 60 65 65 56 49 48 48 45 44 45 44 44 44 43 44 43 40 37 38 39 40 46 57 60 62 64 65 63 59 64
74 93 75 82 70 68 68 65 71 75 76 76 75 72 60 53 56 57 56 56 55 53 53 53 53 52 48 47 48 49 50 54 51 47 45 50 58 64 65 66 65 62 62 67
76 79 78 86 75 59 64 57 62 66 67 65 64 59 68 70 70 68 62 65 64 62 61 57 54 51 50 50 51 48 48 49 51 56 60 59 61 66 70 73 72 69 68 64
78 82 84 90 58 53 48 50 49 56 65 66 66 78 78 78 63 61 62 62 61 60 58 56 56 52 46 43 48 54 56 52 48 48 56 71 73 76 81 81 76 74 69 72
75 79 86 84 82 49 55 55 52 50 70 79 78 83 81 77 64 56 56 62 66 65 62 61 61 60 56 50 51 57 54 57 54 52 49 58 71 74 81 86 84 78 73 72
70 74 76 88 82 51 43 57 55 45 69 77 78 87 89 83 77 75 61 48 43 41 46 53 54 58 61 55 54 61 60 58 58 51 52 56 71 80 80 82 85 80 76 75
84 86 87 84 89 75 59 58 53 66 52 78 80 86 94 95 84 80 70 50 41 53 61 64 78 74 63 65 70 63 63 60 60 59 60 61 63 79 83 84 86 84 80 77
78 86 90 90 93 76 64 58 64 69 75 72 80 70 76 74 69 64 66 74 84 87 88 90 93 80 64 63 72 80 70 65 66 66 70 63 68 80 84 87 86 82 81 82
77 68 75 76 73 60 70 69 76 63 59 72 65 58 76 84 90 96 91 92 92 86 86 85 86 91 84 91 87 88 75 74 72 72 77 69 73 82 84 86 83 82 84 86
71 72 75 67 65 77 72 80 74 57 52 49 53 80 88 96 97 92 97 99 99 100 99 99 99 93 92 89 90 94 83 78 77 79 82 77 76 83 85 85 84 82 84 85
73 78 78 78 70 72 74 79 69 52 44 44 50 67 94 100 95 92 91 91 91 95 96 99 100 99 98 100 98 97 89 82 81 85 88 84 86 88 88 88 86 86 87 90
81 82 83 74 62 62 70 75 58 42 40 45 55 66 72 91 96 98 100 100 93 93 99 99 99 100 99 100 99 100 97 90 91 90 94 92 94 94 97 94 96 99 99 100

GFSCGP_850_rhum_105.txt.gz
RH
53 87 81 64 64 79 69 51 45 39 20 44 39 48 42 42 53 52 56 58 57 73 83 81 89 93 97 87 98 90 92 77 88 85 89 82 69 72 66 54 53 72 75 88
86 90 56 89 78 91 96 62 53 37 36 38 37 45 37 40 45 46 50 55 60 82 90 79 90 100 97 100 92 100 91 79 85 89 80 91 95 89 84 72 62 62 64 75
95 74 87 96 73 70 63 63 53 95 43 36 35 48 50 51 55 55 58 57 64 82 100 96 100 92 80 87 99 96 90 88 84 88 90 89 83 88 92 92 83 81 81 76
100 80 93 95 73 51 50 36 73 81 52 67 42 65 63 66 67 53 46 56 73 92 100 90 90 88 78 82 100 89 82 68 87 91 89 83 83 85 83 78 81 76 76 74
94 83 92 88 56 44 55 42 50 58 53 64 80 95 77 69 76 65 66 60 80 96 100 84 82 93 87 83 99 96 84 83 81 91 96 84 88 81 78 85 89 87 83 80
85 80 81 68 53 48 55 59 93 90 79 64 64 67 90 90 91 85 65 68 80 91 84 76 76 79 86 89 84 83 89 81 79 68 74 82 75 65 68 70 89 89 83 82
97 87 73 72 66 74 98 97 93 88 92 71 60 63 100 79 72 84 83 54 81 85 83 85 83 81 79 82 82 88 85 80 80 79 77 71 60 69 65 64 64 72 70 80
88 94 96 67 80 93 98 71 78 92 82 71 58 93 98 70 69 92 70 51 62 64 62 61 58 57 54 49 59 69 70 74 80 81 82 87 81 81 80 82 86 76 82 80
94 99 71 61 60 60 57 60 47 53 39 57 75 84 70 38 53 73 67 47 51 54 59 50 50 57 44 45 47 45 48 51 52 56 68 77 76 77 76 82 86 82 76 73
69 93 69 62 55 51 49 42 57 60 52 57 75 91 86 47 40 48 47 42 43 45 47 50 44 45 50 48 45 46 47 48 49 50 49 51 49 55 66 68 66 67 66 68
57 69 77 56 62 71 56 50 42 43 40 36 47 54 38 38 37 36 39 41 42 43 42 46 49 50 49 52 55 48 45 45 46 47 50 50 49 50 60 60 61 62 65 64
46 56 75 67 50 47 53 52 42 59 39 38 35 55 35 36 36 34 36 37 41 45 43 44 44 42 39 39 40 48 53 50 52 53 52 57 60 62 67 65 58 53 50 50
45 50 75 59 48 43 48 42 40 43 59 54 42 55 32 34 34 36 38 39 42 45 46 46 47 48 50 45 40 43 44 46 56 58 60 64 67 66 60 55 52 52 52 55
50 50 54 64 70 60 55 47 42 61 72 42 47 50 40 37 39 40 41 41 45 49 52 54 53 51 51 51 52 44 41 43 45 45 52 58 60 60 59 60 55 55 61 85
43 65 70 52 50 58 50 49 46 67 44 54 44 49 46 44 40 43 46 47 48 50 52 53 53 52 52 52 54 51 41 40 40 42 45 47 51 58 61 60 58 63 83 100
42 64 60 53 42 44 45 42 42 46 45 45 45 56 42 43 42 44 48 49 50 52 53 54 54 54 56 57 60 51 56 54 43 41 40 41 45 49 52 57 62 64 74 100
45 49 55 61 43 39 43 47 44 46 46 47 44 53 43 47 49 50 54 52 48 48 48 49 51 55 59 55 55 52 57 54 47 49 48 47 44 42 47 52 60 68 69 76
42 46 49 50 40 53 46 39 39 44 48 47 52 53 53 54 51 48 61 58 50 42 43 47 50 53 57 58 58 62 61 63 62 58 53 50 55 57 50 47 56 59 66 72
42 40 44 46 33 37 44 44 44 44 44 48 50 53 52 50 46 41 60 50 44 44 52 58 63 65 67 67 69 70 68 66 67 71 77 78 66 66 66 59 53 64 69 72
45 40 39 44 42 27 35 43 43 38 42 51 52 51 51 48 40 32 41 43 49 61 66 71 76 77 75 76 78 80 78 79 79 76 68 67 64 79 83 75 71 61 78 75
47 46 48 38 45 31 38 45 45 48 48 54 53 52 50 44 38 40 43 47 60 68 70 67 75 82 87 90 95 98 96 90 86 88 87 84 83 73 68 80 91 78 75 90
42 42 43 46 50 48 41 50 46 49 53 54 57 52 48 44 45 51 60 67 69 71 74 79 86 89 92 94 95 96 99 98 99 97 85 91 89 92 93 76 82 99 93 91
46 37 38 39 37 43 44 45 58 53 53 57 53 48 49 53 57 63 67 66 70 76 86 96 99 98 98 98 98 98 97 98 98 98 98 92 96 100 99 99 79 100 100 100
41 45 44 47 33 40 51 58 61 59 55 60 46 38 55 62 62 60 62 69 77 86 95 100 100 100 99 99 99 100 100 100 100 99 98 98 100 100 100 100 100 100 100 100
36 48 42 41 36 48 51 58 64 66 62 47 33 35 57 64 61 64 69 75 84 94 99 100 100 100 100 100 96 99 100 100 100 100 99 99 98 98 100 100 100 100 100 97
42 37 43 30 30 37 42 54 66 70 64 44 41 56 61 61 67 68 69 74 80 88 98 100 100 99 96 100 93 87 93 99 100 98 99 100 100 100 99 98 100 100 100 100

GFSCGP_850_rhum_108.txt.gz
RH
56 93 95 78 69 61 62 83 74 53 32 39 34 63 64 58 53 56 53 52 54 55 62 67 66 67 84 97 93 86 92 89 78 69 67 76 85 89 88 98 92 90 94 81
91 97 64 53 66 75 86 86 78 57 48 41 56 61 44 41 46 50 53 55 55 56 66 93 67 76 95 98 98 96 100 84 79 68 57 55 67 76 81 78 80 82 88 86
100 77 72 87 87 80 81 74 68 81 76 46 62 81 54 42 39 40 45 49 53 60 88 97 81 91 96 85 98 96 97 92 88 78 76 71 70 91 95 85 72 66 65 68
98 73 87 86 80 66 74 48 58 85 89 95 72 85 52 59 71 62 52 57 55 75 100 94 79 82 90 91 92 94 100 92 91 92 77 77 82 70 72 83 87 86 84 83
95 89 74 77 63 50 53 56 94 84 98 73 59 86 98 78 76 69 61 56 75 74 100 96 86 80 70 80 90 99 99 92 90 97 87 86 88 88 87 89 82 85 82 88
94 76 83 69 63 58 55 84 95 100 100 98 90 99 100 100 94 82 67 72 89 98 100 92 85 64 62 88 96 100 99 93 86 80 85 75 82 83 85 80 81 85 82 83
90 87 74 70 81 74 95 100 98 97 98 98 90 93 100 93 83 86 79 73 98 100 100 86 76 69 82 91 82 81 78 70 66 78 75 66 75 73 80 78 80 82 78 76
94 86 93 70 85 100 97 97 99 96 97 98 67 97 100 90 90 92 78 84 99 99 96 92 86 87 83 80 90 88 86 83 76 75 69 75 63 83 93 79 82 80 76 64
100 93 67 73 68 69 75 95 67 100 57 86 100 99 88 87 87 73 79 86 95 85 81 63 62 62 64 64 65 73 92 92 93 92 91 87 89 81 83 76 86 78 81 75
63 88 63 60 58 62 66 49 74 95 89 96 97 98 98 100 98 64 61 66 83 66 52 53 57 63 63 59 54 54 56 59 62 69 80 84 87 81 80 79 74 76 75 77
56 76 67 55 67 72 63 64 51 50 48 52 79 96 64 85 82 76 49 48 46 46 47 50 53 54 52 57 58 54 47 47 50 53 60 71 80 88 76 67 74 75 69 64
48 63 84 67 48 45 56 49 47 87 70 66 75 88 41 44 42 42 46 47 46 47 47 48 50 50 50 48 48 45 47 54 53 49 50 60 64 67 73 94 85 78 72 66
55 65 89 66 58 48 51 47 53 50 79 61 80 88 37 42 44 42 46 50 52 53 53 52 52 51 52 51 50 46 44 44 45 48 55 56 57 62 67 76 76 69 66 65
62 62 73 90 76 66 65 54 53 74 79 66 73 59 51 50 52 49 48 49 51 52 53 54 53 52 52 51 52 50 45 44 43 43 46 50 55 59 58 56 54 53 55 57
53 72 72 51 51 58 50 53 54 63 54 70 57 65 58 50 52 48 48 49 51 51 51 51 51 53 56 57 58 52 55 58 54 42 40 41 41 45 51 59 60 57 56 55
45 71 58 53 42 41 52 49 53 54 51 57 61 65 49 44 45 49 50 50 48 46 42 39 40 42 45 49 50 51 52 55 58 61 63 58 53 51 47 46 50 57 59 59
50 61 71 72 50 46 58 51 49 51 52 53 65 58 49 52 50 50 54 52 48 44 39 26 28 29 33 36 38 39 45 48 50 54 59 56 61 66 68 60 59 61 57 60
50 49 59 76 49 66 53 41 39 49 50 56 59 57 54 54 52 50 56 56 52 46 36 35 44 44 38 35 36 32 29 33 40 46 54 60 69 65 66 71 76 71 76 78
47 51 56 72 49 39 45 48 47 47 56 48 59 57 52 49 47 61 59 44 43 47 54 55 48 45 45 58 57 44 37 44 59 72 76 71 75 80 84 84 72 69 81 85
49 48 56 54 58 43 45 46 41 38 60 53 50 54 52 49 57 57 41 43 58 65 70 71 69 71 72 74 75 74 75 78 71 62 69 86 89 86 82 81 95 96 81 69
56 56 64 63 66 46 49 47 42 59 60 54 51 51 50 52 45 41 32 51 58 67 70 76 84 88 90 98 92 95 94 96 100 95 92 85 84 92 94 89 86 86 98 92
49 54 64 55 57 63 46 51 55 55 53 54 53 53 49 44 33 38 47 50 61 65 72 74 66 58 69 91 100 100 100 100 100 99 95 98 97 94 91 96 95 98 95 100
61 49 57 48 58 45 45 48 50 51 53 54 56 51 43 28 36 52 58 60 64 70 74 67 63 68 78 98 100 99 98 99 100 100 96 98 98 96 93 94 97 98 100 98
44 45 58 50 43 50 43 48 51 52 53 55 52 42 27 25 40 58 59 61 64 66 55 51 51 65 91 98 97 100 100 100 100 96 93 91 99 98 99 99 96 97 96 100
45 52 54 52 44 44 42 48 55 58 56 55 50 33 28 38 50 54 60 60 63 60 48 48 59 85 100 96 92 96 89 90 94 91 90 94 97 99 100 99 100 99 86 98
48 55 57 56 37 44 46 42 57 60 59 58 48 34 35 51 47 55 62 64 62 57 46 55 69 96 99 100 96 96 98 91 89 92 91 93 94 97 99 100 99 99 100 100

GFSCGP_850_rhum_111.txt.gz
RH
70 96 97 88 84 72 74 82 81 67 60 63 59 51 42 35 46 60 61 36 46 47 51 55 56 52 65 75 86 75 92 91 100 89 98 99 88 77 75 75 78 81 66 66
91 95 74 66 61 69 98 94 84 66 57 61 65 56 47 41 58 66 72 49 52 55 54 55 56 62 72 75 74 87 98 93 91 100 99 92 90 85 88 85 78 71 79 84
97 81 78 86 92 95 87 87 84 85 67 63 59 72 53 41 58 57 61 46 52 54 56 65 96 99 97 81 72 92 100 97 83 90 94 97 95 79 82 85 94 91 89 88
93 72 81 84 89 82 91 62 78 94 83 98 70 94 67 61 56 53 53 56 55 56 62 84 95 84 72 78 83 87 80 100 95 86 79 78 69 75 72 70 74 78 74 90
83 88 93 77 69 64 73 54 76 93 98 85 68 95 92 92 75 87 77 56 52 66 70 92 96 83 69 82 91 93 86 98 89 86 89 82 73 76 70 68 70 71 79 85
96 76 85 73 62 63 66 80 87 100 98 98 78 89 100 100 97 84 76 76 70 70 89 98 98 70 97 93 100 94 96 100 93 96 90 84 79 80 82 85 83 82 93 85
94 88 80 72 86 79 92 100 97 97 97 98 100 98 99 98 88 87 91 78 86 96 100 97 88 90 94 91 87 100 100 100 95 100 94 89 90 88 95 89 85 85 92 93
91 77 85 74 83 100 100 100 99 96 97 98 92 98 100 94 80 85 84 96 100 100 100 100 100 100 99 99 94 94 92 93 87 88 90 86 84 87 84 81 82 81 81 77
90 85 68 74 72 83 91 100 85 100 94 91 98 100 90 91 88 90 99 100 98 89 87 89 81 70 66 69 72 89 99 97 92 93 97 71 64 77 71 72 70 84 74 78
74 96 66 60 67 67 84 61 84 96 96 96 97 98 99 99 98 88 93 87 85 75 74 72 72 73 75 68 64 58 60 74 86 91 87 78 78 86 89 90 85 84 75 84
63 79 71 58 66 73 77 71 57 58 66 90 93 98 99 100 88 71 89 87 72 54 54 54 52 52 53 55 60 65 64 62 59 58 64 72 79 88 84 75 79 82 82 77
55 71 89 67 53 47 55 62 56 86 71 78 87 99 61 87 82 53 55 56 54 53 53 53 53 54 54 52 48 48 48 51 61 64 62 71 83 84 81 77 65 56 55 65
59 77 90 74 60 58 69 53 58 61 75 83 88 99 48 52 53 55 57 55 54 54 53 54 55 57 58 59 56 51 48 47 45 45 46 54 60 63 69 75 78 81 82 74
62 68 76 90 74 72 69 60 59 70 90 83 85 78 63 62 62 57 54 54 54 51 48 47 49 53 56 58 54 50 46 45 42 41 40 41 43 46 47 53 62 65 65 63
58 73 72 57 55 54 55 60 64 71 64 76 73 74 60 60 60 56 53 50 46 42 37 32 30 32 29 27 27 25 28 34 41 46 45 46 47 48 50 52 55 53 58 63
55 73 63 59 44 47 53 56 57 62 63 69 70 69 53 52 52 54 51 48 46 44 43 35 21 21 35 37 37 31 28 27 28 26 27 29 35 46 50 51 53 61 63 68
57 69 79 77 55 48 61 51 53 52 60 64 70 63 57 58 58 58 58 54 51 48 43 34 44 52 47 45 46 47 62 56 50 48 46 44 41 41 43 50 60 63 62 66
60 58 72 83 53 59 55 42 43 55 58 61 63 62 58 57 54 54 57 54 54 48 31 35 44 52 49 43 38 36 38 41 42 47 55 62 72 76 69 60 57 60 65 69
56 61 61 70 69 42 54 50 54 57 57 60 65 61 56 51 50 51 50 53 53 39 15 23 34 34 27 25 25 22 22 31 37 46 60 73 80 75 76 80 80 69 74 89
53 58 65 62 57 47 40 49 40 41 60 55 58 64 55 50 81 79 48 48 31 30 39 39 26 26 36 37 38 39 40 34 30 30 33 42 60 74 85 95 97 89 84 78
62 65 68 70 75 56 48 49 42 55 42 54 54 54 52 59 48 46 42 37 46 54 51 43 59 69 68 60 58 60 73 66 70 61 64 60 58 61 70 76 96 100 98 90
57 70 70 68 64 63 50 52 49 43 56 53 52 51 50 47 43 33 46 51 59 62 62 70 77 78 79 91 98 99 98 97 97 98 98 86 75 76 76 76 80 88 95 100
58 54 54 58 60 44 47 43 40 43 50 53 51 51 48 42 30 36 47 57 60 60 55 57 60 68 72 92 100 98 98 98 98 99 100 99 85 82 85 85 97 93 90 96
50 51 56 48 41 53 45 46 46 47 45 49 51 51 46 27 26 42 52 54 51 49 52 57 65 72 72 78 94 99 99 100 100 100 100 100 100 99 94 93 98 100 100 100
49 54 59 62 52 45 45 43 45 50 51 53 54 49 36 26 32 46 52 50 48 50 57 61 66 66 68 62 71 77 83 82 99 100 100 100 100 100 100 100 99 98 99 100
56 58 53 56 42 42 41 37 44 48 49 52 53 50 34 28 40 48 45 45 46 50 56 56 57 56 61 48 67 74 76 77 88 93 100 100 100 100 100 100 97 90 95 98

GFSCGP_850_rhum_114.txt.gz
RH
80 94 97 92 88 70 71 84 89 73 59 66 70 69 59 51 46 41 37 34 39 38 31 33 51 51 54 49 49 61 86 79 85 90 97 100 82 100 98 79 86 86 87 91
83 91 76 74 74 81 85 91 82 71 61 64 70 72 58 52 47 43 46 42 39 38 36 60 50 52 49 46 55 75 85 82 82 81 99 94 98 99 80 87 86 86 82 91
78 73 72 78 80 85 80 86 86 90 68 71 75 80 66 48 48 46 43 51 59 61 51 53 50 52 52 74 76 77 86 81 81 76 100 100 100 100 91 80 85 89 90 87
88 72 80 84 83 71 87 66 74 80 96 95 59 92 71 87 80 54 45 31 38 48 60 55 56 68 85 98 92 88 86 77 60 80 100 100 100 100 89 89 84 83 80 78
81 91 90 95 74 68 76 62 70 80 99 97 82 94 82 82 93 92 87 79 58 48 53 56 61 75 90 90 88 98 95 85 57 71 100 97 99 100 99 95 85 81 83 77
92 83 85 79 63 58 63 91 87 96 99 100 82 86 99 99 98 89 84 84 82 59 64 64 78 85 87 93 100 100 99 94 67 97 98 97 95 91 95 90 86 88 89 85
86 88 79 76 86 82 96 100 97 97 96 96 100 97 100 99 93 86 88 87 98 93 72 88 99 99 94 80 100 99 100 92 89 98 100 98 97 88 93 82 83 83 83 81
88 84 87 75 92 100 100 100 98 96 97 96 99 98 99 96 93 95 100 100 100 93 98 99 94 97 91 94 98 98 100 99 100 100 98 100 98 95 94 96 90 87 85 85
88 86 63 70 71 89 91 100 94 100 99 88 98 98 97 93 91 90 95 91 100 99 94 87 89 90 84 81 83 91 91 90 94 98 91 92 97 94 84 80 83 92 82 74
70 92 66 60 69 74 84 75 95 98 94 96 88 98 98 98 100 96 94 96 98 85 75 78 80 83 83 82 78 73 74 91 95 94 98 100 88 87 82 82 83 83 79 85
66 79 74 60 61 70 72 77 65 63 89 97 96 98 99 100 98 97 88 83 80 74 72 63 61 61 60 58 61 69 76 81 80 74 66 82 87 87 88 91 93 97 91 91
58 74 91 65 56 52 57 64 64 80 71 81 92 97 81 89 86 82 60 61 60 60 61 61 60 60 60 59 57 56 54 51 53 62 71 73 76 75 80 84 86 85 78 72
58 79 89 54 48 56 72 60 62 67 76 89 85 96 55 72 61 60 62 60 55 53 53 54 54 53 51 51 51 52 53 53 52 49 50 51 58 67 72 73 74 77 83 91
61 72 74 75 66 70 72 65 66 70 91 87 89 84 67 66 67 62 58 50 42 38 32 26 24 26 23 22 22 22 23 28 32 36 39 41 44 47 49 52 58 67 73 77
57 68 70 63 62 58 55 65 73 73 68 74 76 75 68 70 69 61 54 46 42 44 42 35 33 34 36 34 33 28 30 27 22 17 13 15 18 26 35 42 45 50 55 59
60 69 66 62 50 49 52 53 58 64 68 74 72 66 54 56 57 57 52 48 49 47 46 42 39 37 36 35 33 31 27 22 26 28 27 28 29 28 26 22 20 31 47 54
60 71 81 78 59 54 60 51 54 54 61 69 70 58 60 61 60 60 60 57 53 50 38 28 37 34 38 36 36 42 38 43 50 48 47 46 41 36 36 37 37 38 34 28
61 66 76 83 52 59 44 45 45 52 59 63 63 64 60 58 58 55 58 57 52 45 35 38 40 50 51 44 44 40 38 39 39 38 40 41 46 54 61 65 62 57 50 46
58 66 67 62 68 42 49 50 56 50 44 64 68 66 60 56 58 51 46 47 45 38 37 38 33 28 27 32 34 30 25 28 32 34 42 51 60 62 71 87 91 84 83 76
61 63 62 71 51 47 27 45 43 37 49 59 60 68 62 53 44 57 49 50 43 34 15 14 16 17 17 16 18 17 17 18 21 25 34 45 48 53 57 63 74 88 96 98
64 69 70 70 80 62 40 49 40 39 24 56 52 51 55 55 46 43 42 42 40 22 17 24 23 22 23 23 23 23 27 32 41 38 34 38 43 50 54 56 63 72 86 99
53 72 76 74 70 58 51 52 52 38 54 49 51 48 48 46 44 40 29 22 26 26 25 23 20 21 23 30 34 32 43 56 56 56 52 46 47 52 58 66 69 73 77 93
64 56 54 59 58 40 47 40 36 43 44 49 48 49 50 48 47 31 24 30 32 37 40 42 44 48 58 68 80 98 92 99 99 100 98 98 98 87 69 73 78 93 94 99
50 52 60 50 38 49 42 40 41 38 34 38 41 43 44 44 39 23 23 26 30 34 39 49 59 60 61 77 81 96 92 98 91 100 100 100 100 100 96 96 100 100 100 100
48 55 59 64 56 45 40 39 39 42 43 42 44 47 49 46 28 29 35 40 43 50 60 69 70 64 53 65 62 75 91 89 88 100 95 90 94 99 100 100 100 100 100 100
59 60 59 46 37 40 34 32 40 46 45 47 48 51 50 40 27 28 28 32 39 45 52 60 64 58 54 64 66 73 95 90 92 89 94 96 100 100 100 100 96 93 100 93

GFSCGP_850_rhum_117.txt.gz
RH
84 94 97 79 84 74 76 84 87 71 60 69 74 74 62 51 54 58 53 46 41 37 32 26 23 28 39 59 51 44 42 44 60 76 80 77 79 70 65 82 78 98 98 98
78 91 77 75 79 84 92 86 78 68 63 68 69 70 60 60 58 55 55 49 41 35 30 29 27 31 47 56 48 44 39 44 72 85 85 95 93 90 83 91 76 97 99 97
90 73 70 80 80 83 80 81 77 83 74 75 82 86 63 68 59 51 49 44 38 38 40 52 41 60 55 45 42 38 35 59 77 86 90 90 99 100 100 99 79 100 100 96
86 73 84 89 88 80 78 61 69 81 94 96 61 94 69 84 88 78 81 80 56 44 47 55 63 60 50 45 63 65 75 75 87 88 73 100 97 100 100 98 97 100 100 92
78 90 84 93 84 73 80 59 73 96 99 100 91 96 75 87 88 86 82 82 78 59 51 52 58 57 54 75 83 85 84 91 92 87 89 100 96 100 100 98 100 96 94 96
95 79 87 84 70 61 57 75 86 93 99 99 80 92 91 98 97 92 79 83 94 61 56 60 71 73 88 89 96 99 88 88 92 93 99 98 94 100 100 99 93 90 89 83
82 85 83 82 92 80 88 100 97 95 96 93 99 98 100 97 94 92 90 96 100 91 81 90 92 95 95 100 99 99 99 95 98 99 99 99 94 99 97 99 100 100 97 93
88 78 89 83 91 98 100 100 99 98 96 92 89 97 100 96 94 96 99 100 99 96 100 97 98 92 89 87 100 100 99 100 100 100 100 96 96 98 97 94 93 100 96 97
94 87 58 71 76 85 92 100 96 100 96 92 97 94 96 93 96 92 92 97 100 96 100 100 100 92 94 91 98 100 98 95 100 100 98 99 100 100 97 94 96 89 87 84
74 93 65 62 69 81 83 78 98 97 97 93 91 97 98 98 99 99 96 97 100 96 90 87 83 78 77 84 92 91 94 96 97 97 98 95 96 96 92 90 91 86 86 83
71 82 74 59 60 67 75 77 80 72 89 93 95 97 98 100 99 99 96 94 85 76 77 67 64 64 62 63 64 63 65 72 80 88 96 100 100 100 100 100 100 96 97 98
62 77 95 68 53 57 59 64 68 87 69 89 87 96 78 84 86 86 65 64 62 58 54 52 50 45 42 40 42 45 48 50 52 55 65 74 80 86 91 98 98 99 98 95
61 81 88 52 46 55 68 61 66 71 76 87 85 88 59 71 80 65 59 49 40 32 26 24 24 27 27 26 22 23 22 23 25 32 39 44 47 55 62 66 71 74 77 84
61 74 69 76 61 66 74 65 70 71 89 86 86 80 68 71 71 65 51 43 44 42 33 25 22 26 26 22 18 14 15 16 16 18 20 19 20 25 31 38 44 48 52 57
60 66 70 66 70 65 59 60 72 76 71 70 69 82 72 74 71 64 52 45 46 46 36 24 24 28 29 25 22 22 19 19 17 19 19 19 21 22 24 26 25 24 25 34
63 65 70 70 56 58 57 54 56 60 69 74 76 72 59 59 60 60 54 50 50 50 41 33 33 38 33 32 30 32 30 22 23 25 25 25 23 23 23 24 25 26 27 29
64 71 80 75 66 58 51 54 53 57 63 70 81 60 65 68 66 60 58 57 55 53 43 32 32 37 42 47 43 35 32 32 30 35 35 35 36 32 28 29 31 28 31 33
64 67 77 84 53 38 30 49 46 54 56 68 66 63 64 61 60 59 60 63 55 50 38 36 43 45 46 43 37 33 29 25 28 32 33 34 38 39 43 44 46 46 47 44
62 68 65 61 66 40 37 52 58 57 45 60 68 62 61 61 58 55 50 50 50 46 37 42 48 45 38 31 27 26 23 25 29 25 26 28 31 33 35 36 41 46 52 66
68 66 63 72 54 31 20 43 45 36 45 42 60 70 70 59 68 52 44 49 49 39 37 38 36 33 26 20 18 17 17 17 17 21 27 31 30 33 38 43 43 47 55 64
69 73 77 70 76 54 41 48 40 23 16 48 56 58 63 66 47 39 43 42 32 27 23 22 26 20 15 14 13 14 15 15 19 22 25 26 33 43 49 54 48 67 88 93
54 66 76 76 70 53 50 48 45 30 43 48 52 50 52 47 43 42 42 30 21 19 15 12 14 19 24 23 18 15 17 23 28 30 33 34 36 43 50 52 51 54 83 100
62 56 53 61 57 38 44 42 34 37 38 41 47 48 48 47 45 42 35 18 14 15 18 19 18 19 23 24 25 30 39 65 85 88 81 89 96 78 80 96 99 100 100 100
53 54 62 50 41 52 40 36 37 37 35 32 35 41 43 39 39 39 33 17 14 17 19 22 26 32 38 48 50 66 63 87 99 93 85 90 93 84 70 71 92 100 100 100
49 58 62 67 52 45 38 32 29 36 40 40 37 40 41 42 42 42 29 19 20 23 26 29 33 38 45 46 48 63 70 92 95 90 85 78 77 74 70 67 83 98 94 100
60 59 62 55 41 34 30 26 29 34 37 42 40 40 43 46 47 44 26 22 23 25 28 34 43 49 52 51 51 60 67 81 89 81 81 80 92 85 83 90 71 86 82 88

GFSCGP_850_rhum_120.txt.gz
RH
82 94 97 79 84 73 84 88 95 72 61 72 75 73 64 53 53 60 60 60 54 48 35 36 34 26 15 16 27 30 51 52 48 47 49 57 54 58 64 68 74 78 75 72
81 94 75 74 78 85 95 86 84 72 63 74 75 76 63 60 61 63 61 63 58 52 47 37 31 27 29 17 22 35 51 49 44 40 43 69 73 78 78 80 84 78 80 79
90 71 70 83 84 89 93 91 84 84 68 75 87 90 58 54 75 73 69 74 57 48 44 32 28 25 26 28 24 52 51 44 34 30 53 81 96 99 96 83 85 89 89 96
92 73 81 90 87 79 90 66 76 80 92 88 71 92 68 85 86 80 76 78 76 81 39 41 47 45 32 60 63 52 46 43 31 43 74 84 98 94 85 87 82 95 99 100
75 86 83 90 80 74 78 60 68 84 99 99 88 98 75 83 86 94 84 84 93 76 62 49 58 69 67 69 65 74 87 73 76 97 100 97 88 85 84 83 97 99 98 99
84 82 85 76 74 64 58 72 86 92 98 98 82 97 89 98 100 95 84 88 99 67 70 62 67 78 75 84 95 96 89 78 79 88 93 88 88 96 88 98 100 99 95 98
76 94 82 85 94 80 85 99 97 91 94 93 96 98 98 98 98 96 97 99 99 100 90 83 93 100 99 92 87 88 85 76 81 86 88 85 100 100 94 100 100 100 100 100
99 78 85 84 86 90 100 100 98 98 97 94 80 96 99 96 96 97 94 100 100 99 100 100 95 100 99 97 97 100 97 99 98 100 94 100 100 99 95 91 97 94 96 90
97 90 60 85 83 86 91 100 96 100 93 95 92 88 95 88 96 97 98 98 100 100 100 98 99 98 96 86 99 100 100 100 100 100 100 100 100 100 98 92 87 83 88 93
78 96 66 63 74 77 86 78 92 96 95 95 88 97 98 98 98 99 99 99 100 97 96 90 78 86 93 87 91 93 98 97 96 99 99 100 100 100 100 100 100 99 99 94
75 86 76 61 61 68 72 75 81 84 91 98 96 94 98 100 97 95 89 92 84 62 55 56 46 57 54 44 44 51 56 69 71 76 84 96 99 100 100 100 100 100 100 99
67 80 96 67 59 59 60 64 74 90 70 90 86 95 75 79 82 82 65 56 45 39 41 42 39 40 37 34 29 24 24 29 36 40 47 56 68 74 84 90 94 96 95 93
62 82 88 55 47 51 67 66 67 77 81 88 89 86 64 69 77 65 55 44 42 37 31 32 32 34 33 31 29 25 21 19 19 17 17 20 25 30 35 42 49 57 62 65
62 77 69 76 58 66 78 69 68 76 89 79 83 75 73 71 71 65 50 43 46 43 35 30 27 28 30 32 34 29 28 28 25 21 18 17 15 15 17 18 18 19 21 24
64 73 75 73 71 70 73 64 62 80 72 72 62 79 71 75 76 68 54 47 48 50 41 26 26 29 28 27 27 28 26 24 26 26 21 19 19 19 18 17 18 18 20 21
67 75 72 74 60 57 63 58 59 65 71 75 75 74 64 60 63 65 59 50 52 53 48 32 26 29 26 23 23 24 23 22 20 17 16 17 16 14 13 14 14 15 15 18
70 76 82 64 64 56 42 48 57 59 62 65 75 62 64 70 69 63 59 55 57 55 48 33 32 38 35 31 30 27 25 26 29 35 31 24 20 20 20 20 19 21 20 19
67 68 78 86 57 24 22 49 47 55 58 71 64 60 63 61 56 56 58 60 61 54 45 33 33 36 34 32 29 29 29 29 28 24 20 21 20 22 22 21 20 23 23 25
67 70 70 71 71 37 21 45 56 54 41 56 63 66 62 61 62 58 55 53 52 50 44 32 37 43 37 31 30 27 23 18 18 15 17 19 22 21 18 15 16 21 26 26
71 70 66 71 53 27 14 38 47 36 34 25 60 70 73 64 76 69 42 48 48 48 32 39 44 40 32 26 23 20 17 14 12 15 19 23 23 20 19 22 27 32 36 38
76 79 81 76 78 54 36 46 41 22 14 38 52 56 66 73 55 33 36 42 38 28 35 38 37 33 27 25 22 20 17 14 16 16 18 19 21 26 34 40 46 50 53 51
62 79 84 80 74 58 45 51 42 27 30 45 49 50 55 52 45 42 39 36 25 26 29 27 26 24 22 23 20 12 12 14 14 14 16 18 24 31 38 45 46 49 61 88
63 52 52 59 53 33 43 33 28 30 35 35 36 43 48 50 49 41 40 35 23 21 22 22 20 23 24 20 16 16 18 17 15 16 19 33 42 49 63 90 98 100 100 100
58 55 60 52 43 49 38 33 32 33 33 34 33 36 43 44 45 43 42 36 23 21 22 23 22 17 18 18 20 21 23 24 30 36 60 72 71 87 100 100 100 100 100 100
52 61 63 68 54 41 32 31 31 30 31 38 39 36 37 44 46 42 42 36 23 19 19 18 17 16 19 20 24 30 34 37 47 64 74 82 99 100 100 95 99 100 98 100
59 61 59 47 38 34 33 30 32 34 34 35 40 44 38 42 44 43 44 38 26 18 16 15 14 16 22 27 30 32 34 48 72 82 95 100 100 100 100 100 78 86 81 70